GFSSGP_850_thetae_000.txt.gz
Theta_e
346 352 359 360 360 349 355 353 349 351 352 349 347 348 351 349 349 354 348 350 349 349 345 341 343 345 346 346 345 343 339 338 335 335 335 333 331 332 333 332 332 333 334 335 336 336 336 336 337
356 357 357 356 347 349 353 349 351 351 349 349 350 350 349 350 349 348 349 349 350 347 347 346 343 343 345 345 344 342 340 340 337 334 335 333 332 330 333 332 330 332 334 335 336 336 336 337 337
353 354 355 345 339 349 352 350 352 350 348 348 350 350 349 349 348 348 348 348 349 349 349 344 342 343 345 345 342 341 341 339 338 336 334 333 333 331 333 331 331 333 334 334 335 336 336 336 336
352 353 351 341 338 342 348 351 351 351 349 348 348 350 349 348 349 349 349 349 349 350 352 343 345 346 345 345 342 340 339 338 337 335 334 334 331 332 333 331 333 331 331 333 335 336 335 334 334
350 347 341 340 341 341 344 349 350 350 349 348 347 349 349 350 349 350 350 350 351 350 351 347 345 345 345 344 339 336 335 335 335 334 333 331 332 333 332 333 330 330 332 335 337 336 335 334 332
347 343 341 341 341 342 344 348 349 350 350 349 348 350 351 349 350 351 351 352 351 351 352 349 345 345 345 343 337 337 336 335 334 332 332 333 333 334 335 333 331 333 335 339 339 336 339 333 330
345 342 342 342 343 343 344 345 347 350 351 349 347 351 351 349 351 352 353 352 351 351 353 352 350 346 343 344 338 338 338 336 336 335 333 332 334 336 334 331 336 337 338 338 339 340 341 340 335
344 342 341 343 344 343 342 345 346 346 350 348 347 350 351 348 351 352 352 352 352 352 352 354 351 349 350 344 342 340 338 336 337 337 336 337 337 336 333 336 341 336 340 343 340 340 340 340 340
343 344 342 342 344 345 343 345 347 347 349 349 348 347 347 347 349 351 352 352 354 351 352 352 353 351 349 349 341 337 336 337 338 339 338 340 348 349 348 344 341 340 342 343 339 338 338 339 343
342 345 342 340 342 345 344 344 348 349 348 348 350 348 347 346 349 350 351 352 352 352 352 351 353 354 354 351 350 350 348 347 347 347 347 347 349 350 346 346 341 342 340 341 340 339 340 346 345
338 344 342 341 341 343 344 345 347 345 349 346 349 349 347 347 348 349 350 351 351 351 351 354 351 354 353 352 351 351 349 349 348 349 347 348 349 349 351 349 349 347 343 349 348 347 346 345 343
336 338 338 341 341 344 345 345 346 345 344 344 347 348 348 348 348 348 349 350 350 350 351 351 352 351 352 352 350 350 349 349 348 348 341 348 347 350 350 350 350 346 349 348 348 347 344 342 339
333 335 335 336 340 342 345 346 346 346 345 345 348 349 348 348 347 347 348 349 349 350 350 351 352 352 354 350 350 350 349 348 348 348 348 348 348 347 347 346 344 344 349 348 347 347 346 345 345
333 333 334 335 340 343 346 347 347 346 344 349 349 350 349 348 348 348 348 348 349 350 350 351 351 351 350 350 350 350 350 349 348 347 347 338 347 348 350 349 348 348 349 348 346 345 345 346 344
332 336 341 340 342 345 345 350 349 347 347 351 350 350 349 349 349 349 349 349 349 350 350 351 353 353 353 351 352 351 351 349 349 348 350 341 344 346 344 349 348 348 347 339 345 347 347 343 342
334 337 341 343 344 345 346 346 348 348 349 352 351 351 350 349 349 349 350 349 350 351 351 352 351 352 353 353 352 351 350 350 350 349 351 347 346 346 346 348 348 347 344 348 348 346 344 341 340
336 339 339 346 345 348 348 345 347 348 349 350 351 349 349 350 350 351 350 350 350 352 353 353 352 352 352 352 352 351 352 352 351 352 348 350 345 345 347 348 349 345 342 344 346 344 342 339 337
338 339 339 341 347 348 349 346 349 349 349 348 351 350 349 349 349 350 351 351 352 353 354 354 353 353 352 353 350 351 351 351 350 351 350 350 345 348 346 348 346 343 344 346 345 341 339 338 337
336 339 340 340 345 348 347 346 347 350 349 349 350 351 350 348 348 350 352 352 353 353 355 356 354 354 354 352 351 352 350 351 350 350 349 346 349 347 344 348 347 345 345 344 342 338 338 335 337
336 337 339 340 345 347 345 347 346 347 350 348 348 351 352 350 349 351 353 352 352 354 356 357 357 355 352 354 353 350 351 350 352 352 352 352 351 348 347 347 347 345 341 342 339 338 336 336 336
336 337 339 342 345 346 345 348 346 345 348 348 348 347 350 351 350 350 351 352 352 354 356 357 357 356 354 350 354 354 352 351 352 352 352 351 350 349 346 343 342 342 335 334 338 338 336 335 340
335 335 337 340 344 347 346 347 343 345 349 350 349 348 347 350 351 350 350 351 352 353 355 357 357 356 356 352 353 353 353 350 347 348 348 351 350 348 345 342 342 332 333 338 337 336 335 332 335
333 335 336 337 343 344 347 348 343 344 345 349 350 349 347 345 349 350 350 350 352 353 354 356 354 350 354 356 354 356 354 349 348 348 351 350 347 346 344 341 333 324 329 338 334 336 335 335 334
331 333 335 337 339 344 344 345 341 341 344 342 345 348 348 345 345 348 349 349 350 352 353 354 353 347 350 356 356 355 355 352 349 351 348 345 345 347 345 343 334 324 334 336 333 327 333 330 334
330 335 338 339 340 341 342 344 341 338 338 340 338 343 348 346 344 345 347 348 350 351 352 354 352 346 348 351 355 354 356 355 354 353 348 344 344 343 346 341 336 335 336 336 327 324 334 333 334
329 333 337 340 338 338 339 341 340 338 337 336 337 340 345 347 344 344 346 347 350 351 352 353 354 347 347 348 347 348 353 355 353 353 349 346 343 340 341 334 337 334 337 336 327 332 333 334 333
330 333 334 336 336 336 335 338 337 337 339 339 339 341 343 346 345 343 345 346 348 350 352 351 350 349 348 351 346 345 347 349 353 352 353 347 346 341 344 332 333 334 338 334 333 332 333 332 332
329 331 333 335 342 339 336 337 339 339 337 336 339 342 343 345 346 344 344 345 347 348 350 350 349 349 351 351 345 343 345 344 350 353 351 342 344 336 342 334 330 327 334 334 332 333 333 332 328
328 330 333 334 335 337 338 337 336 336 337 336 336 341 341 344 346 346 344 344 347 347 348 351 353 353 349 350 342 338 348 351 348 353 342 336 331 322 327 327 323 329 321 331 334 333 331 332 331
328 330 333 335 339 336 336 335 334 335 335 335 335 334 335 342 345 347 346 346 346 348 347 348 351 354 353 344 338 341 351 352 353 349 337 325 334 319 316 321 322 329 325 331 335 334 331 332 331

GFSSGP_850_thetae_006.txt.gz
Theta_e
346 352 356 354 357 353 358 353 352 353 352 350 349 349 352 352 354 356 348 349 349 347 344 342 342 342 338 338 335 333 332 334 336 332 334 333 332 330 331 331 332 334 334 336 337 336 337 336 340
350 356 358 343 355 359 359 351 354 352 350 351 351 349 350 353 350 349 350 350 348 346 345 343 343 340 339 339 337 335 335 337 335 332 331 331 332 330 329 331 332 332 334 336 336 335 335 335 336
355 359 358 360 354 358 359 353 351 350 350 351 350 351 350 353 350 350 349 349 347 348 348 344 344 342 340 340 339 337 336 336 335 332 331 331 331 330 330 331 329 330 334 336 336 335 334 333 336
358 360 360 363 352 351 352 351 347 348 351 350 351 351 350 350 351 348 349 349 349 351 347 347 346 346 344 342 339 338 336 336 336 334 333 332 330 330 332 329 331 332 336 338 337 337 336 331 336
360 357 359 355 345 351 350 348 348 348 350 350 348 349 349 351 349 349 348 350 350 351 345 346 346 344 343 341 340 340 337 335 337 334 334 331 331 331 333 329 334 333 338 338 339 340 336 330 336
347 353 357 340 340 343 346 348 348 348 350 350 350 351 351 349 349 350 350 350 351 350 349 345 346 344 341 340 339 338 338 337 336 334 334 330 332 334 334 330 335 337 338 340 339 340 340 335 337
343 352 349 346 339 342 344 344 346 347 349 350 351 352 351 349 350 351 350 351 351 351 351 346 345 344 340 339 338 336 336 336 335 334 330 331 334 336 331 335 336 336 340 343 339 338 338 338 338
347 350 347 345 340 337 340 342 343 344 350 348 352 351 352 351 352 352 351 351 352 350 352 353 347 343 339 337 336 336 334 333 331 330 331 332 338 339 341 339 342 339 340 341 338 335 337 345 345
343 343 347 345 342 338 339 339 343 347 346 350 350 349 351 352 353 352 352 352 352 351 352 352 352 346 346 338 338 338 337 336 333 332 332 338 343 349 351 350 344 340 339 339 337 336 345 346 346
342 345 345 343 343 340 339 339 340 342 344 346 349 350 350 352 352 352 351 351 353 350 352 352 351 352 348 351 340 339 337 338 339 339 339 348 350 349 350 348 346 343 340 347 345 347 348 347 347
342 343 343 343 342 341 339 339 338 342 343 345 351 351 350 352 352 353 353 351 350 352 351 350 347 349 351 352 343 344 345 348 346 349 351 349 349 349 349 348 336 348 342 342 349 347 349 344 342
339 340 341 342 340 342 340 340 339 341 342 344 349 351 350 350 351 351 351 350 351 351 352 354 349 348 352 349 347 348 350 349 349 349 345 348 348 349 348 350 347 349 348 349 347 347 346 346 344
336 341 340 339 339 341 340 341 340 339 342 344 346 350 351 350 349 350 349 350 350 348 354 353 350 348 350 350 349 349 351 348 350 350 350 345 350 350 348 349 347 348 350 347 346 344 345 342 341
335 336 338 337 338 339 343 341 339 339 340 343 345 347 350 350 349 349 348 348 350 349 349 351 353 350 353 348 349 349 345 349 347 350 348 348 346 349 349 350 347 344 347 344 346 345 343 342 345
334 336 337 337 337 340 341 343 342 340 339 343 345 345 346 349 350 349 348 348 349 349 350 351 354 353 348 351 351 350 352 346 347 345 349 350 347 345 349 348 346 347 346 344 345 346 344 344 339
333 335 337 337 338 339 340 344 340 341 340 341 345 344 345 346 348 350 350 349 349 350 350 351 351 355 351 349 351 348 348 348 347 349 348 349 349 345 347 347 350 347 347 344 347 346 344 342 338
333 335 336 337 339 339 340 346 343 342 342 341 343 345 345 346 346 348 349 349 350 350 351 351 351 351 353 351 353 351 351 349 349 348 351 349 349 350 348 348 349 348 348 344 345 346 343 339 337
333 336 337 338 341 339 340 346 342 342 342 342 341 343 345 345 346 347 347 348 349 350 351 351 352 352 353 354 350 352 349 350 349 350 350 351 348 347 349 348 349 346 344 345 345 344 341 337 338
333 337 337 338 342 340 344 348 344 341 345 342 343 342 344 346 346 347 348 348 348 350 351 352 352 353 355 356 355 353 352 350 349 345 347 350 349 348 345 345 344 348 344 348 345 338 330 338 337
334 336 338 339 342 342 342 350 345 348 346 344 342 342 342 343 345 347 348 348 349 350 351 352 353 353 352 355 354 352 349 347 349 352 351 346 348 347 347 345 345 349 347 345 344 336 328 338 337
333 335 337 339 341 341 340 342 347 347 345 344 344 343 342 343 343 347 348 349 349 350 351 351 353 354 354 352 354 351 352 354 352 352 350 349 352 348 351 350 347 346 348 337 339 339 331 337 340
334 334 335 337 341 344 342 344 349 345 350 346 345 344 344 343 343 345 348 350 350 350 350 352 353 354 353 352 355 351 351 354 352 351 349 346 348 348 351 343 345 349 340 339 337 334 327 332 338
334 334 335 336 338 345 347 346 346 348 349 351 348 346 345 345 343 344 348 349 350 351 352 353 354 355 354 352 356 356 353 347 345 345 346 348 350 351 352 350 347 344 328 335 333 334 323 337 335
332 334 334 335 337 341 343 344 345 348 346 344 348 347 346 346 345 345 346 348 350 351 354 354 355 357 355 355 354 355 355 351 348 350 350 350 352 350 347 351 343 344 327 332 330 326 323 335 338
330 332 336 337 339 340 340 346 348 347 346 344 343 346 347 347 346 346 346 349 350 352 353 356 355 358 356 355 356 352 354 347 350 349 350 352 350 349 349 344 342 341 330 331 328 327 335 329 329
329 330 336 339 340 339 340 342 344 346 344 343 343 343 346 348 348 347 348 348 351 352 352 355 358 357 357 355 354 354 350 347 346 353 348 352 348 346 348 348 345 341 337 329 325 324 326 332 332
328 329 331 334 335 338 339 339 339 341 345 343 340 341 342 347 348 348 348 349 351 352 352 354 358 358 358 356 356 353 350 346 345 352 354 353 349 347 346 346 343 336 333 333 332 327 335 337 337
328 330 329 332 338 341 339 341 344 344 346 345 344 342 339 339 348 349 347 350 351 352 352 354 356 358 360 358 356 355 351 349 344 350 351 351 354 348 347 345 341 335 333 335 335 328 335 332 329
327 328 329 331 334 339 342 341 343 347 348 347 344 340 338 338 346 347 348 348 351 353 353 354 356 359 362 361 358 354 352 342 348 351 353 351 350 352 348 344 341 334 333 335 331 329 332 335 335
329 329 328 330 337 335 337 339 338 343 344 341 341 338 338 337 339 344 348 348 349 352 353 354 356 358 361 361 359 354 346 347 344 349 351 351 352 351 349 346 339 336 337 329 327 321 330 335 332

GFSSGP_850_thetae_009.txt.gz
Theta_e
345 350 352 353 356 353 358 355 353 353 352 349 348 352 352 351 352 352 347 344 344 344 342 342 341 338 335 332 328 330 333 334 332 333 333 330 330 331 331 332 332 334 336 336 335 334 334 337 339
348 352 350 341 356 358 360 352 353 353 350 349 350 351 351 350 348 346 347 347 344 343 342 342 339 337 335 331 328 331 334 333 332 332 331 329 329 330 331 330 331 334 336 336 334 333 333 335 336
348 355 351 353 353 354 355 353 352 352 351 350 350 350 351 349 348 348 347 345 343 342 342 342 339 338 336 333 331 332 334 333 332 329 330 331 330 330 329 329 330 334 337 337 335 335 331 334 335
354 354 342 358 355 353 352 351 349 352 351 350 350 352 349 350 348 347 347 347 347 344 342 342 340 339 339 337 334 333 334 334 332 331 331 331 330 331 329 332 332 336 339 338 339 333 329 335 335
356 349 359 360 353 350 349 350 353 351 350 351 351 351 350 348 348 349 348 349 349 347 346 345 343 340 340 339 336 334 334 335 335 333 332 331 331 332 329 332 335 338 338 339 340 339 332 336 337
345 347 358 349 348 348 347 348 350 349 349 350 351 351 349 349 349 348 349 349 347 347 346 345 345 344 342 339 338 335 334 335 336 334 333 331 332 334 329 335 338 338 340 340 338 338 337 336 335
346 347 351 344 344 345 348 348 350 350 351 351 351 350 349 349 348 349 349 350 349 345 346 346 343 342 341 339 339 338 337 336 335 334 331 331 335 333 333 337 337 338 340 339 336 337 344 340 343
347 346 348 344 344 340 343 344 349 349 351 350 349 349 349 350 349 349 350 351 350 349 345 345 342 340 339 338 337 337 336 335 334 333 330 332 339 341 346 345 343 340 340 336 340 344 346 346 344
347 347 350 347 343 338 341 346 349 350 351 350 350 349 351 350 350 350 351 350 351 349 345 345 343 339 338 336 335 334 333 333 331 331 331 339 342 347 350 348 346 341 339 339 339 346 347 346 345
339 345 345 343 342 338 339 347 347 351 351 350 351 351 350 351 351 349 349 351 351 351 350 345 343 339 336 335 335 335 335 334 332 332 338 348 344 346 347 346 343 343 342 345 345 346 345 344 343
338 341 341 342 342 339 338 339 342 347 350 350 351 352 351 352 351 349 349 352 349 350 352 351 347 346 343 338 338 337 336 337 338 337 345 347 347 347 339 338 338 346 346 345 345 345 345 345 341
337 339 340 341 341 341 338 338 342 341 349 350 351 352 353 352 350 349 350 350 350 349 351 350 347 348 352 350 347 342 346 347 347 347 344 347 349 347 345 339 343 347 345 345 345 344 345 342 341
336 337 339 341 342 340 339 339 341 342 349 350 350 352 353 352 350 350 347 350 346 350 352 350 347 345 351 349 345 346 349 346 348 347 349 346 345 347 344 343 345 346 347 342 343 344 343 340 341
334 335 339 340 339 342 340 338 341 344 351 351 351 349 352 352 352 350 346 350 349 352 351 350 349 347 349 349 347 347 350 350 350 350 350 348 346 344 347 347 347 345 344 346 343 343 342 341 340
332 332 333 335 336 338 342 340 339 344 346 351 351 350 350 351 352 349 350 349 351 352 350 352 349 349 345 349 349 349 349 347 346 348 348 349 349 347 343 344 345 345 346 345 342 342 344 342 338
330 328 329 333 334 336 340 344 342 341 345 348 349 350 351 350 350 349 347 350 350 348 352 350 350 350 348 347 350 348 348 345 344 346 347 350 349 348 345 344 345 347 347 347 344 341 343 340 338
326 327 329 332 335 338 338 339 339 338 344 344 347 348 349 350 350 350 348 348 350 349 349 350 351 352 351 348 346 347 349 347 347 345 348 350 349 348 345 346 346 349 346 348 344 343 345 340 330
326 328 329 332 336 337 339 339 341 340 339 344 344 345 346 348 349 349 349 348 348 349 349 350 351 350 352 351 345 347 346 346 345 347 348 349 348 348 342 348 345 347 348 343 343 341 337 333 337
328 329 330 332 337 338 343 343 342 339 341 340 344 344 345 346 346 349 349 349 349 349 350 349 350 350 353 352 352 349 347 349 350 347 347 347 349 347 348 346 346 345 347 343 345 339 330 337 336
327 329 330 332 338 337 344 345 342 340 337 339 341 344 345 345 345 347 348 349 348 350 349 350 350 349 354 354 352 351 348 350 348 348 345 347 346 348 344 346 343 345 345 345 342 335 325 337 337
327 328 330 332 336 339 344 347 344 338 340 340 342 343 345 345 345 346 347 347 348 348 350 350 350 351 352 354 354 354 350 349 349 348 349 353 350 349 344 347 345 344 346 345 339 335 328 338 337
328 329 331 332 333 338 341 346 345 342 348 346 344 342 343 345 345 345 347 347 348 348 348 349 349 350 351 352 353 353 348 346 350 352 350 351 348 349 347 344 345 346 346 343 337 333 322 335 337
329 330 331 332 332 339 341 340 340 344 346 343 342 342 342 343 345 346 347 347 348 348 348 349 349 350 351 351 351 351 349 347 351 353 353 348 348 351 347 347 345 343 345 336 324 325 319 334 337
327 329 330 331 331 333 337 340 341 342 346 344 344 343 342 342 343 343 346 347 348 348 349 349 349 350 351 352 352 350 351 348 350 351 347 350 350 349 344 349 347 341 339 328 327 327 319 326 336
325 324 328 330 332 331 330 339 340 342 341 343 344 344 344 343 343 343 347 348 348 349 350 350 350 350 351 352 351 350 354 351 340 342 345 347 350 349 349 346 341 339 337 323 323 322 320 322 330
323 324 326 330 332 332 330 335 335 340 342 344 346 346 345 345 343 344 344 347 349 349 350 351 350 350 352 353 353 351 351 350 343 349 353 351 349 349 349 344 342 338 340 333 321 321 320 322 320
324 324 324 324 328 330 332 331 332 339 340 341 342 344 344 344 345 344 344 346 349 350 349 350 353 352 352 353 354 350 353 349 346 348 351 354 352 350 345 346 347 347 343 338 323 321 322 322 328
324 325 324 325 325 330 331 332 335 336 341 342 341 341 342 342 343 346 345 346 348 348 348 350 352 353 353 354 355 351 348 350 347 345 349 353 352 349 346 346 346 346 344 337 324 323 324 328 328
325 323 322 323 325 327 331 332 331 334 340 342 341 341 341 342 344 346 346 346 347 349 349 350 352 354 355 354 354 354 347 349 348 345 344 350 354 353 349 347 346 346 344 331 322 323 325 328 330
326 324 322 324 323 326 326 328 332 331 340 341 340 341 340 340 342 346 347 348 349 350 351 350 351 353 355 355 354 353 351 346 350 344 343 344 350 352 352 351 348 346 342 335 323 320 326 323 329

GFSSGP_850_thetae_012.txt.gz
Theta_e
349 347 349 351 354 355 357 356 352 353 352 350 349 351 350 349 349 351 344 344 343 343 343 343 341 339 332 331 330 332 334 333 331 333 330 332 331 331 331 333 335 336 335 333 332 333 335 338 339
348 352 351 341 355 358 358 352 352 351 350 351 351 350 349 349 347 345 344 343 343 343 342 341 338 337 331 328 331 332 333 332 332 329 329 329 330 330 330 332 334 335 335 334 333 332 335 335 338
353 348 348 353 353 354 353 350 352 350 350 348 350 350 348 348 345 344 343 343 342 342 342 340 336 334 331 329 333 333 332 332 331 330 329 330 330 329 330 331 335 337 336 337 334 331 335 335 335
346 342 345 359 356 350 353 353 352 351 350 350 349 347 349 347 346 343 344 342 341 341 341 337 336 334 329 330 334 333 332 331 329 329 330 330 331 329 333 333 337 338 339 339 335 330 336 336 337
346 347 354 358 355 351 351 346 350 352 351 350 347 349 349 348 344 344 343 341 341 341 341 338 338 334 332 331 334 334 332 331 330 331 330 330 332 329 334 336 337 339 340 339 338 334 337 337 340
348 349 356 350 347 350 351 348 352 351 350 350 349 348 347 346 345 346 344 343 343 342 341 339 339 338 336 333 332 333 333 333 332 332 330 332 333 330 336 336 337 341 339 337 338 337 336 343 346
345 345 352 345 349 352 352 351 350 350 350 350 349 348 348 348 348 347 348 348 346 345 344 342 340 339 339 336 334 333 333 335 334 333 330 333 334 337 337 341 339 340 339 335 343 341 342 343 343
343 344 346 345 346 346 348 349 350 350 351 350 347 349 349 349 348 348 348 348 348 345 346 345 344 342 339 339 337 334 334 336 334 333 330 336 342 347 346 343 340 339 337 341 344 345 345 346 344
349 345 347 345 345 345 349 349 349 351 350 349 350 348 347 346 348 349 349 349 347 345 346 343 343 341 340 339 337 336 336 334 333 331 331 340 346 345 344 345 342 339 338 337 343 345 343 342 342
345 343 345 343 341 343 348 349 350 350 349 350 349 348 347 349 349 350 350 349 349 346 345 344 340 340 338 337 336 334 333 332 330 330 338 347 343 345 343 337 342 342 340 344 345 345 343 341 340
338 338 340 342 342 346 349 350 350 349 351 349 350 349 349 349 348 348 348 349 348 345 345 344 340 337 337 335 334 333 332 331 330 336 347 346 346 345 340 337 339 344 344 342 344 342 342 340 341
333 334 338 341 341 342 346 349 351 350 350 349 347 349 349 349 349 348 348 350 349 346 344 343 340 337 335 335 336 336 335 334 335 338 340 344 347 345 345 343 344 343 344 343 342 342 342 341 339
330 332 335 339 341 339 338 347 351 349 350 350 350 351 350 350 349 347 344 348 346 349 347 346 343 343 338 338 344 338 340 346 346 346 347 345 347 344 344 343 344 345 344 342 342 342 341 341 340
331 331 331 336 340 340 337 340 344 349 350 351 350 351 351 350 350 348 347 347 348 347 349 348 345 342 347 348 344 344 346 346 348 348 349 348 344 344 344 344 345 345 344 346 343 344 343 342 339
331 329 329 329 336 338 339 344 350 350 350 351 351 351 351 350 350 348 347 348 349 348 346 349 347 346 344 345 345 347 348 350 350 349 350 350 346 347 345 344 346 345 343 342 344 342 341 341 338
326 325 326 328 331 338 338 343 350 350 351 352 352 352 352 351 349 348 343 343 348 348 349 350 349 347 345 344 346 348 352 349 349 347 347 347 348 349 347 343 342 344 347 344 346 344 341 343 338
321 324 325 326 329 339 338 339 343 350 350 350 350 352 352 351 350 350 346 345 349 349 350 350 350 348 347 347 347 347 351 347 345 345 346 345 348 349 346 345 343 344 345 346 346 344 341 341 328
323 324 324 326 328 336 337 338 339 350 350 350 350 349 349 351 352 351 348 348 348 350 350 350 351 349 349 346 347 346 348 349 344 344 345 345 349 348 348 346 346 344 346 346 342 342 339 327 334
323 324 324 326 328 337 337 337 338 345 349 349 350 349 349 349 350 350 348 348 349 349 349 350 350 350 351 350 349 346 345 348 347 347 348 347 348 349 347 347 346 345 346 343 343 343 330 333 336
323 323 324 325 327 336 338 339 339 341 343 346 347 348 349 349 348 349 349 348 349 350 349 349 349 350 350 349 351 347 345 346 342 345 348 347 347 347 347 344 344 344 343 344 342 342 326 335 334
322 322 324 325 327 335 341 342 340 338 340 342 344 345 347 348 348 349 349 348 348 349 349 349 349 349 350 349 351 351 350 344 346 346 347 346 346 345 348 345 345 341 344 343 343 341 327 336 336
322 325 325 326 327 329 340 341 344 340 338 337 342 342 343 345 346 346 349 349 348 348 348 349 349 349 349 349 350 352 351 347 346 347 348 346 350 350 350 346 345 343 338 340 344 336 328 332 336
324 324 327 327 327 328 332 338 339 342 341 343 339 341 343 343 344 345 346 347 348 348 348 348 349 349 349 349 349 350 351 349 344 345 346 349 348 350 349 348 346 343 337 341 339 327 321 329 336
324 323 325 326 326 328 333 339 335 342 342 341 342 342 342 343 344 344 344 345 347 347 347 347 348 349 349 349 349 349 348 348 346 346 350 351 351 349 349 348 343 342 338 342 332 325 326 322 336
321 319 321 325 327 328 325 333 335 338 341 341 342 340 341 342 343 344 344 346 346 347 347 347 348 349 349 349 349 349 348 348 346 346 350 351 352 349 349 347 343 345 340 338 335 323 324 319 330
319 320 322 323 326 326 326 329 332 335 341 343 343 342 341 340 342 344 344 345 345 346 347 347 347 348 349 349 349 349 349 348 347 346 350 351 347 346 348 348 347 343 338 336 329 320 321 319 322
323 318 320 319 323 325 326 328 327 329 336 341 342 341 342 341 340 342 344 344 346 346 346 347 348 348 348 349 349 349 350 347 347 347 344 344 343 346 348 348 348 344 339 337 337 321 320 320 321
321 320 321 315 322 324 324 327 330 329 331 335 339 341 342 341 341 341 342 344 346 346 346 347 347 348 348 349 349 350 350 346 346 347 343 346 349 350 349 350 345 344 345 345 337 328 320 321 321
323 321 318 318 319 322 322 325 324 327 328 332 340 343 343 343 342 342 342 343 344 346 347 347 347 348 349 349 349 350 351 349 347 347 346 346 351 353 352 350 346 344 344 345 344 333 322 321 322
324 323 318 322 320 320 323 325 328 326 327 332 337 341 344 344 343 344 344 343 345 346 348 347 347 348 349 349 350 351 351 351 347 347 345 345 349 351 353 351 348 347 346 345 344 341 324 321 320

GFSSGP_850_thetae_015.txt.gz
Theta_e
347 348 349 350 353 352 355 356 350 350 351 350 347 347 349 347 348 348 345 345 343 342 342 342 342 340 335 335 336 335 334 331 331 331 331 331 331 332 333 335 335 334 333 333 333 336 338 338 338
348 349 349 342 354 357 356 352 352 351 351 349 349 349 348 349 345 344 344 343 343 342 342 342 341 337 331 334 335 334 331 332 329 330 329 330 329 329 333 335 336 335 335 332 332 334 335 338 339
346 346 348 351 351 356 356 351 351 351 350 349 350 348 347 348 345 344 343 343 343 342 342 341 337 334 330 333 334 332 331 329 328 328 330 330 329 331 333 336 338 338 336 329 332 335 335 336 339
351 345 344 357 355 351 352 352 350 349 349 348 348 348 348 346 344 343 343 343 342 342 339 339 337 329 329 332 332 331 331 330 330 329 330 329 329 333 334 337 338 339 338 335 333 336 337 338 339
344 345 353 358 354 350 351 347 352 351 350 349 348 348 347 348 343 343 343 342 341 341 338 335 335 329 329 331 332 331 330 328 329 330 330 331 329 334 336 338 340 338 338 335 336 337 338 342 342
347 348 355 353 347 350 350 345 352 351 349 348 347 347 348 346 343 342 341 340 341 340 337 336 333 329 328 332 332 331 330 329 330 330 331 333 331 336 336 337 339 337 336 338 336 337 342 343 343
346 345 349 346 351 353 351 348 352 350 348 348 346 347 348 344 343 341 340 341 341 340 337 337 335 332 329 330 332 332 331 330 331 331 332 334 333 336 342 339 339 336 337 341 342 342 343 342 344
349 340 347 344 353 353 351 350 351 349 349 347 345 347 347 344 342 341 342 342 342 341 339 338 338 336 333 331 331 332 332 333 333 332 332 335 343 344 342 340 339 336 337 344 344 345 345 342 342
346 344 346 343 344 346 349 350 350 350 349 347 347 345 344 345 344 346 347 348 345 344 342 340 339 339 337 335 333 332 332 334 333 332 332 341 344 344 344 343 339 337 341 343 344 343 342 340 341
346 342 344 339 340 348 349 349 350 350 349 349 348 346 346 347 347 348 348 349 348 345 345 344 342 340 339 338 336 334 335 334 333 330 333 342 343 345 342 339 341 343 340 344 344 343 340 341 342
347 349 343 341 339 347 348 349 350 349 349 348 347 347 348 348 348 348 348 348 345 344 345 343 343 342 339 338 336 335 335 333 331 330 341 344 345 341 340 337 342 344 343 343 342 342 341 340 338
335 341 345 340 336 348 348 349 349 348 347 348 343 344 347 349 349 348 348 348 347 345 344 344 341 339 338 336 335 332 331 330 330 332 343 342 345 344 343 344 343 344 343 342 342 340 341 340 338
335 334 332 333 335 344 348 349 349 348 349 347 346 346 347 348 348 348 347 346 346 343 343 343 339 338 336 335 333 333 333 332 331 337 341 343 344 345 344 344 343 344 344 341 341 341 341 341 341
328 329 330 331 331 346 348 349 349 348 349 349 347 348 348 348 348 348 347 345 347 343 343 342 339 336 335 334 337 335 335 338 341 344 347 346 344 345 346 344 344 344 342 344 342 342 342 342 340
328 329 326 327 329 342 346 349 351 349 349 349 349 349 348 348 348 348 346 346 346 345 345 341 339 337 338 336 342 339 341 345 347 346 347 348 347 345 346 346 343 344 343 341 343 343 343 341 338
325 324 326 327 327 331 342 344 346 349 350 350 349 349 349 349 348 347 346 344 343 344 348 345 343 342 341 343 344 340 346 347 349 348 349 349 349 347 348 347 342 344 344 345 344 346 342 342 339
319 325 325 325 325 336 336 340 348 350 350 350 350 350 350 350 349 348 347 345 344 346 344 347 346 346 346 346 345 343 346 348 348 348 348 347 348 348 348 347 345 343 344 345 345 343 342 342 336
323 324 323 324 327 335 336 338 349 350 350 350 350 350 351 350 349 348 348 346 346 346 346 344 348 347 347 345 343 345 346 348 348 347 346 346 346 348 349 347 344 344 342 344 343 341 341 333 333
322 323 323 324 327 335 335 336 350 349 350 350 350 350 351 350 349 349 348 346 344 346 346 347 348 349 348 346 347 347 346 350 349 346 345 346 345 347 347 347 345 345 343 344 341 341 338 328 335
321 322 322 322 323 327 331 335 349 349 349 350 351 351 351 351 351 351 349 348 343 345 348 348 349 349 349 347 346 345 345 346 348 347 345 344 348 347 347 347 346 344 343 343 342 341 340 330 335
320 321 322 322 324 328 336 339 339 349 349 349 349 349 350 350 351 351 351 350 347 346 347 348 349 349 350 348 349 348 348 346 346 348 347 346 347 347 347 346 346 343 343 341 343 343 341 327 334
320 321 323 323 324 324 335 339 339 341 349 347 348 349 348 348 348 350 351 351 349 347 347 348 348 349 350 349 350 348 348 347 344 345 345 345 347 346 346 346 346 344 343 340 343 342 339 328 336
323 323 323 325 324 325 327 333 332 337 342 341 344 346 347 348 347 348 349 349 349 348 347 348 349 349 349 349 349 348 348 349 347 342 343 345 347 345 346 350 349 346 344 341 340 342 333 325 332
323 323 321 322 321 324 325 327 328 339 339 338 338 342 344 345 347 346 346 348 348 348 348 347 347 348 348 349 349 349 349 347 348 345 345 346 347 346 348 350 349 348 346 340 339 334 326 322 328
321 318 320 319 322 325 323 327 328 331 338 338 338 338 342 342 344 345 346 347 348 348 348 348 347 347 348 349 349 349 349 348 346 346 345 343 346 348 348 348 348 347 341 342 341 333 324 325 321
318 319 316 320 321 324 322 325 326 331 334 339 339 339 339 341 342 343 344 345 346 348 348 348 348 347 348 348 348 348 349 348 348 346 345 343 347 348 347 346 348 346 343 343 339 335 323 323 320
319 320 319 318 319 319 322 324 325 327 329 334 338 339 340 340 341 342 343 343 344 346 347 347 347 347 347 348 348 348 348 348 348 347 344 345 347 349 346 346 347 348 346 344 340 336 322 321 320
321 318 321 312 321 322 320 323 324 326 326 331 337 338 340 340 340 342 342 343 343 344 345 345 345 345 345 346 347 348 348 348 348 348 342 344 345 349 348 344 346 348 348 344 339 337 332 321 321
318 321 317 316 315 321 322 322 322 325 326 327 332 338 341 340 341 341 342 343 343 343 345 345 346 345 346 346 346 347 347 348 349 349 342 342 341 344 345 343 347 348 348 343 344 343 340 327 321
320 320 316 319 318 316 320 321 322 324 325 324 327 332 336 337 340 340 340 341 343 343 344 345 344 345 344 345 346 347 347 348 348 350 345 339 340 341 346 349 349 349 348 344 344 344 344 339 324

GFSSGP_850_thetae_018.txt.gz
Theta_e
348 350 348 347 353 351 355 355 350 348 350 349 346 346 348 347 348 347 345 345 343 342 342 342 343 342 333 329 333 334 333 332 331 331 332 332 332 334 335 334 333 332 333 335 338 338 337 338 338
350 349 348 342 351 352 353 351 352 351 348 348 348 348 348 348 345 345 344 343 342 342 342 342 343 337 334 333 334 333 332 331 331 330 330 329 330 333 335 336 335 335 332 338 337 336 338 338 339
349 349 348 348 349 353 352 349 350 350 350 350 348 347 347 347 344 345 344 343 342 342 342 342 341 333 334 335 334 331 332 330 329 329 329 330 331 334 337 338 338 333 331 333 336 337 337 339 339
346 345 344 355 355 351 349 350 349 350 348 348 347 347 346 346 344 344 344 342 342 342 342 340 338 331 334 334 332 332 329 328 328 330 328 331 333 336 337 339 338 338 334 335 336 337 338 338 339
345 344 352 356 355 350 349 350 350 349 350 347 347 346 345 346 344 343 343 342 342 342 341 337 334 330 332 333 331 330 329 329 329 329 329 330 335 337 339 340 338 338 336 337 337 340 342 342 341
345 348 352 352 347 350 348 346 351 350 348 346 345 346 347 347 343 342 342 342 342 340 339 336 332 329 331 331 331 330 328 329 329 330 331 332 335 336 338 339 337 337 337 336 340 342 342 342 342
344 343 349 348 349 352 351 345 351 348 348 346 344 347 347 344 343 343 342 341 340 338 337 336 331 328 330 331 331 330 328 330 330 330 333 331 337 340 339 339 336 338 340 340 342 342 342 342 341
350 338 346 342 351 352 350 349 350 349 348 346 345 346 346 343 342 342 341 341 340 338 336 334 333 329 329 331 331 330 330 330 331 330 334 336 342 340 341 339 336 339 341 342 342 343 341 340 341
351 345 346 343 349 347 350 349 349 349 347 346 345 344 342 342 341 341 340 341 340 337 336 335 332 329 328 329 330 331 331 332 332 330 336 339 342 341 342 340 336 339 344 345 343 342 339 340 340
346 343 344 339 339 345 349 349 349 349 347 348 347 345 342 342 341 341 341 341 340 339 338 338 336 333 331 329 329 330 331 332 334 331 333 340 344 344 340 340 340 337 340 343 343 340 340 341 339
349 350 342 342 341 340 349 349 349 349 347 347 347 345 343 342 341 342 342 343 343 342 340 339 339 338 337 335 332 332 332 334 333 331 333 343 343 343 340 338 342 340 343 342 341 340 340 339 337
342 341 346 343 340 345 347 349 349 349 347 345 346 343 343 342 342 344 344 345 345 344 345 343 342 340 339 338 336 335 335 334 332 330 337 343 344 343 341 340 342 343 342 343 341 340 340 340 337
340 339 337 336 335 335 347 348 348 349 347 347 347 344 344 343 346 347 345 345 345 344 345 344 343 342 341 338 337 335 334 331 330 330 338 342 344 345 343 342 343 343 341 341 341 339 340 342 340
327 330 334 331 330 335 347 348 348 349 348 347 345 346 345 345 346 346 345 346 345 344 344 344 342 341 339 337 335 332 331 330 330 334 342 343 344 344 345 343 343 344 342 342 341 340 340 340 341
325 326 326 326 327 338 346 350 350 348 348 346 346 346 347 346 346 345 345 346 345 343 342 343 342 339 338 336 333 333 334 334 334 338 345 346 345 344 346 345 344 344 343 342 342 343 343 339 338
323 323 325 327 327 338 346 351 349 348 348 347 346 346 347 347 346 345 346 345 344 342 341 342 341 338 336 335 334 338 336 338 343 344 345 347 346 347 346 347 345 344 343 344 344 344 344 341 339
319 324 324 325 325 332 345 340 346 349 348 348 347 347 347 348 348 346 345 345 344 343 342 340 340 338 336 335 336 339 340 342 345 347 348 348 348 348 346 347 346 344 343 345 346 345 343 341 339
323 322 323 325 327 336 341 336 344 348 348 348 348 348 348 348 346 346 346 346 345 346 342 345 340 339 339 339 338 343 340 345 347 348 347 347 346 346 343 346 347 346 344 344 345 342 341 338 328
322 322 325 323 324 331 333 338 348 348 349 348 348 348 348 348 345 347 347 347 346 344 343 343 344 343 345 344 344 347 343 345 346 347 346 346 345 346 346 348 347 346 345 344 344 341 341 332 332
321 321 321 322 323 324 323 328 347 348 349 349 349 349 349 349 348 347 347 348 347 345 343 345 342 345 345 346 346 345 343 344 345 346 347 346 344 345 345 346 347 347 345 344 343 341 342 332 335
319 320 321 323 323 323 330 332 335 348 348 349 349 349 349 349 349 348 348 348 347 347 344 343 344 345 346 347 347 346 344 345 345 345 348 347 345 344 346 347 347 347 343 342 342 343 343 338 334
319 319 322 322 321 322 330 330 336 345 350 348 349 349 349 349 350 349 348 349 348 347 343 343 345 346 347 347 348 348 346 344 345 345 346 347 347 345 345 346 347 346 344 343 339 342 344 341 329
322 320 320 321 321 321 326 325 325 341 350 349 347 348 350 349 350 349 348 347 349 349 346 344 345 347 347 348 348 348 348 346 345 345 343 345 346 346 346 345 346 347 347 343 340 340 341 339 327
320 322 317 317 318 321 322 323 323 336 347 349 347 348 348 348 349 349 347 346 348 350 349 346 345 346 347 348 348 348 348 348 347 346 347 343 345 344 345 345 346 349 349 346 341 340 341 330 322
320 318 319 320 320 324 319 323 326 326 336 338 344 346 347 348 348 348 348 347 347 348 348 349 348 346 346 347 348 348 348 348 348 347 345 342 342 344 345 344 347 349 348 347 344 339 338 327 323
318 317 318 321 319 322 319 323 323 324 331 336 337 339 342 345 347 347 347 347 346 346 346 347 346 346 347 347 347 348 348 348 348 348 347 344 342 342 343 344 346 347 347 346 343 339 337 329 324
317 320 317 316 317 317 319 321 323 325 325 331 335 336 337 340 342 345 346 347 346 345 344 343 345 345 346 346 346 347 347 348 348 348 348 347 344 341 343 346 348 345 346 346 344 339 335 329 322
317 316 319 311 320 320 319 320 324 324 327 326 332 336 337 337 338 341 342 344 345 344 344 344 343 344 344 345 346 346 346 347 347 348 348 348 345 344 342 347 348 345 346 348 346 343 337 334 322
317 317 315 316 314 318 319 321 318 323 324 325 326 333 335 338 338 338 340 341 342 343 344 343 344 344 345 346 346 347 347 347 348 348 347 347 346 343 343 345 347 345 345 348 347 344 338 337 331
322 321 315 319 317 313 315 320 320 320 323 324 325 327 330 333 337 339 339 340 341 341 342 343 343 344 344 344 344 345 346 346 347 347 347 347 347 342 343 343 346 345 344 347 348 344 342 342 340

GFSSGP_850_thetae_021.txt.gz
Theta_e
347 345 348 347 356 354 357 356 352 349 349 349 347 348 348 348 348 351 346 346 344 344 343 344 344 341 341 336 339 339 336 333 331 331 333 333 334 335 334 337 340 339 337 338 338 338 338 338 338
350 349 348 345 355 358 356 352 352 351 349 348 349 349 349 348 345 345 345 344 343 344 342 343 342 338 332 336 335 334 333 331 331 332 331 332 334 335 336 335 334 336 339 337 336 338 338 338 339
350 348 347 351 352 355 357 351 352 349 349 349 349 348 349 348 345 344 343 342 342 342 342 343 338 331 331 334 333 332 331 331 331 330 329 331 335 337 338 337 334 343 340 340 337 336 339 339 339
348 349 345 356 354 352 350 351 350 350 349 349 348 349 347 347 345 345 342 342 342 342 342 342 334 331 333 334 332 332 330 330 330 329 332 333 337 338 340 340 342 341 340 336 337 338 338 339 341
348 344 355 356 351 351 350 350 350 350 350 349 348 347 346 347 344 344 342 343 342 343 342 339 334 334 335 333 331 330 328 329 329 328 331 334 337 339 340 341 338 337 337 337 340 342 341 341 341
347 349 352 353 349 351 348 350 350 350 350 347 346 346 348 346 344 343 342 342 342 343 345 339 333 335 334 332 331 328 329 329 330 330 333 336 337 339 340 338 338 337 336 340 342 342 341 340 340
347 349 351 350 348 351 350 350 352 350 349 347 346 348 346 346 344 343 342 342 342 343 344 343 332 333 333 331 330 329 329 329 330 332 332 336 339 339 339 337 337 338 339 342 341 341 340 341 339
348 345 350 348 351 352 349 348 351 350 349 345 345 348 347 346 343 342 342 343 342 344 342 342 336 331 331 331 330 328 329 330 330 333 332 337 339 341 339 337 337 341 341 341 342 340 339 340 340
349 354 353 347 350 350 351 351 350 349 347 346 346 346 345 345 343 343 343 343 341 343 339 341 337 329 330 331 331 330 329 330 331 332 334 340 340 341 340 338 337 340 343 343 342 339 340 339 335
350 353 349 344 345 341 350 351 351 350 347 347 347 346 344 345 344 344 344 344 343 342 339 341 336 328 329 330 331 330 331 332 332 330 337 343 343 343 341 339 337 340 341 342 341 340 339 339 340
352 354 348 344 341 340 346 350 350 350 350 347 347 346 345 345 345 344 344 344 343 339 337 336 332 330 328 329 330 330 330 332 334 332 333 342 344 343 339 340 342 339 342 342 341 340 339 338 336
353 349 347 342 340 342 346 350 350 350 349 347 347 346 345 345 345 344 344 344 341 338 337 337 335 332 331 329 329 329 330 331 334 332 331 343 343 342 340 339 343 340 342 343 340 339 340 341 337
351 344 340 339 338 336 340 349 350 350 348 347 347 346 345 345 345 345 344 344 340 339 338 338 338 338 337 336 334 333 332 334 334 331 333 342 345 345 342 342 342 342 341 341 340 340 339 342 341
337 335 329 332 334 331 340 344 349 349 349 349 348 347 345 345 344 345 346 342 342 343 343 342 342 341 339 338 337 336 335 334 332 330 333 342 344 344 343 343 343 343 342 341 342 340 340 339 339
326 326 328 328 329 330 336 348 349 349 349 349 348 347 346 345 345 346 343 342 343 344 344 344 343 343 342 340 338 336 334 331 330 330 339 343 343 343 345 344 344 344 344 342 342 343 344 338 338
326 326 328 329 329 332 338 336 346 349 349 349 348 347 347 347 346 347 347 345 344 343 343 344 344 342 340 339 337 335 332 332 332 331 343 346 345 344 344 346 346 344 344 343 343 342 342 342 340
325 329 328 330 329 337 343 337 340 349 349 349 348 347 347 347 347 348 348 345 344 344 342 342 343 343 339 338 336 333 334 335 335 338 342 344 346 347 347 346 347 345 344 343 344 344 343 341 339
325 325 327 330 330 332 341 341 342 349 349 349 349 347 347 347 348 348 348 347 345 344 342 340 341 341 339 336 335 334 337 337 337 344 346 347 347 347 347 343 344 346 345 344 345 344 341 339 328
323 325 327 328 328 333 338 341 344 349 350 350 349 348 347 347 347 348 348 348 347 345 342 341 340 339 339 336 335 335 337 338 341 344 346 347 344 346 346 346 347 346 346 345 344 344 341 339 329
322 324 327 326 326 327 330 333 335 347 350 350 350 349 348 348 348 348 348 349 349 345 344 343 342 339 337 337 337 338 338 342 340 345 344 347 346 345 345 345 348 347 348 345 345 344 341 341 331
322 323 325 327 326 326 328 331 333 345 347 349 350 350 349 349 349 348 348 349 349 346 345 344 341 341 339 343 342 343 344 345 341 343 344 346 346 345 344 344 347 348 348 346 344 344 343 343 332
322 322 323 325 326 330 330 334 336 338 349 349 349 350 350 349 350 349 349 349 349 346 345 344 342 342 342 343 344 346 346 344 342 342 344 344 346 346 345 345 346 347 348 347 345 342 342 343 337
322 322 323 325 327 327 328 332 334 340 348 350 349 349 349 349 350 350 349 347 346 347 346 345 343 343 343 344 345 346 347 346 345 343 343 344 344 346 347 345 346 346 346 347 345 343 340 342 340
325 324 325 325 327 328 329 329 333 334 339 345 348 349 349 349 349 350 349 349 349 348 347 347 344 343 343 344 345 346 347 348 347 346 343 345 344 345 346 347 346 346 346 348 349 344 340 340 335
324 325 327 326 327 329 330 329 331 332 337 337 345 347 349 350 350 350 351 350 347 347 346 347 347 344 344 344 345 346 347 347 347 347 346 345 346 344 342 344 345 344 345 348 349 346 341 337 328
324 324 324 326 327 327 328 330 331 330 330 335 338 343 346 349 349 350 350 350 346 346 344 345 347 346 345 344 345 346 347 348 348 347 347 347 345 343 340 342 343 343 347 348 348 345 340 336 329
324 326 324 323 322 325 327 328 328 329 331 333 336 337 341 345 347 349 349 349 347 346 345 343 343 345 346 346 345 345 346 347 348 347 347 348 347 346 340 341 343 343 345 346 347 343 338 334 333
323 324 323 324 324 325 326 328 329 332 332 332 335 336 337 338 342 345 348 348 347 346 345 345 343 340 340 341 345 345 345 346 347 348 347 347 348 348 346 342 342 343 345 344 346 345 341 334 331
322 324 324 324 324 324 324 325 329 332 336 336 334 334 335 336 338 340 344 347 346 347 347 346 345 343 342 341 341 343 343 344 346 347 347 346 347 348 348 345 342 343 345 344 345 347 345 339 332
325 325 325 325 326 324 325 325 326 329 332 334 333 333 334 338 337 334 340 343 345 345 345 345 344 345 344 343 342 342 343 344 345 345 346 346 346 347 348 347 344 342 345 343 344 347 347 341 333

GFSSGP_850_thetae_024.txt.gz
Theta_e
345 348 348 348 359 358 359 358 352 351 352 349 348 351 351 348 351 358 347 346 345 345 346 344 338 339 343 343 341 337 338 335 332 333 333 335 336 337 343 343 338 338 338 338 338 338 337 338 339
350 350 351 350 359 361 361 354 354 352 351 350 350 350 350 349 348 348 348 346 346 346 346 346 342 341 341 341 338 338 335 332 331 332 333 335 340 342 335 334 337 340 336 336 338 338 338 339 340
352 352 351 353 356 357 358 354 353 350 350 350 351 352 352 351 348 349 349 348 348 348 348 346 341 340 340 339 337 335 332 331 332 330 332 338 338 337 339 342 343 341 342 336 337 338 339 339 339
351 350 348 359 355 353 353 354 351 351 351 350 351 352 349 349 348 348 348 347 348 348 348 340 338 338 337 335 334 332 331 331 330 331 332 336 338 340 341 342 340 339 336 337 338 339 339 342 342
352 347 357 359 353 352 352 352 352 352 351 351 350 351 349 348 348 347 348 347 346 347 348 341 335 333 334 333 332 331 331 330 329 333 334 337 339 341 341 341 339 337 337 342 342 341 341 339 338
352 351 356 349 349 352 351 351 351 352 351 350 350 349 350 349 348 347 347 346 347 347 347 344 333 333 334 336 332 330 329 330 329 333 335 338 340 339 340 340 339 336 341 342 342 342 340 340 340
353 352 351 349 350 352 351 351 351 351 351 350 349 352 350 348 347 347 347 347 347 347 345 345 344 336 337 338 329 329 329 330 331 333 336 337 338 339 337 337 337 338 342 342 340 341 341 339 338
350 351 350 349 350 354 351 351 351 351 352 348 348 351 351 349 348 347 347 347 347 348 345 344 345 345 347 341 329 329 330 330 332 332 334 338 341 340 339 338 340 341 341 342 339 339 340 339 337
350 355 350 348 349 350 350 353 352 351 349 347 348 348 348 348 347 347 348 348 348 348 345 343 344 345 346 346 333 329 330 330 331 335 337 343 350 351 350 341 339 341 344 342 340 339 339 339 337
351 353 347 345 343 343 346 351 352 351 349 347 348 347 348 348 347 347 347 348 349 347 346 344 343 344 345 344 343 342 343 344 345 345 345 350 348 350 349 344 339 341 341 342 340 340 342 342 339
348 352 346 343 342 341 344 351 352 349 350 348 349 349 348 347 347 347 347 347 346 347 346 345 345 345 345 344 345 345 345 345 347 342 341 350 351 349 350 349 350 346 344 348 346 347 345 340 343
349 346 347 344 341 340 340 347 351 350 347 347 349 348 348 347 347 347 346 346 345 346 346 346 347 346 345 345 345 345 344 345 346 346 332 345 349 350 349 348 348 343 347 348 346 344 345 344 340
348 344 342 341 340 340 337 343 347 350 348 347 349 348 348 347 347 346 346 345 345 346 346 346 347 347 346 346 344 343 345 344 345 347 340 348 350 350 350 347 348 347 347 348 344 344 343 342 346
341 343 341 334 335 337 335 340 345 347 349 348 349 348 347 347 347 346 346 346 346 346 346 347 347 347 346 346 346 346 346 346 347 345 344 341 350 348 351 350 349 349 349 351 343 342 347 338 343
338 337 332 332 333 335 333 337 345 346 350 350 349 348 347 347 347 347 346 346 347 347 347 347 348 348 347 347 345 345 346 346 346 344 336 341 343 344 346 351 350 348 348 344 346 345 348 343 340
331 332 334 336 335 333 335 340 344 347 350 351 351 349 348 347 346 346 346 347 347 348 350 350 349 349 348 348 347 347 346 346 344 342 343 342 343 343 346 349 347 350 343 347 348 347 346 343 341
330 334 336 337 335 337 338 340 341 347 349 351 351 350 349 348 347 346 347 347 348 351 352 352 351 351 351 349 349 346 347 345 344 343 343 346 345 345 346 347 349 347 351 346 347 346 346 342 339
332 332 335 336 337 335 337 340 339 344 347 349 352 351 349 348 347 347 348 348 349 351 352 353 352 352 350 350 348 348 346 345 345 345 345 347 345 346 347 352 345 346 352 349 346 345 344 341 334
331 332 334 334 336 335 337 338 338 342 347 347 351 351 350 349 348 348 349 349 350 351 352 352 351 351 349 349 349 347 345 345 345 345 347 344 345 347 345 352 348 348 349 348 343 346 344 341 337
328 329 331 333 333 332 335 336 338 340 347 347 350 351 351 350 349 349 349 349 348 350 352 353 351 349 342 347 346 347 345 345 346 346 348 344 347 344 345 345 345 348 350 344 344 341 345 342 336
326 328 330 332 333 332 333 335 336 335 339 344 347 350 350 350 350 349 349 348 348 350 352 352 350 348 340 350 349 347 346 346 347 348 349 348 344 346 346 343 344 350 348 350 345 344 345 343 338
326 326 327 329 331 335 335 339 339 338 339 342 344 347 349 350 350 350 348 348 348 349 351 353 352 349 347 341 348 345 347 348 349 350 349 350 344 345 347 344 343 345 351 351 347 348 346 344 340
325 324 325 326 328 331 334 336 337 338 338 339 342 344 348 349 350 351 350 347 347 349 351 353 353 350 350 344 345 347 347 350 350 350 349 350 352 344 352 347 345 345 346 350 347 346 342 347 342
325 324 324 325 327 331 333 336 337 338 339 338 342 345 348 349 350 351 351 348 347 349 351 353 353 345 344 342 340 347 350 350 351 351 351 351 352 352 350 351 345 344 349 349 349 348 344 342 339
326 326 327 327 327 330 332 334 335 336 336 337 338 340 347 349 349 350 352 351 349 349 351 353 354 350 343 343 342 342 344 347 352 355 354 352 351 350 351 347 344 349 345 348 347 348 348 340 335
327 326 326 328 327 328 331 333 335 335 334 334 335 336 343 348 349 350 351 352 352 350 351 352 353 347 343 342 341 342 344 350 353 354 354 354 352 351 352 352 344 342 345 344 347 349 348 344 332
327 329 326 327 328 329 330 331 332 333 334 334 334 335 337 346 349 350 350 351 353 353 352 351 346 341 343 342 341 342 343 345 353 352 353 354 354 352 353 352 342 346 342 342 347 349 346 342 333
327 327 326 326 328 329 328 330 332 333 334 335 335 335 336 341 347 348 349 350 352 354 354 354 348 337 337 341 343 343 343 344 345 347 348 350 353 350 353 352 347 347 343 341 344 349 348 338 336
327 328 327 327 327 328 329 329 331 332 334 334 335 335 336 339 342 345 347 348 350 352 354 355 355 352 343 339 339 341 342 343 344 345 346 346 347 349 348 348 344 345 346 342 344 344 352 337 335
327 327 328 328 330 328 329 329 329 330 331 334 333 334 335 336 338 340 342 345 348 350 352 353 355 355 349 343 340 339 340 341 342 343 344 345 346 347 347 348 348 345 346 344 343 341 350 344 341

GFSSGP_850_thetae_027.txt.gz
Theta_e
344 348 348 352 356 358 362 359 352 354 353 350 351 352 352 351 356 360 343 341 336 335 338 335 336 336 339 341 335 334 335 334 332 334 335 341 342 342 342 339 338 337 338 338 340 338 338 339 339
349 352 351 353 362 365 361 354 353 353 351 351 351 351 351 351 352 349 347 342 340 338 344 345 337 337 342 341 335 335 334 332 333 333 340 342 344 336 335 338 341 338 336 337 338 338 338 340 341
352 353 354 355 361 360 357 355 352 351 351 351 353 353 353 352 351 349 349 347 345 342 348 345 340 342 341 336 335 335 332 332 333 333 339 339 338 340 342 341 339 340 337 337 338 339 339 340 341
354 354 352 361 361 351 354 353 351 352 351 352 352 354 352 351 352 351 349 350 347 349 347 340 341 340 338 335 334 332 331 332 330 332 341 339 340 341 341 340 337 336 339 339 340 341 341 338 338
351 351 359 361 356 351 351 351 351 352 352 351 352 354 352 350 350 350 351 349 348 349 348 343 342 341 336 334 332 331 332 330 332 333 337 339 341 340 340 339 337 340 342 341 341 340 339 339 336
354 353 358 356 349 349 350 350 350 351 351 350 352 352 352 350 350 350 349 348 349 349 344 346 341 339 333 332 331 332 330 329 332 335 337 340 340 340 339 337 336 342 342 342 341 339 339 339 339
355 357 357 354 349 349 349 349 351 351 351 350 350 355 351 349 349 349 348 348 349 347 344 345 344 338 333 332 331 330 330 329 333 336 337 338 339 337 337 336 337 341 341 340 341 341 340 337 337
352 353 354 350 351 350 347 345 347 351 352 349 352 354 352 349 349 348 348 348 348 346 344 344 346 346 346 334 329 329 330 331 332 336 338 340 339 339 338 341 341 341 342 339 339 338 333 332 330
349 355 355 347 346 349 347 345 347 350 349 350 350 351 350 349 348 348 348 348 348 346 343 343 344 346 348 346 336 330 330 331 333 333 339 347 351 348 348 338 340 341 341 340 338 337 339 340 337
349 355 354 344 343 345 347 346 346 349 349 349 349 351 350 349 348 348 348 348 348 347 343 343 343 345 346 344 339 345 344 344 347 348 341 350 350 350 349 339 339 340 341 340 339 340 344 346 343
347 352 349 344 343 342 345 349 346 344 349 348 350 351 350 349 349 350 349 350 349 347 343 343 345 345 345 344 344 344 344 346 347 347 349 350 350 350 348 348 348 345 344 346 346 346 345 341 342
346 347 346 343 342 342 344 348 349 345 344 346 349 350 350 349 348 348 348 349 347 346 345 343 345 346 345 346 344 343 344 345 345 346 341 350 351 349 349 350 349 346 348 349 349 346 345 345 342
344 345 345 346 344 342 340 343 349 347 344 345 349 350 349 349 348 347 347 347 347 346 345 344 346 346 346 347 345 344 344 343 344 347 346 349 350 349 350 350 350 349 348 349 346 345 342 340 347
342 343 344 343 342 340 340 340 344 348 346 346 348 349 349 349 348 348 347 346 347 346 345 345 347 348 348 347 347 345 344 345 345 345 346 342 350 351 351 350 350 347 347 349 347 345 348 342 344
340 343 344 344 338 339 339 340 345 348 349 348 349 348 349 348 348 348 347 346 346 346 347 347 348 349 349 349 349 347 346 345 345 345 346 348 347 347 350 351 347 349 350 344 348 348 347 342 339
339 341 345 341 339 338 338 340 341 346 350 349 349 348 348 348 348 348 347 347 347 347 348 348 347 349 349 349 349 348 347 346 346 345 345 345 350 351 347 351 351 351 348 348 347 346 342 342 341
334 338 340 341 339 339 339 342 343 345 349 350 350 349 347 348 347 348 348 348 347 348 349 349 349 350 351 351 350 350 348 348 346 344 343 345 349 351 350 351 350 347 350 347 346 346 345 341 338
335 335 337 339 340 339 340 341 342 346 347 349 350 350 349 347 347 348 348 348 348 349 351 352 351 351 351 352 351 350 348 348 346 345 344 347 348 348 350 351 351 348 351 349 350 346 344 340 336
335 335 336 338 339 339 340 342 341 342 345 345 349 351 350 349 347 347 348 348 348 350 353 354 353 353 353 353 351 350 348 348 346 346 345 348 351 352 353 354 353 349 351 347 347 348 342 340 339
334 335 336 336 336 338 339 340 340 341 343 345 347 350 351 350 349 347 347 348 348 350 352 354 354 354 353 353 351 350 349 347 346 346 347 350 353 354 352 346 353 353 351 348 349 347 344 340 338
330 332 334 335 336 336 338 340 339 339 340 344 346 349 350 350 350 349 348 348 348 350 352 354 353 353 353 353 352 351 349 347 348 348 348 351 353 353 354 353 349 353 351 349 350 344 347 345 337
327 328 331 332 334 337 337 340 340 339 339 344 345 348 350 350 351 351 348 348 348 349 352 353 353 352 353 352 352 350 349 347 347 348 348 350 353 353 353 352 352 351 351 350 347 349 348 345 341
328 328 328 330 332 335 336 340 341 340 339 339 341 344 349 348 350 351 350 348 347 348 350 353 354 353 353 352 352 352 349 347 348 349 350 349 352 353 353 354 353 352 347 351 347 351 341 348 347
328 327 328 328 329 333 334 338 341 341 341 340 340 340 344 346 349 351 351 349 347 347 349 352 355 353 352 350 343 351 350 347 350 350 351 352 351 355 353 353 353 352 352 353 352 350 350 345 345
327 328 328 327 329 330 332 335 337 339 338 340 339 339 341 343 348 350 351 350 348 347 348 351 354 354 352 353 348 344 348 345 352 352 351 351 351 350 352 349 353 353 346 354 352 351 352 342 347
328 328 328 329 328 328 331 334 336 337 337 337 338 339 342 343 347 350 351 352 349 347 348 351 353 355 356 352 352 340 341 353 352 352 352 352 350 350 350 351 351 353 354 347 352 354 353 351 343
329 330 329 329 330 330 330 331 333 335 336 337 337 338 339 342 346 349 351 352 351 348 349 351 353 353 348 347 344 342 339 341 353 352 350 356 354 351 350 352 354 354 354 354 352 353 353 351 346
330 329 328 329 332 332 332 333 333 335 336 337 338 337 337 339 345 348 350 352 353 352 350 351 353 353 342 344 338 335 337 339 344 353 354 356 355 354 354 353 355 353 353 352 351 353 353 351 351
329 331 329 329 329 331 334 333 334 336 336 336 337 336 337 337 343 347 350 350 352 353 353 352 354 355 355 343 341 337 335 338 339 344 351 350 352 356 351 356 353 349 347 350 351 350 352 351 345
330 330 331 330 333 330 332 333 333 333 333 336 336 335 335 337 340 346 348 349 350 352 354 355 355 356 355 351 344 340 339 337 338 339 342 346 346 347 355 351 355 351 347 349 352 348 351 353 350

GFSSGP_850_thetae_030.txt.gz
Theta_e
345 349 350 350 359 357 361 359 354 355 354 352 353 353 353 354 355 357 343 343 339 335 336 335 338 338 340 340 335 334 332 332 334 337 342 341 342 340 337 337 336 337 338 338 338 338 339 338 339
349 352 351 353 361 358 364 356 356 353 351 351 351 351 353 354 347 345 344 342 336 335 338 336 337 339 341 342 337 334 331 333 334 341 341 341 334 334 338 340 338 336 337 338 338 338 339 340 341
350 352 353 358 361 364 363 354 354 352 352 353 354 354 353 351 346 345 341 338 335 338 345 337 336 340 342 343 335 332 331 332 334 339 339 337 340 339 340 337 337 337 337 338 339 340 341 341 342
352 353 353 359 362 357 356 354 352 352 352 352 352 354 351 348 348 345 338 335 338 346 347 337 338 342 344 336 333 331 332 331 336 339 338 338 338 339 338 335 338 340 340 341 341 337 336 335 337
354 352 359 363 358 354 353 352 351 353 352 353 354 353 352 352 352 344 340 341 345 348 348 339 341 341 341 334 331 331 330 331 333 338 339 339 339 339 338 337 341 340 340 339 338 338 337 337 336
355 346 355 360 353 351 351 351 352 352 353 353 352 351 351 351 350 349 349 347 348 350 348 338 339 342 336 333 331 330 329 333 334 337 340 340 340 337 336 339 341 341 340 340 338 338 336 336 337
350 348 354 356 351 351 352 352 352 352 350 354 352 353 351 351 349 350 347 348 346 347 347 339 341 338 334 331 331 330 329 332 335 338 339 338 336 337 335 339 340 340 339 339 338 333 330 335 335
353 349 358 355 351 351 350 350 351 351 351 352 352 352 351 350 350 349 349 348 348 343 348 347 342 334 333 331 330 329 329 332 335 337 339 339 340 340 339 340 339 340 339 338 337 333 333 333 337
352 356 359 355 351 351 345 352 351 349 351 352 353 350 350 350 349 349 349 349 345 345 345 346 347 345 344 334 329 329 330 331 332 337 339 346 348 342 342 344 339 340 340 338 338 339 341 338 339
350 353 351 350 347 348 347 345 348 348 349 351 352 350 350 349 349 348 348 349 349 345 343 344 346 347 345 344 329 330 330 337 341 348 337 346 349 345 346 338 339 340 341 339 340 344 344 344 340
346 352 346 345 346 345 346 344 347 346 349 352 351 350 350 349 349 348 349 347 348 344 343 344 344 346 343 344 332 341 343 346 348 349 345 346 349 347 347 348 346 345 344 343 344 346 348 344 340
346 347 344 345 346 342 348 344 345 345 347 351 352 350 350 349 349 349 348 349 347 344 343 344 344 346 344 345 341 344 345 346 347 346 344 351 347 350 349 349 350 347 349 346 347 347 345 345 341
344 348 346 342 345 341 345 347 345 345 346 349 351 350 350 349 349 349 349 348 348 345 344 345 345 340 344 347 343 343 344 344 345 347 342 350 347 351 349 351 348 348 344 335 348 346 339 345 338
342 343 345 345 346 342 340 346 345 346 344 348 350 350 349 349 350 349 349 349 348 348 344 344 346 343 345 347 345 345 343 343 346 346 345 349 352 350 348 350 349 348 347 347 348 343 336 345 342
340 342 343 344 344 342 340 340 344 346 345 345 349 350 349 349 348 348 350 347 347 344 345 344 345 345 344 345 347 345 345 346 343 347 346 344 350 351 347 349 350 349 350 345 345 342 343 342 339
340 340 344 344 344 341 339 340 347 345 346 346 348 349 349 349 348 348 347 346 348 346 344 347 348 349 344 345 348 346 347 345 347 345 346 344 342 352 345 351 350 345 349 345 344 343 345 342 342
339 341 342 344 343 341 339 340 340 347 347 349 347 348 349 349 348 348 347 347 347 346 346 347 346 348 347 348 347 346 347 347 346 346 345 344 339 341 352 349 348 347 348 348 346 343 346 340 339
340 340 339 343 343 340 340 340 342 344 348 349 350 347 348 348 348 348 348 348 347 348 347 347 347 349 348 345 348 349 349 347 347 346 344 344 344 342 342 350 352 348 349 350 346 346 342 338 336
339 338 336 338 339 341 340 342 344 344 344 350 350 350 348 348 347 348 348 348 348 349 348 348 349 349 350 350 349 352 347 349 347 346 345 344 344 344 345 350 351 348 346 349 341 341 343 338 338
337 338 336 335 337 338 341 340 342 345 343 345 349 350 350 348 348 348 349 348 348 349 350 349 349 349 351 350 350 348 350 349 348 346 346 345 346 349 346 346 348 353 348 348 340 348 345 340 339
336 337 336 336 336 338 340 341 341 344 344 343 347 349 350 350 349 348 349 348 348 350 350 351 351 351 352 352 351 351 350 349 348 347 346 347 347 347 349 351 347 353 349 349 341 342 344 342 336
333 335 334 335 336 337 337 339 344 342 342 343 343 348 350 351 350 348 349 348 348 350 351 352 353 351 351 351 352 352 350 349 349 347 348 348 348 349 351 352 348 348 350 350 348 342 344 346 343
329 329 331 332 334 335 336 338 338 343 342 342 345 347 349 350 351 349 349 348 349 349 353 354 353 352 352 351 355 352 351 350 347 348 348 348 349 349 348 355 351 345 346 352 350 346 345 342 347
328 328 328 329 331 336 335 337 340 341 344 342 343 343 348 349 351 351 349 349 349 350 352 355 353 353 351 352 351 355 351 349 348 347 348 349 350 352 351 353 352 349 345 352 352 347 341 346 344
327 327 329 329 330 331 333 335 339 339 342 342 341 341 344 348 350 352 352 350 349 350 352 353 354 353 352 349 349 353 354 348 349 349 349 352 352 353 353 348 353 351 346 348 350 348 344 338 345
328 328 329 332 331 328 330 333 336 337 338 340 340 340 342 345 349 352 353 352 350 349 351 353 353 352 351 350 347 347 352 353 346 349 350 351 352 351 352 352 349 347 345 346 351 347 350 349 337
329 329 329 329 329 329 329 330 332 335 337 338 338 340 341 343 345 350 352 353 351 349 350 351 354 352 351 348 349 341 344 349 340 349 352 354 351 352 351 350 350 350 350 345 346 351 347 350 349
330 330 329 330 332 333 331 335 333 335 337 338 340 338 340 341 343 349 352 353 352 349 350 351 353 352 345 345 343 340 335 337 339 338 349 351 355 350 353 351 351 350 351 349 351 346 347 351 350
330 331 329 329 330 331 334 332 337 338 338 340 339 338 339 342 344 347 352 353 353 351 350 351 352 354 353 347 338 337 339 336 336 339 340 347 351 357 350 357 353 351 351 346 350 349 347 345 350
329 331 332 332 335 332 334 334 335 338 338 339 338 337 338 339 345 346 349 353 354 353 351 351 353 355 354 350 348 343 339 336 334 335 336 339 346 347 357 351 357 354 354 345 344 342 345 352 350

GFSSGP_850_thetae_033.txt.gz
Theta_e
345 346 349 351 358 355 359 356 354 356 353 353 352 354 354 350 352 353 343 340 339 336 339 340 341 337 338 333 334 335 334 335 336 338 339 337 337 341 338 339 337 338 338 337 338 338 338 337 334
346 351 352 353 359 357 359 355 358 354 351 351 353 353 353 349 346 345 342 339 336 335 336 339 339 337 340 338 334 332 333 335 338 339 334 332 337 343 338 336 336 338 337 337 338 339 340 340 332
347 351 352 355 359 359 361 356 355 352 352 352 353 352 351 346 345 343 340 337 335 335 335 337 339 338 340 339 332 332 332 335 336 337 336 339 338 337 336 337 337 337 338 339 340 337 338 340 331
351 352 352 359 361 356 356 353 352 352 354 352 351 349 347 344 345 343 340 335 335 336 335 336 340 340 341 334 331 332 331 335 337 337 336 336 338 336 336 339 339 339 338 336 335 335 335 338 332
353 352 358 359 359 356 353 352 353 354 353 352 350 348 347 351 344 341 338 335 340 344 342 336 340 341 341 331 331 331 330 336 337 338 337 338 338 336 340 340 339 338 337 337 337 337 336 336 336
354 347 355 356 355 352 352 351 352 354 354 352 351 351 352 349 340 338 335 344 348 347 345 336 340 340 334 331 331 330 333 335 337 339 339 338 336 336 340 340 339 339 338 338 337 336 338 338 339
351 349 349 350 354 353 352 352 351 354 353 352 350 352 351 346 338 335 340 346 349 347 342 340 338 338 332 330 330 329 333 335 338 338 337 336 336 335 340 339 339 338 339 337 331 331 335 337 338
346 344 347 353 354 354 353 351 351 352 354 351 350 352 351 345 338 340 345 348 349 347 341 337 336 332 331 330 329 328 334 336 337 338 337 336 340 338 340 339 339 339 337 335 336 333 335 336 340
353 352 349 354 352 348 347 351 351 353 352 351 351 350 349 347 342 346 348 349 348 345 338 334 333 331 330 329 329 329 332 335 337 338 341 344 343 344 338 339 340 340 337 338 342 341 339 339 339
351 354 353 350 347 348 347 348 350 353 351 352 351 350 348 348 348 348 348 347 345 343 337 333 331 331 329 328 329 329 331 337 342 337 337 343 343 340 338 338 339 340 340 340 344 342 342 342 341
351 352 349 346 345 346 347 347 347 352 352 351 351 351 349 350 349 349 348 344 347 345 340 340 334 334 331 328 328 330 343 346 344 343 339 345 345 347 344 342 341 344 343 343 345 347 342 339 340
348 347 347 344 343 344 345 344 345 349 352 351 350 350 350 349 349 349 345 347 346 344 341 344 341 339 338 330 328 341 345 346 347 342 343 344 343 349 347 348 347 347 346 344 345 344 344 341 337
344 347 343 343 344 343 344 344 345 351 351 350 349 349 349 348 349 348 348 348 346 343 342 342 341 344 343 343 344 342 343 345 348 347 342 345 345 347 348 349 346 345 345 338 345 343 339 339 336
342 345 343 345 343 343 342 341 345 352 351 350 350 350 349 349 347 346 348 347 345 344 343 343 342 344 345 346 340 343 345 345 347 347 344 343 346 347 347 347 345 347 347 343 343 343 338 338 335
342 343 347 345 344 345 345 347 345 352 351 350 351 349 348 349 348 346 345 345 347 343 346 343 343 340 345 347 345 344 345 344 345 347 346 345 342 348 348 346 348 347 344 343 342 340 342 339 336
342 341 343 345 344 345 345 348 346 350 352 350 350 350 349 348 349 348 345 342 344 344 347 345 345 343 339 345 346 343 344 344 345 342 346 346 342 347 347 351 346 346 346 345 343 343 345 343 339
338 342 339 339 340 343 339 343 344 346 349 351 350 350 350 350 349 349 348 343 346 347 346 344 345 345 343 340 343 342 343 345 346 347 345 345 338 342 343 349 348 346 346 345 343 343 342 339 340
339 339 337 338 339 341 340 337 344 345 347 348 348 350 350 349 350 350 349 347 348 348 345 344 344 346 346 342 339 342 343 342 345 348 346 344 343 338 346 348 349 344 346 344 344 344 341 338 337
337 339 338 337 338 340 340 337 346 348 350 349 345 348 349 349 348 348 349 348 349 345 343 346 347 347 347 346 338 339 339 346 346 347 346 344 344 343 341 345 348 348 347 345 344 338 338 336 338
333 337 338 336 335 337 340 338 348 345 344 345 345 346 348 349 349 349 347 347 347 346 345 345 346 346 345 347 346 340 342 348 345 346 347 345 345 344 341 342 350 347 347 347 342 344 341 337 337
331 334 335 336 334 333 336 340 347 346 343 343 340 344 348 348 349 349 348 348 347 347 347 346 346 345 345 347 349 345 346 347 350 348 345 348 346 345 341 344 345 350 351 349 341 344 343 339 339
331 332 335 336 335 334 333 341 338 344 343 341 343 348 349 347 348 349 348 348 349 348 347 347 347 347 346 347 350 349 344 350 349 349 344 346 347 346 345 343 349 347 350 346 347 341 343 341 339
333 331 333 334 334 330 332 335 338 341 344 343 344 349 348 347 349 349 348 348 348 349 348 348 348 349 347 348 349 349 346 349 349 350 347 346 346 347 345 345 350 348 346 344 349 345 341 345 344
332 332 328 331 331 330 329 330 332 339 340 343 345 349 349 349 348 348 349 348 348 349 349 349 349 350 349 347 348 350 348 348 349 349 349 347 348 347 349 345 350 350 344 344 349 346 340 343 345
330 327 325 325 328 328 325 329 329 334 339 338 344 347 346 345 341 349 349 349 349 349 351 350 349 350 351 350 347 349 347 348 347 346 347 348 348 348 349 351 348 349 346 343 345 350 345 340 344
327 326 321 324 325 325 324 327 329 331 333 338 341 345 342 345 349 350 349 349 349 349 349 351 351 350 351 350 349 346 348 351 348 347 347 347 348 348 350 349 351 344 345 345 341 344 346 343 337
325 325 323 323 326 324 324 324 325 327 329 330 337 341 346 349 351 350 349 349 348 349 349 351 351 351 350 350 349 345 346 350 347 345 347 349 350 352 351 350 350 351 349 346 341 343 346 346 344
326 324 323 323 325 326 326 326 326 325 327 329 331 336 343 350 348 351 350 349 348 348 348 350 351 350 350 350 349 344 337 340 342 343 344 350 349 351 353 352 350 351 350 349 348 342 342 346 345
325 326 324 323 323 324 329 328 328 326 327 330 330 335 339 345 351 352 351 350 350 349 348 349 351 351 351 349 348 344 337 336 342 341 339 345 354 352 351 353 354 350 350 350 350 343 343 344 345
327 326 325 325 324 324 324 327 330 330 329 330 331 335 339 342 350 353 352 352 351 350 350 349 349 350 349 348 348 349 343 337 336 339 334 337 340 350 350 349 351 356 353 351 351 343 339 345 343

GFSSGP_850_thetae_036.txt.gz
Theta_e
342 341 349 350 356 353 358 358 354 355 354 352 352 351 351 349 351 348 342 341 338 339 336 335 334 332 331 332 334 333 335 335 337 337 336 338 336 337 338 338 337 336 337 337 337 337 337 330 332
346 348 350 352 358 356 356 355 356 354 352 352 353 352 350 347 345 343 342 340 336 339 337 336 334 331 333 333 332 333 337 338 339 332 335 341 338 335 335 338 337 337 337 338 339 340 335 330 337
347 350 351 355 356 354 359 355 354 353 353 353 351 350 348 345 343 342 341 338 336 338 340 337 336 333 334 332 332 333 336 337 336 336 337 336 336 336 336 336 338 338 339 337 336 340 333 329 336
350 353 352 357 360 355 354 352 353 351 352 351 348 346 344 345 342 341 340 336 336 338 339 337 336 334 332 331 332 333 336 337 336 335 337 337 335 338 338 339 339 337 336 335 336 336 333 334 339
351 351 357 359 358 355 353 352 353 354 352 350 347 347 345 345 342 340 338 335 334 337 338 336 336 336 331 331 330 332 338 337 337 336 338 336 338 338 338 338 337 337 336 336 336 336 335 337 340
352 347 353 355 351 351 349 351 353 353 351 347 347 350 343 345 340 338 336 335 334 336 338 337 337 339 331 331 330 332 338 338 339 338 336 336 339 339 338 338 338 337 333 333 336 337 337 338 340
349 345 349 349 353 353 350 351 352 352 350 349 347 349 341 343 339 336 336 338 337 337 336 338 337 335 330 330 331 333 336 338 336 335 335 335 338 339 338 338 338 336 331 331 334 334 337 339 340
348 340 347 351 353 354 353 351 353 352 352 350 348 348 339 342 339 336 345 344 344 345 337 337 335 331 330 329 329 334 337 337 337 334 335 334 337 339 338 338 338 335 334 333 335 336 336 342 342
352 344 348 344 351 348 348 350 352 352 350 350 351 349 342 339 337 347 348 349 348 345 337 336 333 331 330 329 329 335 336 337 338 340 338 338 338 338 338 339 339 336 338 341 342 339 338 339 340
352 346 346 343 348 348 350 349 349 351 351 351 350 347 340 335 342 347 348 349 346 345 339 333 331 330 329 329 329 333 335 337 338 340 340 341 336 336 338 340 340 338 340 341 340 342 343 340 341
350 352 349 348 347 346 347 348 352 352 353 351 349 345 340 336 342 347 348 348 347 342 337 333 330 329 328 328 329 331 338 342 336 339 343 344 342 342 338 340 343 342 342 342 340 341 339 338 339
348 351 350 347 346 345 345 349 352 351 351 350 347 346 342 344 346 347 348 348 347 341 334 332 329 328 328 328 330 339 341 342 339 343 341 344 347 345 345 345 346 343 345 344 341 338 337 338 339
345 346 348 348 346 343 344 344 343 349 351 350 348 347 346 345 346 347 348 346 344 343 336 330 329 328 328 328 334 343 344 345 346 343 343 344 346 347 346 345 346 344 342 344 343 339 340 338 338
342 343 344 345 343 342 343 342 346 351 350 349 348 348 348 347 348 346 344 345 346 345 344 331 331 329 328 331 339 343 344 345 347 346 340 345 344 348 345 344 345 345 344 343 343 337 337 337 338
335 341 342 344 343 343 342 344 353 351 350 350 349 349 348 348 349 346 346 344 346 345 342 334 337 333 336 342 339 343 345 345 345 347 344 342 343 346 347 345 345 345 342 343 340 342 338 334 334
337 338 344 344 344 343 344 348 352 350 349 349 349 348 348 348 347 347 344 344 347 344 342 341 341 338 339 342 341 343 345 344 344 346 346 345 344 343 347 346 345 346 343 343 342 344 341 338 337
330 336 340 342 344 344 345 345 352 350 350 349 349 348 348 348 347 346 346 344 346 346 343 342 343 340 339 346 339 343 346 344 345 345 345 344 344 340 344 346 346 345 344 343 342 343 339 341 338
331 336 337 339 338 343 345 343 351 350 350 350 349 348 348 348 348 345 345 344 345 345 344 345 343 342 341 341 342 342 345 344 344 345 345 345 344 338 341 345 346 345 346 344 342 342 339 338 337
330 333 337 336 336 336 339 348 353 350 349 350 349 349 348 348 347 347 346 345 344 345 346 344 344 343 342 341 342 340 345 343 345 345 347 345 344 342 340 343 346 344 345 344 343 344 337 337 338
328 330 335 337 337 333 336 347 351 350 350 350 350 350 349 349 348 348 348 345 343 345 346 346 345 344 344 344 342 340 339 340 345 345 347 347 345 344 342 341 343 346 345 344 342 339 336 338 337
327 328 330 335 335 332 335 347 347 348 349 349 349 349 349 349 348 349 349 348 344 344 347 348 346 344 344 346 344 341 337 338 340 345 346 346 346 344 344 342 344 347 347 347 345 341 338 336 337
327 328 329 332 333 335 331 345 349 349 348 345 345 346 348 348 348 348 348 349 349 347 347 347 345 344 346 345 344 344 337 336 338 340 345 346 346 347 345 342 342 344 348 349 345 341 341 336 337
329 327 328 330 331 331 333 331 348 349 349 343 341 342 345 348 348 348 347 348 349 348 348 345 344 344 345 345 344 342 345 339 339 344 346 346 345 347 346 346 342 346 345 348 347 340 342 339 338
330 329 329 329 328 331 332 329 327 351 348 344 341 341 342 347 348 348 348 347 347 347 347 345 345 345 345 345 345 343 345 344 341 345 348 349 345 344 346 347 343 348 346 345 346 348 341 343 344
331 328 331 331 330 331 330 325 328 344 345 344 342 341 344 347 348 348 348 347 347 347 347 346 346 346 346 346 347 345 343 344 341 345 348 350 347 346 347 347 347 344 348 345 342 349 339 342 344
331 328 330 333 327 329 322 323 325 326 340 342 342 343 346 347 347 348 348 348 347 347 348 348 347 347 347 347 348 346 344 345 343 343 346 348 348 347 347 347 349 348 346 347 343 346 346 342 341
327 331 321 319 319 320 323 321 322 323 323 334 344 346 347 347 346 345 347 348 348 348 347 348 348 348 348 348 348 348 346 345 343 341 344 344 345 348 347 348 349 348 348 344 344 342 345 346 342
329 323 324 316 322 323 322 321 324 323 323 322 341 345 348 348 346 346 347 348 348 348 347 348 348 348 348 348 348 349 349 347 343 342 343 342 343 345 347 350 350 349 350 349 347 344 341 346 345
326 326 322 321 317 321 322 325 322 322 321 323 336 343 347 347 347 344 346 348 348 348 348 348 348 348 349 348 348 348 349 349 347 342 341 342 340 345 348 351 351 350 350 350 350 349 347 341 343
328 323 321 322 320 318 320 325 326 324 324 323 324 344 345 345 346 346 347 347 348 348 349 348 348 348 348 346 347 348 348 349 348 343 339 340 340 344 350 350 351 352 353 351 350 350 349 346 342

GFSSGP_850_thetae_039.txt.gz
Theta_e
340 336 345 348 354 352 357 358 354 353 354 352 350 348 350 348 350 347 343 341 339 339 339 337 334 331 331 332 333 336 332 333 336 338 338 338 338 337 336 334 333 335 336 336 337 336 330 331 331
338 345 349 351 358 355 356 354 356 353 351 352 351 350 347 348 345 343 343 340 338 339 336 337 331 331 332 332 333 334 336 335 335 336 336 339 342 339 341 337 336 337 338 339 341 334 330 338 338
344 348 350 355 352 355 357 352 354 352 352 352 350 348 346 346 344 342 341 339 338 335 334 334 331 332 333 332 335 337 340 332 333 339 343 342 336 336 337 337 337 338 337 336 340 333 330 339 339
349 350 351 358 359 353 352 353 352 353 352 351 346 345 343 345 342 341 339 338 335 334 334 333 332 333 332 332 335 336 336 336 342 341 336 343 340 336 338 339 336 335 335 335 338 330 331 341 341
351 351 356 359 356 352 351 353 353 352 352 349 346 345 343 342 342 340 338 338 335 336 334 334 333 331 331 332 334 337 335 335 341 338 335 338 338 337 336 336 336 336 336 335 335 334 337 339 340
351 347 353 354 349 350 350 351 353 353 351 347 345 344 342 343 341 338 337 337 337 335 334 336 336 331 332 330 336 337 339 337 338 341 340 339 338 337 337 337 336 333 334 336 335 335 337 338 340
351 345 348 349 353 353 353 351 353 352 349 348 346 343 342 342 340 337 337 337 337 336 334 338 337 330 330 330 335 338 340 339 337 336 338 339 337 337 337 337 333 331 332 335 336 337 338 340 339
349 339 349 351 351 355 352 349 350 351 351 347 344 341 343 342 339 337 336 336 337 337 335 336 334 330 330 332 334 337 337 335 335 335 335 338 337 337 337 336 333 332 334 335 335 339 341 340 341
348 343 349 347 348 349 347 350 352 352 350 350 349 342 342 340 337 336 337 338 336 336 338 335 331 330 329 331 334 337 337 336 334 335 334 337 337 337 338 338 335 336 339 341 338 338 338 340 342
351 342 346 342 345 348 348 350 352 350 351 349 348 342 341 339 336 337 342 342 342 339 337 334 331 330 328 331 335 336 337 338 341 340 338 337 337 338 339 338 337 340 342 341 341 341 339 341 341
352 347 346 343 347 346 348 350 349 351 352 350 342 341 340 336 339 342 345 344 342 339 336 335 331 329 328 330 334 335 337 337 339 340 340 336 336 337 340 341 339 340 342 341 341 342 338 338 338
351 350 350 348 347 347 348 348 350 351 351 350 347 341 338 336 345 347 347 346 344 341 336 333 330 329 329 328 330 334 340 337 339 342 343 342 343 340 342 344 342 342 340 340 338 339 339 337 334
346 348 347 350 350 348 345 349 352 351 351 350 341 339 337 343 345 346 346 345 342 341 337 332 329 329 328 328 330 335 342 339 342 342 343 344 345 344 345 345 343 343 342 343 340 340 340 337 337
340 343 345 344 345 345 345 349 349 351 350 346 341 339 338 343 345 346 347 346 345 339 335 331 329 328 328 328 337 340 343 346 345 342 342 345 346 344 344 345 346 344 341 342 339 339 338 337 336
331 338 334 339 342 342 343 343 346 351 349 347 344 341 340 343 344 346 347 345 344 337 332 330 328 328 327 330 340 344 344 344 346 344 341 344 345 345 344 344 345 343 342 339 340 338 338 338 337
332 331 335 337 341 342 342 345 352 350 348 348 347 344 344 344 345 346 347 346 344 338 338 333 328 328 327 334 338 342 344 345 345 346 344 344 343 343 345 345 345 342 342 340 343 340 338 337 339
322 332 338 339 339 343 344 349 351 350 348 347 347 347 346 346 346 345 346 346 344 339 339 342 331 329 329 333 337 342 344 345 343 345 346 345 344 343 345 346 345 345 343 341 343 342 340 336 338
325 332 334 335 337 343 344 347 350 350 349 348 348 348 347 346 347 345 344 342 343 341 343 340 334 337 334 337 340 342 344 345 344 343 344 346 344 342 341 345 345 346 344 341 342 341 338 339 337
327 332 336 335 335 339 344 345 352 349 349 349 348 348 347 347 347 347 346 343 342 344 343 342 341 341 339 341 340 341 342 345 344 344 344 345 344 342 338 341 345 344 344 343 344 343 339 337 336
322 325 330 332 333 333 334 343 352 349 349 349 348 348 347 347 347 347 347 345 343 344 344 342 342 342 342 341 342 341 340 344 344 343 344 346 345 343 343 339 343 346 344 345 344 342 337 337 337
322 323 326 331 331 333 337 346 346 350 349 349 349 348 347 347 347 346 346 345 345 345 344 343 342 344 344 342 342 342 341 342 343 344 345 346 346 344 344 343 341 342 344 344 345 339 337 337 337
322 323 326 328 331 332 331 351 354 352 350 349 349 348 348 347 347 347 346 345 344 344 344 344 343 343 345 343 343 342 342 341 341 342 344 346 346 345 345 344 343 343 346 347 345 340 339 336 336
325 324 326 327 327 329 330 332 347 351 353 350 349 349 349 349 348 347 347 347 345 344 343 344 343 344 344 345 343 343 344 339 336 337 339 345 346 345 345 346 345 342 343 346 347 340 342 338 336
326 325 325 326 324 329 329 330 328 348 351 350 348 349 349 349 348 348 348 348 348 346 341 343 343 344 344 346 344 344 344 341 337 333 334 341 343 344 344 346 346 343 345 345 347 346 342 340 336
327 324 326 328 327 332 328 327 331 339 345 346 347 347 347 346 348 348 347 348 348 349 347 343 344 346 347 347 344 345 344 343 339 335 335 340 345 346 343 343 346 344 344 346 345 346 345 340 341
328 327 327 330 331 332 324 327 326 330 342 344 345 345 344 341 345 347 347 347 348 348 348 348 346 346 347 345 344 345 345 345 342 340 339 338 343 347 346 345 346 347 344 345 346 343 348 343 341
328 330 325 322 317 323 329 320 320 323 334 342 344 344 342 340 341 346 347 347 347 347 348 348 348 347 347 345 344 345 345 346 345 341 341 338 342 347 347 346 346 347 348 347 348 345 342 347 340
329 325 328 319 326 326 321 321 325 323 325 331 342 343 343 342 342 344 347 347 347 347 347 347 347 346 346 345 345 346 346 347 346 342 342 340 341 345 347 347 347 347 348 349 347 346 344 342 344
325 327 328 327 319 327 320 325 319 321 321 323 336 341 341 342 343 344 346 347 347 346 347 347 347 347 346 346 346 346 346 347 347 345 342 343 342 344 344 344 346 348 349 349 349 347 346 345 340
324 324 319 331 326 316 318 324 322 320 320 322 329 337 341 343 344 345 345 346 347 347 347 347 347 347 347 347 347 347 347 347 347 347 345 342 343 343 342 343 344 349 349 349 349 350 350 348 347

GFSSGP_850_thetae_042.txt.gz
Theta_e
341 334 338 346 350 351 353 355 352 354 350 349 344 344 347 346 347 346 342 341 341 335 332 334 332 336 333 335 339 334 335 341 341 342 342 340 340 341 338 334 334 334 336 338 337 331 332 328 336
336 338 347 349 356 354 353 354 355 352 352 351 346 348 347 347 344 343 342 341 340 334 333 334 333 339 337 340 333 332 340 342 342 339 338 339 341 339 334 335 336 337 339 340 337 330 333 336 336
337 346 350 354 352 354 356 351 352 352 352 351 348 347 346 345 343 342 341 340 338 334 333 332 335 339 339 334 334 336 335 336 338 336 339 341 341 339 337 338 337 337 338 339 334 331 338 338 339
345 350 350 360 358 351 352 351 350 351 351 351 346 344 344 344 342 342 339 339 338 336 334 330 335 336 336 336 340 338 333 338 342 343 341 341 339 337 338 337 334 334 337 340 329 331 340 338 340
349 351 356 358 356 351 350 353 353 354 351 347 346 344 344 343 342 341 338 338 336 335 331 332 340 332 333 335 336 334 340 342 337 339 343 338 337 338 335 335 334 335 335 333 332 335 339 340 341
351 348 354 354 348 350 351 351 351 353 350 345 343 343 342 342 342 339 338 336 334 332 331 338 339 331 333 335 340 335 338 342 336 337 337 337 336 336 336 334 333 336 335 334 335 337 338 339 340
351 348 348 347 352 353 353 349 352 352 349 347 343 342 342 342 340 338 336 335 334 334 336 341 332 340 335 342 337 340 336 341 339 338 337 336 337 337 334 331 331 336 336 336 337 338 339 338 338
350 338 348 350 350 355 350 350 351 350 350 347 343 341 342 343 339 338 338 336 334 335 342 335 330 332 330 339 339 341 340 336 335 339 338 336 337 337 334 331 332 333 334 336 339 340 340 340 338
347 346 347 347 347 351 348 351 351 351 347 348 344 342 342 341 338 339 340 338 337 336 337 337 330 330 331 335 338 337 335 335 335 337 336 336 337 337 335 334 335 338 339 337 337 339 340 341 341
350 343 344 342 345 348 347 352 353 351 349 346 344 342 341 340 337 338 339 338 341 337 335 334 330 330 331 334 337 337 335 334 334 334 336 336 337 338 337 335 338 341 341 339 340 339 340 341 341
351 348 343 343 345 346 347 350 351 351 351 347 341 341 341 340 337 337 337 336 336 334 333 334 330 329 330 334 336 337 337 340 338 337 336 336 337 339 339 337 340 341 342 341 340 338 338 338 339
352 350 349 349 347 347 348 348 349 350 350 350 346 340 340 339 336 335 335 335 335 335 331 332 330 329 329 334 335 336 337 339 339 339 336 336 336 340 341 340 341 341 341 342 340 338 337 334 335
349 349 348 350 348 348 347 347 348 351 351 350 345 340 339 338 337 336 334 334 335 335 332 331 330 329 328 332 333 338 336 339 340 342 342 344 342 341 343 343 342 342 342 340 340 338 337 336 336
340 342 345 344 345 344 347 347 349 350 350 346 342 339 338 336 336 337 337 337 337 335 332 331 330 329 328 329 332 340 339 341 341 341 343 344 343 342 343 344 344 342 341 341 341 339 337 335 333
335 336 334 333 339 342 343 349 348 349 348 342 340 337 336 337 338 336 336 339 337 335 334 331 329 328 328 328 331 340 345 345 342 341 343 343 344 343 343 343 344 342 341 339 339 338 337 335 335
327 331 334 335 335 339 342 345 349 349 345 340 338 337 336 339 341 341 342 340 339 335 335 331 329 328 327 329 339 342 344 344 345 344 342 343 343 343 343 344 343 341 339 339 340 339 337 338 339
320 334 334 338 337 341 341 345 350 348 345 342 339 337 337 340 344 344 342 343 340 336 333 331 329 327 327 329 340 343 343 344 345 345 344 344 344 344 344 344 343 342 341 340 342 340 340 337 338
326 327 333 338 336 340 342 342 350 348 347 344 342 339 338 341 344 345 345 344 342 340 334 330 329 327 327 329 338 340 342 343 343 345 344 345 344 344 343 343 343 344 339 341 341 340 339 338 337
325 330 333 334 334 341 342 344 352 348 347 347 346 343 341 342 342 344 345 344 344 342 337 334 333 329 328 327 338 339 342 343 344 342 342 345 345 344 342 342 342 343 343 341 340 341 338 338 336
321 322 326 329 333 335 336 343 351 349 348 347 347 346 345 344 344 344 345 346 345 344 340 337 339 331 330 330 334 339 341 342 344 344 344 343 345 343 342 342 342 342 343 344 343 342 340 336 336
318 321 322 329 330 332 334 338 350 349 348 348 347 346 346 346 345 345 345 344 345 343 341 339 341 332 337 336 339 340 340 342 344 344 343 344 346 345 343 343 343 342 343 345 343 340 336 337 337
316 319 323 324 328 331 333 339 347 350 350 348 348 347 347 346 346 345 345 346 346 343 342 341 341 339 341 341 340 341 341 340 341 343 343 344 344 345 344 344 343 343 343 345 345 342 336 337 337
318 319 321 323 325 327 329 332 338 349 352 350 348 348 347 346 346 346 345 345 346 346 343 342 343 341 340 341 342 342 341 341 341 341 343 342 344 345 344 344 344 344 342 345 347 343 340 337 336
322 323 321 323 322 328 327 330 329 350 352 350 348 348 348 347 346 345 344 346 345 346 345 343 342 343 340 341 343 344 343 342 342 341 340 340 341 344 344 344 345 345 344 344 345 346 340 340 337
323 322 323 325 326 330 328 330 329 328 348 348 347 348 348 348 347 346 346 346 345 345 344 343 343 342 342 342 342 343 344 343 343 342 338 335 336 336 342 342 344 345 344 343 346 345 344 340 340
323 323 323 327 327 328 323 328 328 328 338 347 347 347 348 348 348 347 347 347 346 346 344 342 342 342 342 343 343 344 345 344 343 344 341 335 332 333 339 341 342 344 346 343 347 344 342 346 343
323 325 322 323 318 323 326 323 323 325 330 340 344 346 347 348 348 348 348 348 347 347 347 346 343 342 343 343 343 344 345 345 343 344 343 341 335 335 339 343 344 344 346 347 345 346 342 341 346
323 323 326 321 331 324 325 320 331 323 325 330 337 342 345 346 346 346 347 347 347 348 347 347 348 346 345 345 344 345 346 344 343 344 344 343 341 338 339 343 345 345 346 347 347 347 344 342 341
321 327 326 325 321 329 321 322 322 323 326 326 331 341 342 344 344 344 344 346 346 347 347 347 348 348 347 346 346 345 346 345 344 345 345 345 342 340 338 341 344 346 346 347 347 348 346 343 341
316 321 324 330 326 318 320 328 321 321 321 323 325 335 339 341 343 342 342 343 345 346 347 347 347 347 347 347 347 346 346 345 344 345 346 346 343 341 338 339 340 342 345 347 348 348 348 347 346

GFSSGP_850_thetae_045.txt.gz
Theta_e
339 334 338 344 351 352 354 356 353 354 349 349 344 344 346 346 347 351 343 342 340 336 333 333 336 337 337 339 337 339 343 335 335 338 340 339 340 341 342 340 342 341 341 341 335 339 329 337 338
336 336 342 347 353 358 357 353 355 353 349 350 346 347 348 348 344 343 342 341 335 331 335 340 339 333 337 339 340 339 341 342 342 342 340 340 340 337 342 341 340 338 339 339 331 335 337 334 335
335 341 348 353 355 356 356 351 353 352 352 348 348 348 347 346 344 343 342 340 332 331 336 340 338 336 341 335 340 341 341 341 340 339 340 340 342 339 341 339 339 341 340 340 331 337 337 339 340
339 347 350 358 358 351 352 351 350 352 351 349 348 348 345 344 343 342 341 338 333 331 341 338 336 339 335 340 340 335 337 338 337 337 339 342 340 340 338 335 334 338 341 328 332 338 338 339 338
347 350 356 359 356 353 350 352 353 354 352 348 347 346 344 343 342 341 341 339 338 341 342 339 335 339 335 342 336 336 337 342 342 342 339 338 339 336 334 334 335 337 332 330 338 339 340 341 339
351 348 355 355 352 350 353 352 352 354 348 346 345 344 343 342 342 342 342 341 339 340 343 342 335 339 338 337 334 341 341 337 341 340 343 341 335 335 334 334 334 334 333 336 337 338 339 340 339
352 351 352 350 352 354 354 351 353 354 349 347 344 345 343 342 343 341 342 341 342 342 342 342 333 340 339 341 336 340 339 336 337 340 336 335 336 334 332 332 335 335 336 337 338 339 337 338 340
350 345 348 350 353 356 350 351 351 352 350 344 344 345 345 346 344 342 343 342 342 342 344 341 337 341 342 338 338 337 340 340 339 338 336 336 336 333 331 333 334 335 338 340 340 340 340 337 336
347 351 356 348 350 353 348 352 352 350 346 346 344 343 343 343 343 341 342 342 342 343 344 337 342 336 341 342 341 340 339 339 338 336 336 337 336 333 333 335 337 338 338 337 339 340 341 340 338
351 353 351 345 345 349 349 353 353 351 348 346 344 343 343 342 342 341 342 343 343 344 343 341 333 330 337 344 342 341 337 339 338 336 336 337 336 335 334 336 339 340 338 338 339 339 339 340 343
350 352 347 344 345 347 349 353 353 351 351 348 345 343 342 342 343 342 342 342 342 343 343 336 330 331 334 338 336 335 334 334 334 336 336 337 338 337 335 338 340 341 342 342 340 339 338 338 340
353 351 349 349 345 347 348 350 350 351 351 349 345 344 342 342 342 342 342 342 342 339 337 333 330 330 334 336 336 335 337 337 336 336 336 336 338 339 338 338 340 341 341 340 340 338 336 335 338
349 350 350 349 349 348 349 349 349 350 350 348 344 343 342 341 341 342 341 342 342 336 332 332 330 329 333 336 336 337 340 339 340 337 337 337 338 341 342 341 342 342 342 340 338 337 336 337 337
339 345 348 345 347 346 348 347 347 351 347 345 343 343 341 340 341 342 342 341 335 332 329 330 330 329 332 334 335 337 337 339 341 342 343 344 342 343 344 342 343 343 342 341 340 337 337 332 331
336 341 337 339 339 344 343 347 350 348 347 345 343 342 341 340 340 341 342 341 333 331 329 330 329 329 329 332 336 338 340 341 341 342 343 344 342 342 343 344 343 343 340 340 339 337 336 333 335
327 331 332 338 340 340 341 349 348 347 347 345 343 342 341 339 339 341 341 340 335 332 331 329 329 329 328 329 336 341 343 342 341 342 343 344 344 342 343 343 343 341 340 341 337 337 335 335 337
328 326 329 334 339 344 344 347 349 347 347 345 343 341 340 339 339 341 342 342 336 333 331 331 329 328 328 328 332 342 345 345 345 345 343 344 344 343 344 344 343 341 340 340 340 338 336 337 337
327 327 335 334 342 342 345 346 352 349 347 345 342 340 339 339 340 341 343 344 340 334 336 331 329 328 328 328 338 342 344 343 344 345 344 344 344 343 344 342 343 344 339 342 342 339 338 336 338
327 331 330 336 339 343 345 345 351 350 348 345 342 340 339 340 341 342 343 344 344 339 337 335 329 328 328 328 334 341 342 342 344 345 344 344 344 343 342 342 342 343 341 340 340 340 339 338 335
322 327 330 333 333 341 343 345 345 351 350 348 345 341 340 341 341 343 344 344 345 342 338 337 331 328 327 327 334 340 340 341 344 343 342 343 344 343 342 341 342 343 343 342 342 342 340 338 336
321 322 327 329 329 334 338 342 341 351 350 349 348 345 342 341 341 343 345 345 345 345 341 338 332 329 327 327 329 336 338 341 343 344 344 344 344 344 343 343 343 341 343 343 341 340 341 337 336
319 319 322 327 329 337 337 348 344 344 353 351 349 348 347 344 343 343 345 346 345 345 341 339 334 333 333 328 328 329 335 339 341 342 343 342 344 345 344 343 343 343 343 343 344 341 335 337 337
319 319 319 320 327 330 333 338 344 345 350 352 350 349 348 347 346 344 345 346 345 345 342 343 342 334 339 332 331 331 335 337 338 339 342 343 343 344 344 344 344 343 342 345 346 344 340 337 337
320 320 321 321 321 325 332 335 339 343 349 350 349 349 349 348 348 347 346 346 346 346 344 342 342 338 340 334 337 337 337 339 341 341 341 342 343 343 344 344 344 345 345 343 344 346 341 339 337
322 323 326 325 325 322 326 333 335 338 342 345 348 349 349 349 348 348 347 346 347 346 345 344 344 341 341 338 339 341 341 342 342 342 342 341 341 341 340 343 343 343 344 343 344 345 345 343 341
324 324 325 327 326 322 324 333 334 333 333 340 344 347 349 350 349 349 347 347 346 344 343 345 345 344 342 342 340 340 341 343 343 343 342 342 341 338 337 337 339 341 344 344 342 345 345 344 343
323 326 324 324 327 327 324 326 330 332 333 334 340 346 348 349 349 349 348 347 346 344 342 343 344 343 342 341 341 340 340 342 343 344 343 343 343 340 334 334 339 341 343 345 345 344 345 344 342
321 323 327 326 327 327 327 327 327 333 333 335 336 342 346 348 349 349 349 348 346 343 343 343 343 342 341 341 341 341 341 342 343 344 344 343 344 342 335 334 340 343 344 345 346 347 346 345 344
323 323 326 327 328 328 326 328 328 329 336 335 335 336 342 346 348 349 349 349 348 347 345 345 345 344 343 342 342 342 343 343 343 344 345 343 344 344 340 337 337 343 343 345 346 347 347 347 345
314 319 324 330 332 330 330 328 327 330 331 333 333 333 335 342 345 347 349 350 350 348 347 346 346 346 346 345 343 343 344 344 344 345 345 344 344 345 342 340 336 341 342 344 346 347 347 347 346

GFSSGP_850_thetae_048.txt.gz
Theta_e
339 342 343 348 356 356 358 357 355 356 353 350 346 346 348 348 351 357 347 347 343 342 344 339 338 336 337 334 332 332 332 332 332 333 334 343 341 338 338 339 341 341 342 334 334 329 338 335 327
342 343 346 350 356 362 359 355 357 353 351 347 347 347 348 350 347 347 347 345 344 343 342 344 337 335 340 338 339 343 337 335 340 341 341 340 340 341 339 343 340 338 341 331 335 338 335 335 334
342 340 348 351 357 359 360 356 356 352 351 347 350 350 350 350 347 346 346 345 343 343 342 341 334 338 338 337 339 341 342 342 342 341 340 339 336 339 340 339 340 340 341 332 337 337 339 340 337
339 348 348 356 359 351 355 354 351 354 350 350 350 351 348 348 346 347 345 343 343 343 343 337 334 340 336 340 341 341 340 340 341 340 341 341 340 341 341 336 337 340 329 334 338 338 339 338 336
348 352 355 361 358 355 351 351 353 355 353 350 349 351 347 346 346 347 344 342 343 343 343 341 339 337 341 340 336 339 337 337 337 339 341 341 342 341 336 336 337 331 331 339 339 341 340 338 334
351 350 359 357 355 353 354 354 353 355 351 350 350 348 346 346 346 346 344 342 342 342 343 344 340 339 342 335 339 339 341 341 341 341 343 341 340 342 336 334 334 334 336 337 338 339 341 338 338
354 356 358 354 353 354 355 353 354 354 351 351 349 350 346 347 347 347 344 342 342 342 343 344 346 340 341 335 341 339 335 341 343 343 342 341 340 332 334 335 335 336 337 338 338 337 340 339 337
353 351 354 352 355 359 353 355 353 354 353 348 347 351 348 347 347 346 343 343 342 342 344 344 345 347 348 344 340 337 336 342 343 340 342 339 331 329 334 335 337 339 340 340 340 339 336 338 337
351 355 357 352 353 357 352 353 351 348 348 349 348 347 348 347 347 345 344 343 342 342 344 342 345 347 349 347 341 341 339 339 338 338 339 345 345 344 346 339 337 338 339 340 340 341 339 337 337
350 352 350 348 348 351 351 352 352 353 351 348 347 347 347 346 347 346 344 343 341 342 344 343 347 347 347 347 345 346 346 347 347 348 347 346 346 345 343 341 338 338 338 338 339 340 342 347 345
349 351 349 347 347 350 354 355 355 353 354 350 348 348 346 345 346 346 344 342 341 342 342 343 345 347 348 348 348 348 347 347 347 347 347 347 346 343 345 345 346 346 345 346 346 347 347 346 346
346 348 348 348 348 349 351 351 352 351 352 351 347 347 346 345 345 345 343 341 341 342 342 343 345 346 348 349 346 346 345 345 345 345 337 344 347 346 346 347 345 346 346 346 347 342 341 345 347
343 347 350 348 348 348 349 350 349 351 352 350 347 346 346 344 344 344 342 341 342 342 343 343 345 347 348 349 347 346 346 346 346 343 338 346 348 348 348 347 347 347 346 345 345 344 343 342 344
334 338 348 348 349 348 349 349 347 350 351 350 348 347 345 344 344 343 342 341 342 342 343 344 345 346 347 349 348 350 348 348 346 346 344 338 349 346 347 345 347 348 347 346 345 344 342 340 341
333 340 339 343 345 348 347 348 349 351 351 350 349 347 346 344 344 343 342 342 342 342 343 344 344 345 345 347 345 347 347 346 348 348 344 343 346 343 343 348 344 348 343 341 344 343 340 340 340
329 329 337 341 342 344 346 351 350 351 351 351 350 347 346 344 344 343 343 342 342 341 343 345 343 343 345 346 342 345 346 347 348 350 349 345 343 343 345 344 348 348 346 345 342 340 342 337 338
326 328 332 339 342 346 347 349 352 350 350 351 350 348 346 344 343 343 343 342 341 342 343 345 344 343 343 343 343 345 346 348 348 349 349 344 344 343 348 350 349 342 347 347 344 342 340 340 337
326 327 331 334 343 347 349 348 352 350 350 351 350 348 346 345 343 343 343 343 342 342 343 344 344 344 342 342 341 345 347 348 349 349 350 344 347 343 347 349 343 347 345 344 347 343 342 342 339
327 329 330 335 339 346 349 348 350 351 350 350 350 348 346 345 344 343 343 343 343 344 344 344 345 345 342 339 341 345 346 347 348 348 345 344 345 342 341 345 346 345 347 347 345 342 341 340 340
324 329 333 334 336 343 348 348 347 352 351 349 349 348 346 345 344 343 343 344 344 345 345 345 343 345 335 338 340 344 345 345 347 350 344 344 344 343 347 347 346 349 346 344 343 345 342 340 338
324 324 326 332 334 335 344 349 348 348 351 350 349 347 346 344 344 344 344 344 345 346 346 346 342 335 330 339 339 343 346 348 349 349 348 345 344 344 345 341 347 341 347 348 348 344 344 341 342
323 323 323 324 331 338 339 349 348 347 352 352 351 349 347 346 344 345 345 346 345 346 347 347 345 334 329 329 339 340 344 344 344 348 348 350 343 344 344 343 343 342 347 347 347 346 344 342 341
323 323 322 322 324 332 338 344 346 346 348 352 351 350 348 346 345 345 346 347 346 346 347 348 348 338 333 328 336 340 340 340 343 346 349 350 345 344 346 343 343 343 348 347 347 343 340 341 342
323 323 323 323 323 323 331 340 344 346 347 347 349 349 349 349 347 346 346 347 348 347 347 348 347 338 332 328 327 334 338 338 343 346 346 347 348 350 344 344 344 343 344 347 347 344 341 345 341
325 325 327 327 325 324 326 331 339 340 342 345 347 348 349 349 349 348 347 347 348 348 347 347 348 339 335 332 332 330 332 335 345 348 347 345 345 346 350 344 344 347 343 349 349 344 347 343 346
326 326 330 332 328 325 325 327 331 335 337 339 344 345 348 349 350 350 349 347 348 349 348 348 347 347 341 336 333 336 332 344 345 346 348 347 345 345 347 350 348 341 344 344 348 348 350 351 347
326 328 327 330 330 330 327 325 326 331 335 336 337 342 344 348 349 350 351 350 348 349 349 349 348 343 346 346 334 336 333 340 348 347 347 348 349 346 348 349 351 349 343 344 351 350 352 352 350
324 326 328 328 331 332 331 330 327 329 335 336 337 338 343 347 349 350 351 351 350 349 349 350 350 349 345 348 343 342 336 340 342 348 347 349 349 346 347 345 348 348 348 341 344 352 352 353 353
322 324 326 328 329 331 333 331 330 329 330 335 336 336 338 345 348 349 350 351 351 350 349 350 350 351 350 347 348 345 344 342 339 344 342 343 344 345 343 342 340 349 351 348 343 348 352 353 353
314 322 325 328 330 330 332 333 330 329 330 330 333 336 337 341 346 348 349 350 351 351 350 350 350 350 350 345 343 343 341 340 347 340 342 343 344 344 344 343 340 343 349 352 351 347 351 353 353

GFSSGP_850_thetae_051.txt.gz
Theta_e
338 341 348 347 355 357 360 358 355 354 354 350 348 348 351 350 353 357 346 346 344 348 346 345 343 343 342 342 339 336 337 337 337 335 333 339 337 337 337 341 341 342 334 334 329 338 331 328 337
345 346 346 351 361 360 360 356 358 354 352 348 348 348 350 352 349 348 346 347 344 348 347 348 341 339 336 331 333 334 333 334 334 334 341 340 341 340 344 341 338 340 332 335 338 336 336 333 328
347 345 348 353 358 361 362 357 355 352 349 351 350 350 353 350 349 349 348 343 346 344 344 340 333 340 338 337 344 340 337 340 341 340 340 338 340 340 339 340 339 340 333 337 337 339 339 334 333
344 348 350 358 362 354 355 356 354 353 348 350 352 353 351 351 348 349 345 346 342 342 346 333 337 337 335 338 340 342 341 341 340 340 340 338 341 341 338 340 341 332 337 338 339 339 337 335 334
346 353 359 360 361 356 352 354 355 355 353 353 351 354 351 349 348 348 347 344 342 344 346 336 338 335 339 340 340 340 341 341 340 341 340 340 341 339 342 342 333 332 339 340 340 340 337 334 333
352 353 362 361 358 355 352 352 354 354 354 352 353 350 349 349 348 347 346 345 342 344 343 342 337 340 340 335 337 339 339 338 340 341 342 342 341 338 335 335 335 336 338 338 340 341 337 336 332
353 358 360 358 357 355 357 354 354 354 353 353 351 352 349 348 347 345 345 344 343 342 344 346 345 342 337 338 338 342 341 341 343 342 339 341 333 333 333 334 336 337 338 337 338 340 337 335 333
351 353 355 355 354 360 355 356 354 354 352 351 350 353 351 349 347 345 345 343 343 343 341 344 345 348 347 343 341 338 342 343 342 342 340 331 330 334 337 339 339 340 340 339 337 339 337 336 334
350 354 359 354 355 358 355 357 353 353 350 350 351 352 350 348 347 345 344 343 343 344 341 342 343 345 347 349 342 339 342 341 339 340 342 345 345 346 347 339 338 340 340 341 339 336 337 336 336
350 352 352 350 350 355 354 353 352 351 351 352 351 351 349 348 347 344 344 342 343 343 340 341 343 347 345 346 343 347 345 346 348 345 345 348 345 344 344 337 337 338 338 338 339 343 343 344 346
347 349 348 349 349 352 354 353 352 353 354 351 350 351 348 348 347 345 344 343 342 342 339 343 347 345 348 346 348 347 348 348 348 346 347 345 344 344 346 342 345 343 344 346 344 346 346 346 345
347 345 345 349 349 352 355 356 354 353 352 350 350 349 348 349 347 345 344 343 342 342 340 344 344 346 349 346 346 348 347 344 344 346 347 346 347 346 346 346 344 346 346 342 346 342 344 345 347
344 344 349 350 350 350 351 352 352 351 352 350 350 349 349 348 347 345 344 343 342 342 340 343 343 349 346 348 347 344 344 343 346 347 347 348 348 348 347 346 347 346 345 344 345 342 344 340 341
337 340 347 350 349 349 348 350 350 351 351 351 350 349 348 348 347 345 344 342 342 341 340 342 344 346 348 347 347 346 345 348 344 345 346 348 349 350 348 347 348 346 346 346 344 345 343 341 341
333 337 339 349 349 350 348 351 353 351 352 351 351 350 348 347 346 345 344 342 342 341 341 343 345 347 349 350 348 347 347 344 347 348 345 350 348 345 350 348 347 349 343 340 337 341 342 340 343
332 335 344 346 348 347 349 352 349 352 352 352 351 350 349 347 346 345 344 343 343 341 343 345 344 346 348 349 348 348 347 345 347 348 350 351 348 343 348 348 346 346 346 346 343 342 339 342 340
327 333 336 339 346 347 349 352 346 351 352 352 352 350 349 347 346 345 344 343 343 342 343 345 345 346 347 349 348 347 347 347 347 349 349 351 352 351 350 348 348 347 346 344 341 342 337 340 339
327 329 333 336 344 346 349 354 353 350 351 352 352 350 349 348 347 346 344 344 343 342 343 345 345 345 347 348 349 347 348 348 348 348 350 345 351 351 351 351 343 345 345 347 346 345 343 339 339
328 328 331 335 339 346 349 352 356 350 351 352 352 351 349 348 347 346 345 344 343 343 343 345 346 345 346 347 347 347 347 347 347 349 352 351 351 350 349 350 344 349 346 347 346 340 337 341 339
327 328 332 333 338 347 349 350 349 351 351 352 352 351 349 348 347 346 346 344 343 343 343 345 346 346 345 345 346 346 347 346 347 347 351 353 353 351 348 350 350 347 350 350 348 346 341 340 339
327 327 330 335 336 339 346 350 350 352 350 351 351 350 350 348 347 347 346 345 344 344 344 344 346 347 345 344 343 345 347 347 346 350 351 352 353 353 353 341 350 346 349 347 345 341 345 342 339
328 327 326 329 337 341 341 350 350 350 353 352 351 350 350 348 347 347 346 346 344 344 346 346 345 346 345 342 342 344 346 345 345 347 348 351 352 353 352 351 347 342 350 351 347 349 346 347 341
326 327 326 325 327 332 338 345 348 349 353 352 352 350 349 348 347 347 346 346 345 345 347 347 346 345 345 340 342 343 345 344 345 345 349 350 351 353 353 349 352 351 347 349 352 353 343 343 345
326 326 326 326 326 327 332 342 345 348 348 351 350 350 349 348 347 346 347 347 347 346 347 348 348 346 341 336 334 342 342 344 342 344 349 348 351 351 352 353 353 353 352 351 350 351 348 346 345
326 327 329 330 328 326 328 335 341 342 346 346 349 349 350 349 348 348 347 347 348 347 347 348 348 348 338 334 330 339 341 339 342 346 346 346 346 347 348 350 351 351 344 352 352 346 353 346 348
328 328 330 333 332 329 327 330 335 339 341 341 344 349 349 349 348 348 348 348 349 349 348 348 350 349 347 334 329 329 332 342 340 344 346 346 345 345 348 347 352 354 355 353 352 351 352 352 350
328 330 328 329 331 333 331 328 328 333 336 340 342 346 348 349 350 349 349 349 349 350 349 349 350 350 347 348 334 328 328 331 341 340 344 351 347 346 346 351 353 352 352 353 353 351 348 356 350
325 328 330 329 331 334 334 333 329 329 332 335 340 342 345 347 349 350 350 350 350 350 351 351 350 351 348 347 343 337 332 328 335 344 348 349 348 347 349 348 350 352 352 352 351 351 352 351 353
319 322 327 329 329 330 334 334 333 331 330 331 335 338 341 344 347 349 350 351 351 350 351 352 351 351 352 350 349 344 340 342 332 345 346 350 351 351 347 352 351 352 352 352 352 350 353 352 351
317 320 321 327 332 331 331 333 333 333 331 330 332 335 337 339 345 348 349 352 352 352 351 352 351 352 353 352 352 349 344 342 346 339 347 348 349 351 354 353 352 350 351 353 353 353 349 356 355

GFSSGP_850_thetae_054.txt.gz
Theta_e
338 345 348 348 354 357 362 360 357 355 354 349 349 351 352 351 352 358 345 347 342 347 341 343 341 342 341 342 341 341 340 342 341 333 337 339 335 335 340 340 341 332 333 336 340 328 331 337 330
343 346 348 351 361 362 361 355 358 354 350 349 350 351 351 351 349 347 347 344 346 345 346 344 343 342 341 337 334 333 333 333 333 338 340 340 341 343 340 339 340 335 339 339 337 336 332 328 336
347 348 348 354 358 362 363 358 356 353 350 349 353 353 351 348 346 347 345 344 347 348 349 343 339 337 332 334 338 335 339 338 339 340 339 339 340 339 339 339 338 335 337 337 339 338 333 330 330
348 349 353 360 362 358 357 357 354 352 352 352 352 353 351 346 348 347 344 348 349 349 348 334 336 336 339 343 339 337 340 341 340 343 340 339 340 338 339 340 329 338 338 339 338 336 334 332 329
346 350 359 360 361 359 355 354 355 355 354 353 354 353 350 349 349 345 345 347 344 349 337 334 335 334 339 340 342 340 339 339 341 340 340 341 338 340 340 334 334 338 340 340 339 335 333 330 329
348 352 362 364 359 357 353 355 355 354 353 354 352 351 350 349 346 345 345 344 347 347 342 335 336 339 341 340 340 339 340 340 341 341 340 339 338 336 334 335 336 337 338 341 338 336 332 331 328
350 357 362 359 358 359 354 354 353 352 352 352 351 351 351 348 346 347 344 346 346 344 347 338 337 339 338 338 340 339 339 341 341 338 339 332 332 333 333 334 336 337 336 339 338 333 333 329 332
347 354 356 357 357 361 354 354 352 349 350 352 351 351 351 348 347 346 344 344 343 346 346 347 343 341 342 341 341 341 341 342 337 338 329 329 333 339 341 338 339 338 337 338 338 336 333 329 333
345 354 359 356 356 359 356 357 350 350 353 352 350 352 350 348 346 346 344 343 344 343 343 345 347 346 344 343 338 341 341 339 336 340 339 346 345 342 340 339 340 340 340 337 336 336 336 337 341
346 354 353 348 350 356 356 354 354 353 351 351 352 352 350 347 346 345 344 343 344 341 343 342 345 344 347 347 340 340 338 341 343 347 345 346 348 344 337 337 338 338 339 340 341 338 339 343 344
344 351 347 347 350 352 355 353 351 350 352 352 353 351 349 346 346 345 344 344 343 341 340 342 347 342 348 348 338 342 348 347 347 344 345 347 346 342 344 342 346 338 345 346 342 346 340 341 345
345 345 346 347 349 354 356 354 354 349 353 351 352 350 348 347 346 345 344 344 343 340 342 346 345 342 349 345 347 348 348 349 343 346 348 342 344 346 345 347 347 346 346 345 345 344 342 343 346
341 343 344 349 350 353 355 353 353 353 351 351 352 349 348 347 345 344 343 343 342 341 343 342 346 341 343 346 348 346 346 344 345 345 346 345 348 348 346 347 344 347 347 344 344 344 341 344 343
338 341 342 347 350 351 354 351 352 350 352 351 350 349 349 348 346 345 344 343 342 341 344 345 342 345 348 344 348 348 341 346 345 343 347 348 349 348 350 348 345 345 345 343 341 343 343 344 341
333 337 338 340 350 350 350 350 352 353 352 351 350 350 349 348 347 346 344 343 342 340 341 344 343 345 346 348 348 343 343 347 345 347 344 348 349 348 349 347 347 343 342 345 341 341 341 342 342
330 333 337 339 349 350 350 351 347 350 351 352 351 350 349 348 347 345 344 343 342 341 340 344 343 347 346 344 345 341 346 349 345 349 343 348 348 343 347 347 348 346 341 343 339 339 340 343 338
330 330 335 338 344 349 351 354 353 350 349 352 351 350 349 349 347 344 344 343 342 342 342 343 345 347 345 346 344 347 345 347 346 347 348 347 345 345 345 348 347 341 348 347 343 337 341 342 338
330 329 331 336 338 347 348 351 353 347 347 352 352 350 348 348 347 345 344 343 343 343 343 344 346 347 346 349 344 346 348 348 349 349 351 347 351 352 350 348 343 347 346 341 346 342 338 341 339
330 329 328 332 335 347 349 351 347 345 343 351 352 350 349 348 347 346 344 343 344 342 343 345 346 346 346 349 346 349 346 347 348 348 349 346 353 351 346 348 343 345 346 344 344 340 340 342 337
331 331 329 330 333 341 353 352 348 345 349 350 351 350 349 348 347 346 344 344 344 343 343 344 345 346 345 349 347 348 347 346 349 347 352 343 351 351 349 349 349 344 345 345 347 342 341 339 338
329 329 329 330 333 337 340 350 346 343 345 347 349 349 349 349 348 348 345 344 344 344 343 343 346 347 345 347 346 348 347 349 347 350 349 345 349 346 353 347 349 346 349 341 339 344 345 339 340
328 328 328 328 331 336 339 345 353 353 352 344 342 350 348 349 348 348 346 345 344 344 343 343 345 348 346 345 345 347 347 348 344 350 350 346 347 350 351 342 349 344 350 348 339 339 346 341 341
327 328 329 328 328 332 338 342 342 355 354 347 350 351 349 348 348 348 347 346 345 345 344 343 343 347 347 343 345 344 346 345 346 344 351 351 349 348 353 346 342 341 348 346 346 346 346 344 344
327 327 328 329 327 328 329 335 339 347 351 346 347 350 349 349 348 348 348 347 346 346 345 344 344 343 347 342 345 342 344 345 346 344 350 352 352 345 352 352 343 344 349 350 346 345 341 344 345
326 326 328 329 329 327 327 328 333 339 351 348 344 342 342 350 349 349 349 348 347 346 347 346 346 345 342 342 340 343 342 345 344 344 351 351 351 351 345 348 349 343 344 351 346 343 340 343 344
327 327 328 330 330 329 330 328 329 332 340 347 343 345 348 350 349 349 348 348 348 347 347 348 348 346 345 339 336 342 341 340 344 347 344 348 347 349 349 347 343 342 347 348 348 348 347 339 338
327 330 327 328 329 330 331 330 329 331 334 344 344 347 348 348 350 349 349 348 348 348 347 349 349 347 346 338 331 334 337 334 343 342 347 345 346 347 346 349 348 346 350 351 347 348 348 354 349
324 326 329 329 332 334 331 333 332 332 334 339 344 342 342 342 350 350 349 349 350 349 349 349 351 350 348 346 334 326 331 329 330 337 340 346 346 346 353 347 346 344 346 351 351 350 349 349 355
322 322 325 329 331 332 332 332 335 338 334 336 345 343 340 344 347 340 349 350 350 351 351 350 351 353 351 350 347 336 325 328 327 335 335 341 349 350 346 352 349 348 348 351 349 347 353 351 347
319 320 320 322 331 331 331 331 332 335 334 333 331 334 345 346 344 346 347 348 351 352 352 352 351 353 354 352 351 347 337 327 325 326 335 340 344 348 348 346 351 351 349 350 350 347 350 354 354

GFSSGP_850_thetae_057.txt.gz
Theta_e
337 337 347 347 351 353 359 359 350 355 352 350 350 351 352 351 352 352 343 341 338 340 338 338 340 340 340 342 341 340 341 341 333 335 336 334 341 341 340 339 335 334 342 337 328 339 336 327 329
344 346 348 349 356 361 359 357 357 354 351 351 352 350 350 350 347 345 344 342 339 339 340 340 341 341 341 341 340 337 335 332 334 339 338 340 342 339 339 337 339 339 340 338 338 328 332 332 330
346 350 349 352 356 360 359 357 356 352 352 353 353 351 349 347 346 348 343 341 340 341 340 342 342 341 337 332 331 332 332 334 339 338 338 338 338 338 338 334 335 336 338 339 334 332 329 332 334
349 349 348 354 360 358 358 357 354 353 354 352 351 347 346 346 347 346 343 341 342 342 342 342 339 332 333 340 338 337 339 339 339 339 338 339 335 338 336 331 337 337 338 334 334 332 328 331 335
350 349 356 358 361 354 355 352 353 355 354 351 347 348 349 348 344 341 343 348 348 347 341 338 337 337 341 338 339 341 339 339 339 338 340 336 336 337 331 337 338 340 339 335 332 329 327 334 341
348 350 360 358 357 355 355 354 355 354 353 350 349 350 349 342 343 347 348 350 346 346 337 335 341 340 340 339 342 339 338 339 338 339 337 335 335 331 334 336 336 339 340 335 331 330 327 339 343
348 355 359 359 359 357 356 354 354 352 354 352 350 350 348 342 345 347 349 349 348 338 329 333 337 339 338 337 343 338 338 338 338 337 330 330 331 332 333 336 336 337 339 334 332 329 329 335 343
349 350 357 357 358 359 354 355 352 350 352 351 350 351 348 344 344 346 349 347 346 337 330 332 339 339 335 337 338 338 339 336 336 328 331 334 337 337 338 337 337 337 336 335 332 328 331 342 344
350 349 357 357 354 357 354 355 350 349 352 353 351 349 347 345 346 347 346 344 345 337 332 335 335 334 338 338 338 339 337 335 329 335 342 341 338 338 340 340 339 337 336 336 333 333 338 340 341
348 349 352 349 349 354 349 353 347 352 352 353 352 349 347 346 346 345 343 346 344 341 339 336 338 339 339 336 338 337 337 342 342 343 346 347 341 338 338 339 339 340 340 339 337 341 341 341 341
343 348 345 347 349 353 349 351 352 352 353 351 352 349 348 347 345 344 344 344 342 342 342 341 338 344 338 336 337 341 343 341 344 344 345 345 345 342 341 338 338 341 342 340 341 340 340 342 342
344 342 343 346 353 355 354 353 350 350 351 352 352 349 347 347 345 344 344 344 341 343 343 344 343 345 349 338 340 345 344 344 345 344 346 343 344 345 344 344 344 344 344 343 340 339 340 343 343
341 340 341 346 350 354 353 354 352 349 346 352 350 349 346 346 345 344 344 343 341 342 343 346 340 342 349 343 344 344 347 345 345 342 342 344 344 346 346 345 345 344 343 343 343 340 341 342 343
337 338 338 341 352 355 353 353 353 350 347 351 350 349 346 346 346 344 344 342 343 344 345 345 342 338 345 347 344 345 346 347 347 343 339 345 346 348 345 344 345 343 344 342 342 343 342 340 342
333 331 332 336 346 352 351 351 352 351 350 352 349 348 346 346 345 344 344 343 342 345 344 344 339 337 344 347 346 347 349 348 342 345 342 345 345 345 347 344 343 344 344 342 341 342 343 343 342
329 327 329 333 341 349 350 357 353 350 351 351 349 348 347 346 344 344 345 342 341 343 344 344 340 340 346 349 347 347 347 346 346 346 346 348 346 347 346 344 343 342 341 338 340 341 341 341 342
330 326 327 330 333 349 350 357 353 352 351 351 350 349 348 348 345 345 345 343 341 343 344 344 340 341 347 350 345 342 346 346 349 345 345 345 343 342 345 345 346 341 342 341 339 339 343 341 341
330 326 325 327 332 348 352 356 351 348 349 352 350 350 348 348 346 346 344 342 341 340 340 342 343 342 344 345 341 342 346 347 347 347 350 343 346 346 345 344 344 344 344 343 339 340 340 341 340
328 329 328 326 329 343 352 357 355 347 350 352 351 350 348 347 347 347 343 342 341 341 340 342 344 344 341 345 341 346 348 347 347 349 350 345 348 347 344 342 340 345 342 342 342 340 342 339 340
327 328 328 329 327 330 349 355 349 350 348 351 350 350 349 348 348 346 343 343 342 342 341 342 342 345 342 344 345 346 347 345 347 348 350 350 349 345 346 342 344 347 343 342 338 336 342 339 339
327 327 328 328 327 335 349 351 348 346 348 348 349 349 348 347 347 347 344 344 342 342 342 342 341 345 344 342 345 348 344 344 347 348 348 346 347 344 347 348 347 345 344 340 341 339 343 338 339
323 326 327 327 325 326 346 354 349 346 350 351 347 348 346 347 346 347 345 345 343 342 342 341 341 346 345 342 346 348 349 348 346 348 346 348 343 345 352 350 347 346 345 341 339 342 343 340 340
325 326 326 326 325 324 325 326 347 347 352 348 348 344 344 345 347 346 345 344 345 344 343 342 340 345 345 344 342 347 347 347 347 345 350 347 345 348 345 348 341 341 348 344 338 341 345 342 343
325 324 323 324 323 324 323 325 329 352 351 345 340 339 341 344 348 346 346 345 345 345 343 342 341 342 344 345 339 345 346 347 347 343 348 349 349 345 346 350 348 340 344 343 342 340 344 344 346
324 323 321 323 324 325 323 322 321 349 348 345 342 341 341 349 349 348 347 346 345 346 344 343 343 340 338 344 341 340 343 346 346 346 343 349 350 348 342 346 347 340 345 348 344 342 341 343 345
322 321 321 325 326 325 324 325 323 325 349 344 342 344 349 349 348 349 348 346 346 346 345 343 343 342 339 335 341 338 338 342 345 346 346 347 347 344 349 345 340 338 336 344 342 344 335 342 343
325 324 322 322 323 324 325 325 325 325 337 345 344 347 345 344 346 348 349 347 347 346 346 345 343 343 342 332 333 339 337 339 344 346 345 349 350 348 351 349 347 345 340 338 341 344 341 339 336
323 324 322 322 325 326 326 326 328 327 326 343 345 344 348 346 348 349 349 349 348 347 347 346 345 344 344 341 330 332 335 333 340 343 345 343 346 347 347 351 349 347 346 339 344 345 346 350 350
321 320 322 321 324 326 325 325 326 330 331 343 344 344 349 346 344 344 341 349 350 348 347 348 347 346 346 345 341 331 334 334 332 342 342 343 341 344 345 348 349 348 346 339 339 346 345 348 347
316 319 318 318 321 324 328 329 327 328 331 337 344 343 348 342 347 344 335 337 349 350 348 348 348 348 347 346 346 342 329 331 331 330 340 340 344 342 348 350 348 349 348 347 340 339 344 352 353

GFSSGP_850_thetae_060.txt.gz
Theta_e
337 336 346 346 351 352 358 357 355 353 353 350 346 348 350 350 351 351 340 337 336 336 338 338 337 337 339 341 342 340 340 333 334 333 333 339 339 339 336 332 338 342 328 337 342 329 329 333 337
342 347 348 349 354 361 359 356 357 354 351 350 350 350 350 349 345 342 338 337 335 337 337 338 338 339 341 341 340 340 337 335 337 336 338 341 340 340 337 341 339 339 340 331 329 335 327 329 334
345 350 348 352 355 357 361 353 354 353 352 351 351 349 348 347 343 341 340 338 338 337 337 339 339 341 340 338 335 333 332 337 337 339 340 339 338 338 333 337 335 338 338 331 329 333 333 332 336
348 350 348 351 356 356 357 352 352 354 354 349 346 346 345 347 343 343 340 339 338 338 339 340 341 340 332 330 332 334 336 338 337 337 341 336 341 334 335 336 337 335 334 333 329 328 332 336 340
348 349 355 358 358 354 353 351 352 352 349 348 348 348 346 347 345 341 340 340 339 339 341 341 337 337 338 339 335 338 338 340 337 339 335 341 335 331 337 338 338 336 332 330 328 330 333 337 341
348 348 359 359 354 356 353 354 353 354 351 349 348 348 346 346 342 342 341 340 340 341 341 336 333 340 339 337 338 337 339 338 339 336 337 334 331 335 336 337 340 334 331 329 327 334 340 342 344
346 355 356 357 358 358 353 348 353 351 350 350 348 345 344 343 344 345 342 343 341 340 334 333 338 340 340 339 337 338 339 338 336 330 330 332 333 334 336 337 339 333 330 329 328 341 343 344 345
349 347 355 357 356 360 354 350 353 352 353 350 346 345 343 345 348 347 347 347 344 340 330 331 334 336 338 342 337 338 338 336 328 330 332 335 336 336 335 336 337 333 334 330 329 339 342 343 345
350 351 354 352 354 356 354 354 349 350 351 351 350 344 344 348 348 349 350 349 342 332 331 332 335 335 335 337 338 337 335 327 331 339 339 339 339 339 339 336 337 334 332 329 331 337 341 342 343
350 350 351 345 351 355 354 352 349 351 351 352 351 345 346 348 348 349 349 346 337 332 332 332 332 334 338 338 338 334 331 334 342 339 338 337 338 339 339 336 336 335 334 333 337 339 341 341 342
344 351 347 347 350 345 346 349 351 351 352 352 349 345 345 346 346 348 346 344 339 330 331 332 332 335 337 337 334 338 341 341 345 345 340 338 338 339 338 339 341 340 340 339 340 341 342 344 344
343 343 343 345 350 348 349 350 353 352 352 352 349 344 345 346 346 346 344 343 341 333 333 333 335 334 336 334 333 337 341 340 343 345 344 343 343 344 341 340 342 341 339 337 337 340 341 342 343
338 340 342 343 352 348 344 348 349 350 352 352 349 346 345 345 343 344 343 343 341 341 339 340 336 339 336 339 338 342 343 343 343 344 342 344 344 345 344 345 343 342 342 341 340 342 341 342 343
338 337 336 353 351 349 350 352 351 350 351 351 348 347 347 346 343 343 343 343 341 342 342 343 340 339 339 343 344 345 344 345 345 344 341 344 344 343 342 343 344 342 343 341 342 340 343 343 342
336 333 328 343 354 353 350 354 354 348 351 351 349 347 347 346 344 343 343 342 341 342 343 343 339 346 343 344 344 346 344 346 345 343 341 344 346 345 342 343 344 343 342 343 341 342 341 342 342
329 326 326 332 353 352 348 357 351 347 351 351 350 347 346 346 345 343 343 343 341 342 343 342 343 344 342 343 345 347 347 346 344 345 344 345 345 344 345 343 343 343 344 341 342 342 341 342 343
325 329 328 326 336 352 349 357 352 351 352 350 349 348 346 346 345 344 344 344 343 341 344 343 342 341 344 344 346 347 346 346 345 346 343 345 345 344 344 342 339 339 338 340 341 340 342 341 341
329 329 324 325 326 348 352 355 353 352 351 350 348 347 346 346 345 345 344 343 343 343 343 343 339 338 342 344 346 347 347 346 347 346 345 346 342 342 344 344 340 342 342 340 339 341 342 341 341
326 326 326 327 327 330 353 356 356 353 352 350 348 347 346 348 345 344 345 345 342 343 343 343 341 340 345 342 344 345 346 345 347 346 348 344 347 346 344 343 342 343 343 339 339 340 341 339 340
327 326 325 325 326 328 353 356 354 350 351 351 349 348 347 348 347 344 345 344 342 343 342 342 340 339 344 343 342 342 345 346 347 346 350 343 346 346 345 342 342 342 341 342 341 339 342 338 340
326 325 326 325 326 347 351 355 353 348 347 352 351 350 349 347 346 347 346 344 343 341 340 340 340 339 342 343 342 345 345 346 347 348 349 346 347 342 345 342 344 344 343 340 338 338 342 338 338
325 323 325 327 323 328 344 355 349 350 349 349 344 350 350 349 347 345 345 343 341 341 340 340 341 340 338 341 340 342 345 346 345 347 347 346 348 341 346 347 346 344 342 338 338 341 340 337 340
325 324 323 324 323 322 324 322 340 349 352 352 341 340 344 346 348 345 344 343 342 341 341 341 341 340 337 341 337 341 346 344 346 347 346 347 346 346 344 343 346 345 344 338 340 341 341 339 340
324 322 320 318 319 321 321 321 340 349 350 351 348 347 346 347 348 346 345 343 343 342 341 341 341 341 338 342 339 345 346 347 348 346 347 349 344 348 347 340 341 342 347 340 338 342 344 340 342
322 317 319 321 320 321 320 320 320 345 344 348 348 349 348 346 346 346 345 344 344 342 342 342 342 341 339 340 342 342 346 348 348 346 345 349 347 347 344 342 345 339 342 342 339 340 343 343 343
321 317 318 322 322 322 321 323 323 332 344 345 347 348 344 346 346 347 346 344 344 344 343 343 342 342 341 336 342 337 344 346 347 348 344 344 347 347 346 342 346 338 338 346 343 340 339 341 342
323 322 317 318 319 320 321 322 324 328 328 344 343 341 340 341 343 345 347 345 344 344 344 344 343 343 342 341 335 340 336 345 346 346 346 344 346 344 345 347 341 339 337 335 340 340 333 338 341
322 320 322 316 321 323 322 323 323 327 333 339 342 341 341 343 344 348 347 345 345 345 344 344 344 344 343 342 340 335 337 337 345 345 346 345 347 350 346 349 348 345 343 342 338 340 342 338 338
312 314 317 316 319 322 322 322 327 329 331 331 342 342 344 347 345 348 348 346 345 345 345 345 345 344 343 343 342 340 335 335 338 342 345 347 347 350 348 348 349 349 347 345 341 340 340 343 344
312 311 309 315 318 317 322 323 324 326 327 325 328 343 346 347 347 348 348 348 346 346 346 346 346 345 345 344 343 343 338 333 333 335 343 345 347 346 345 346 347 349 348 346 343 335 342 343 346

GFSSGP_850_thetae_063.txt.gz
Theta_e
336 337 345 345 349 350 356 357 354 353 354 348 343 344 346 347 350 349 339 338 339 339 337 338 335 338 341 337 337 339 333 330 333 332 335 337 338 338 329 332 337 327 342 340 329 333 333 335 336
337 346 347 348 352 358 358 355 357 353 351 348 349 350 349 348 345 340 338 338 338 337 338 336 336 338 340 341 339 339 331 334 332 334 339 338 339 335 339 337 338 334 332 340 331 329 333 337 337
346 347 347 351 354 357 359 355 353 353 352 350 349 347 348 344 343 338 338 337 338 339 338 337 337 341 340 338 339 335 339 337 337 340 340 337 337 333 340 336 338 337 329 329 341 328 331 335 339
347 350 349 351 355 355 356 350 351 354 351 349 346 347 346 346 339 339 337 336 338 337 338 338 340 340 341 339 332 332 340 337 340 339 337 340 339 335 336 338 339 334 333 329 333 332 332 337 343
349 349 354 357 358 355 351 350 352 353 352 349 349 347 345 344 341 338 336 336 337 337 338 339 340 335 331 334 341 337 340 336 341 338 339 338 337 339 341 340 336 339 339 328 331 336 340 343 343
348 347 358 360 357 356 352 351 351 351 351 349 347 346 345 346 341 338 338 337 337 338 339 340 338 332 342 340 338 339 340 339 339 337 338 336 339 338 340 338 334 338 328 329 334 338 340 342 342
346 353 356 357 358 356 354 350 354 351 351 349 346 344 346 345 340 339 339 339 338 340 340 334 334 343 336 341 341 338 337 337 337 337 335 334 334 336 338 337 332 330 327 332 337 340 343 342 340
349 348 354 355 355 358 351 350 350 350 351 348 342 344 345 343 340 340 340 340 340 340 336 332 338 338 341 340 338 337 336 332 329 334 332 332 335 335 337 336 333 330 328 337 341 343 343 341 342
351 352 352 351 353 356 352 354 352 351 350 345 351 342 343 342 343 343 345 342 340 335 332 335 335 338 339 337 338 336 332 327 332 334 336 336 336 336 336 335 335 332 329 333 340 343 343 342 343
350 352 352 346 351 353 353 353 351 351 351 350 343 341 345 346 345 346 347 344 340 331 332 332 334 335 336 336 336 333 327 335 336 337 338 338 338 336 336 335 334 331 330 335 340 341 342 342 341
346 352 346 347 349 352 353 352 350 350 352 351 343 344 347 347 348 347 347 345 338 329 331 335 333 335 337 337 333 329 338 336 335 335 337 338 337 338 337 339 336 335 337 338 339 340 341 341 342
342 343 346 343 349 347 347 350 351 351 350 351 343 344 347 348 348 348 348 345 337 331 330 331 333 336 337 334 334 331 341 342 339 337 338 340 340 337 339 341 339 340 339 339 340 342 342 341 342
339 340 340 340 342 346 347 346 351 352 352 351 343 346 347 347 347 348 348 344 337 331 331 330 333 335 336 333 338 341 341 342 343 341 342 342 343 343 342 343 340 340 339 338 339 342 342 341 342
337 338 337 339 346 348 348 351 349 352 352 350 344 344 345 346 347 347 345 343 335 331 331 333 334 335 334 333 337 340 341 342 344 342 343 344 342 343 344 343 342 341 339 341 341 341 342 342 341
335 336 332 350 348 350 349 354 352 350 351 349 346 345 344 345 346 347 344 343 339 334 335 335 337 335 336 338 341 342 343 342 343 343 342 344 343 343 343 343 342 342 339 341 341 342 342 342 342
327 324 326 348 349 352 350 352 349 349 351 349 348 346 345 343 345 346 343 343 341 341 342 340 339 336 340 342 344 345 344 345 344 342 342 344 345 345 343 343 343 341 341 340 342 341 342 341 341
323 330 329 336 351 352 351 354 350 349 351 350 348 346 346 345 344 343 343 343 341 340 341 342 339 343 342 343 344 346 346 345 344 344 343 344 345 344 343 342 343 341 341 340 341 340 341 342 341
329 329 326 325 349 350 351 351 351 350 351 350 349 347 346 346 344 343 343 343 342 341 341 343 341 340 342 343 344 345 346 346 344 345 344 346 344 342 343 342 342 342 340 340 340 341 341 341 341
326 326 326 325 325 325 350 350 353 351 352 351 349 348 346 346 345 344 343 343 343 342 342 344 341 340 343 344 344 344 346 345 346 346 345 344 342 342 343 342 340 343 343 340 339 340 341 340 341
325 326 325 324 324 323 331 351 352 351 351 350 348 347 346 345 345 345 344 344 343 343 342 344 340 339 341 343 342 342 344 346 346 346 345 345 345 345 343 343 341 342 342 338 338 339 341 339 340
326 325 325 325 324 348 350 355 355 350 349 350 349 347 346 345 346 345 344 344 344 343 342 343 341 340 339 342 342 342 345 347 346 346 346 347 346 344 343 344 342 342 341 341 340 340 341 339 338
326 324 326 325 323 322 344 349 354 350 348 348 350 349 347 345 346 346 345 344 345 344 343 342 342 339 339 341 342 341 341 345 344 346 346 345 347 343 342 340 342 343 342 339 339 338 341 337 336
325 324 323 323 321 320 323 329 333 349 351 348 351 350 349 347 346 346 346 344 344 344 344 343 341 340 339 338 343 342 340 342 343 345 346 347 345 346 346 346 346 342 341 342 338 338 341 336 339
324 323 319 315 315 319 319 320 332 352 350 347 348 349 349 349 347 346 345 346 346 345 343 342 340 340 340 339 338 341 340 341 343 345 346 347 344 346 345 345 341 344 345 342 338 340 341 339 339
319 316 319 320 318 320 318 319 320 339 345 345 346 348 344 346 348 347 346 345 346 344 343 342 341 340 340 340 338 338 336 339 342 344 346 347 347 344 346 346 342 340 344 346 339 338 340 341 342
317 316 317 321 320 320 318 322 323 326 333 343 345 346 346 341 342 346 347 345 345 345 342 341 341 341 341 341 339 337 336 342 342 344 348 346 347 346 346 345 343 347 340 343 339 337 340 342 343
320 320 315 315 315 319 318 321 323 328 329 330 343 347 347 346 344 345 346 345 345 345 342 341 341 341 341 342 341 336 336 343 343 344 348 347 345 347 347 347 343 346 344 341 346 342 338 340 341
315 317 320 314 319 322 320 321 328 327 325 327 341 345 347 347 348 346 346 345 345 346 343 342 342 342 342 342 342 340 334 335 342 345 346 347 344 345 346 347 346 342 346 341 340 344 340 335 336
310 310 309 313 314 318 320 324 325 325 322 323 330 341 345 344 345 344 345 345 345 345 344 343 342 342 342 342 343 342 339 333 335 342 345 346 345 344 346 346 347 348 346 344 342 341 342 342 335
311 310 307 311 316 313 318 321 314 319 319 319 340 338 341 341 341 344 345 346 344 343 344 344 343 343 343 343 343 343 342 340 332 333 342 345 345 344 346 350 348 348 348 348 346 345 343 342 341

GFSSGP_850_thetae_066.txt.gz
Theta_e
334 335 344 345 348 348 354 358 354 353 354 345 341 341 342 342 344 348 339 336 338 339 337 337 335 335 329 331 337 333 329 331 331 333 337 341 340 330 333 335 327 339 335 330 339 339 338 341 339
338 345 347 348 352 357 357 353 356 353 349 343 347 347 349 347 344 340 338 336 338 339 337 337 337 339 337 335 339 333 331 332 336 340 338 338 335 336 338 340 330 341 342 333 333 339 340 339 338
345 346 347 350 354 355 360 353 353 347 348 347 348 347 348 344 341 338 338 338 339 338 337 335 341 341 341 338 338 333 334 334 335 339 338 338 337 339 339 340 339 330 332 340 336 337 340 337 339
348 349 348 350 355 353 354 351 348 350 350 348 348 347 345 343 338 339 338 339 339 337 335 336 339 340 337 338 336 336 338 340 340 337 339 335 333 335 336 338 336 333 329 338 338 339 335 340 342
348 349 353 358 357 355 352 349 350 352 351 349 349 345 342 342 340 338 338 337 336 337 336 337 340 339 338 331 333 339 338 337 340 335 338 337 337 339 338 338 339 340 329 337 336 335 338 342 343
348 347 358 359 357 355 351 350 351 351 351 350 346 344 345 344 339 337 337 338 337 337 337 340 339 331 331 336 339 341 337 340 335 338 333 336 339 340 340 339 339 332 336 336 336 340 342 342 342
347 352 357 356 356 355 353 349 352 350 350 348 345 344 345 344 338 336 337 338 337 338 339 340 331 337 341 338 341 342 340 337 336 335 336 335 340 340 340 336 338 334 332 334 336 341 340 340 337
350 346 353 354 353 357 351 350 351 350 350 347 344 344 346 342 336 336 337 337 338 339 340 335 338 342 336 344 342 341 337 335 337 335 332 333 340 339 337 336 337 331 332 338 340 341 340 340 341
350 351 352 350 352 355 350 353 350 351 348 345 346 344 344 340 337 338 338 338 340 340 336 331 339 337 339 340 340 340 331 328 330 330 332 334 334 337 336 338 337 330 338 341 342 342 341 342 341
349 353 350 346 350 353 351 352 352 352 349 343 344 344 343 340 339 339 340 340 340 339 332 335 336 336 338 338 340 332 327 332 334 336 336 336 335 336 336 335 333 330 332 340 341 341 342 341 341
348 351 346 347 351 351 352 351 351 351 351 346 345 344 343 341 340 340 340 339 338 331 331 333 336 335 336 337 333 326 335 335 336 337 337 336 335 335 335 334 332 332 337 340 341 340 341 341 342
343 342 345 344 348 349 351 350 351 350 350 349 341 342 343 342 341 342 341 338 332 329 330 332 334 335 335 336 330 332 334 334 334 336 336 337 338 340 340 339 338 338 338 339 340 341 341 339 341
339 340 341 341 340 347 347 350 351 351 351 348 343 344 345 343 342 342 340 341 334 329 330 331 333 336 336 333 330 339 335 337 336 337 340 340 338 339 341 340 340 339 339 339 341 341 341 341 342
337 338 338 336 337 345 346 347 350 353 350 344 343 344 345 345 344 346 346 345 338 331 330 330 334 336 335 333 334 338 342 343 339 341 341 340 343 342 343 342 341 341 340 338 340 341 341 342 342
335 335 331 332 348 347 351 353 350 352 348 345 345 345 346 346 347 346 346 343 338 330 330 330 334 336 334 335 340 340 341 341 342 341 340 343 343 342 341 342 341 340 341 341 341 341 342 341 341
326 324 327 342 348 350 346 349 350 351 347 344 345 346 346 347 347 346 345 343 337 330 330 332 334 335 333 334 340 340 341 341 342 341 341 343 343 343 342 343 342 339 340 341 341 340 341 341 342
323 329 328 328 348 350 348 350 348 352 350 346 344 344 345 346 346 346 345 343 336 333 333 334 335 334 335 336 341 342 343 344 343 342 342 343 343 344 341 343 342 340 339 341 340 340 341 341 341
329 328 326 327 350 350 351 349 350 351 350 349 347 344 344 345 346 346 346 343 339 339 340 336 335 334 339 342 343 344 344 344 344 344 344 344 344 343 343 340 343 340 339 339 340 341 341 341 341
326 326 326 325 328 330 329 343 350 349 352 350 348 345 345 343 345 345 346 343 342 340 341 341 338 341 341 342 343 344 344 345 344 345 345 343 342 341 343 342 340 339 339 339 339 340 340 340 340
325 326 326 324 324 322 330 341 348 347 352 351 349 346 346 344 343 344 343 343 343 342 340 341 341 341 340 341 342 343 342 344 345 345 345 343 345 344 342 343 340 342 342 339 339 339 338 338 339
325 325 325 326 325 334 348 349 353 352 350 350 350 347 346 345 344 343 343 343 343 343 342 341 342 340 339 340 343 343 342 344 345 346 344 348 344 343 343 343 344 342 342 339 337 340 339 339 336
329 323 325 326 322 321 340 340 350 351 350 348 349 348 347 345 345 344 342 342 343 343 343 342 341 341 339 342 343 342 339 341 344 344 343 347 345 344 343 343 343 342 341 340 339 340 341 338 336
327 323 324 323 321 319 322 339 329 347 350 348 348 348 347 346 345 345 344 344 344 344 344 343 341 342 340 341 343 343 340 340 342 343 345 346 344 342 343 341 341 343 342 340 339 339 340 337 337
322 321 314 313 314 318 318 331 320 348 347 345 347 349 348 347 346 345 345 345 345 344 344 344 342 342 341 339 342 343 342 339 342 343 342 344 346 345 343 346 343 342 342 340 338 337 340 339 336
318 317 318 318 318 319 316 319 320 325 325 332 343 347 350 349 348 345 346 346 345 344 344 344 342 342 341 339 340 339 342 341 339 340 342 344 344 344 343 344 343 341 344 344 341 337 338 340 339
316 316 317 321 318 319 317 320 322 325 325 324 337 345 348 349 349 346 346 345 345 344 344 344 344 342 341 339 340 340 339 341 339 340 341 344 345 345 344 345 344 343 341 342 345 341 337 340 342
317 317 315 314 314 317 317 321 323 323 321 322 324 342 345 347 349 348 347 346 345 345 344 343 345 343 342 340 340 340 339 339 336 337 341 343 343 344 347 346 345 342 346 344 342 342 337 338 339
314 312 317 313 319 322 318 325 326 321 320 320 324 335 342 346 346 348 347 347 346 345 343 344 346 344 342 340 340 340 340 338 335 337 341 343 344 343 344 346 347 345 343 344 340 343 345 343 340
310 310 308 311 313 317 321 324 318 318 318 316 337 344 337 345 346 344 342 344 346 346 345 344 345 345 343 341 341 341 341 338 337 336 340 341 345 344 343 344 346 346 346 343 343 341 340 341 342
309 310 306 315 317 309 317 320 312 310 312 317 331 344 342 342 345 346 345 345 342 344 344 344 344 344 342 341 341 341 342 341 337 335 334 340 344 345 343 344 345 346 347 347 347 346 345 343 342

GFSSGP_850_thetae_069.txt.gz
Theta_e
334 333 344 344 352 351 357 357 352 355 348 345 342 342 342 343 345 353 339 337 338 337 336 336 336 330 331 335 333 328 328 330 332 341 344 340 332 336 338 328 339 335 331 337 338 338 340 339 340
335 345 346 349 355 358 360 353 356 351 348 343 345 343 345 346 344 340 338 337 337 337 336 333 336 328 329 337 333 329 331 334 340 342 344 338 339 340 341 333 342 342 335 338 339 339 339 338 340
345 346 349 354 355 358 359 352 352 349 345 349 349 349 348 345 342 339 337 338 337 336 336 334 338 333 332 338 335 330 333 334 338 340 340 341 339 339 340 340 331 337 339 336 336 338 337 338 342
347 349 348 353 357 353 354 349 348 349 345 350 348 349 344 343 340 338 336 338 338 337 336 337 340 341 340 337 338 334 336 341 338 340 336 335 337 335 338 336 339 333 340 336 337 336 338 342 343
348 350 355 358 358 355 352 348 348 349 351 350 349 346 342 342 340 337 337 338 339 337 335 340 340 339 338 336 331 338 338 340 337 340 336 336 338 338 338 339 340 330 337 337 334 335 341 342 343
348 347 359 360 357 356 351 349 349 348 351 347 344 343 345 341 339 338 340 339 337 335 339 342 341 342 335 335 335 339 336 340 336 334 338 339 340 339 338 339 332 330 335 336 339 341 342 342 340
348 354 358 356 356 356 353 351 349 351 351 350 345 346 344 343 338 339 341 337 337 335 338 342 337 331 333 339 338 339 339 334 335 334 336 339 340 339 337 338 329 330 335 337 342 341 340 337 336
349 349 354 353 354 357 351 350 351 351 350 347 346 347 344 342 339 339 338 338 337 338 339 337 330 342 343 341 342 340 336 338 331 334 335 341 340 339 335 336 331 332 336 338 340 339 340 339 337
350 354 355 352 352 356 350 352 350 352 347 345 345 345 343 342 339 340 343 341 341 339 340 333 344 337 342 342 341 337 337 335 335 332 335 336 338 336 342 334 331 338 340 341 341 341 341 338 337
351 356 353 348 350 353 352 352 351 351 346 346 346 345 342 342 342 343 343 344 344 342 340 332 342 338 340 343 342 332 327 329 331 334 335 336 335 334 341 336 329 338 341 340 341 341 341 341 341
349 354 348 347 350 351 351 352 351 351 349 346 346 345 343 342 342 343 343 344 344 340 333 335 336 341 341 344 334 326 332 334 336 336 335 336 335 333 333 330 330 336 340 341 341 341 341 341 341
350 345 345 345 348 350 351 351 352 350 350 346 346 343 343 342 342 343 343 344 343 335 332 335 336 339 337 335 328 333 334 336 337 337 336 336 338 338 337 336 337 338 339 340 341 341 339 341 341
346 344 343 342 341 344 349 350 351 351 350 347 345 345 343 343 343 344 344 343 338 330 332 333 335 336 336 333 327 334 333 335 336 337 337 338 340 341 341 340 339 339 339 340 341 341 341 341 341
340 339 338 336 336 340 347 349 351 351 348 346 345 345 344 344 344 345 345 339 330 329 330 332 334 336 336 331 335 334 335 335 337 340 341 340 339 342 342 341 339 339 338 340 340 341 341 342 341
336 337 332 343 344 347 349 351 351 348 346 346 346 345 344 345 345 345 338 337 335 330 331 332 335 336 335 332 334 341 342 339 340 342 341 341 341 341 342 342 341 340 339 339 340 341 341 341 340
333 329 337 346 348 349 350 354 351 349 347 346 345 346 346 345 345 345 342 344 340 333 331 331 335 336 333 336 336 340 341 342 341 340 340 342 342 341 342 341 340 340 341 341 340 341 341 341 341
330 339 334 333 350 351 350 352 352 349 347 346 345 345 346 346 347 343 344 344 341 333 330 330 333 335 332 338 340 340 341 342 342 341 341 342 342 343 341 343 342 340 340 341 339 341 341 341 341
337 334 330 335 348 351 351 350 352 353 350 348 346 346 346 346 347 346 346 345 340 331 330 331 333 335 332 337 340 342 343 344 343 343 343 343 343 343 342 342 341 340 340 340 340 340 341 340 340
331 331 331 329 335 336 330 331 342 352 352 348 347 346 346 346 347 347 345 344 340 332 331 333 333 334 334 335 341 342 342 343 343 344 344 344 343 342 343 341 342 341 338 339 341 340 339 338 340
331 332 332 329 328 329 330 334 352 349 352 351 348 346 346 346 346 346 346 345 342 336 337 336 335 335 337 340 341 342 343 344 344 344 345 342 344 342 343 341 339 340 339 338 339 339 339 338 336
331 333 331 330 329 336 348 349 353 351 351 352 351 347 346 345 345 345 346 345 343 340 339 341 339 338 339 340 341 343 343 344 344 344 343 345 344 344 343 343 340 341 342 339 338 339 340 339 335
335 328 330 329 330 329 337 333 348 353 352 352 352 350 347 346 345 345 345 345 345 343 341 340 341 341 340 341 341 343 343 344 344 342 344 347 345 345 344 343 343 342 342 340 338 338 339 339 337
334 328 329 329 329 326 330 337 340 348 354 351 352 351 348 347 346 345 345 345 343 343 343 342 341 341 341 338 340 343 344 341 343 343 343 345 344 342 343 342 343 342 342 341 340 338 339 338 336
328 324 322 322 325 328 327 334 331 337 336 334 347 351 350 348 346 346 345 345 344 343 343 343 343 342 341 341 339 341 343 341 341 343 343 345 346 342 342 343 341 343 342 343 339 338 339 338 336
326 327 328 329 328 330 323 328 332 329 328 328 332 340 351 349 348 346 345 345 345 343 343 343 343 343 341 342 340 339 344 342 341 339 343 343 344 344 343 344 343 341 343 341 341 337 337 340 339
325 327 328 329 329 329 322 328 331 323 325 331 339 340 347 350 349 347 346 346 346 344 344 344 344 344 342 342 341 339 341 344 343 340 340 341 343 343 343 344 343 341 342 344 344 341 337 337 341
321 324 323 323 321 327 326 327 325 322 327 333 343 344 345 349 350 349 347 346 346 345 345 344 344 344 344 342 341 340 339 342 343 342 340 342 342 344 346 345 344 342 344 345 341 344 339 338 339
320 317 323 324 327 328 327 331 327 322 327 334 341 343 341 345 349 349 348 346 346 346 345 345 344 343 343 344 342 341 339 340 341 341 340 339 342 343 344 346 347 345 344 344 344 342 343 340 337
319 320 319 322 323 327 329 329 317 321 330 331 328 335 344 346 346 348 348 347 346 346 345 345 344 343 343 345 344 342 340 340 340 339 339 337 341 344 342 343 344 346 345 342 344 342 339 343 342
314 314 315 326 326 322 328 323 316 323 326 323 323 324 329 336 340 345 347 345 346 346 346 346 345 344 344 344 345 343 341 340 341 340 338 336 341 341 343 342 343 345 345 346 346 344 344 344 341

GFSSGP_850_thetae_072.txt.gz
Theta_e
334 339 346 347 356 354 360 360 354 353 350 347 344 344 345 344 348 354 343 343 345 345 345 337 329 328 329 332 330 329 338 342 345 345 341 332 339 338 331 340 332 333 338 338 338 339 339 340 341
343 344 348 352 359 359 360 354 356 350 348 344 344 343 345 350 347 344 343 344 345 345 345 346 330 332 336 332 330 332 339 343 345 343 338 338 339 339 336 342 342 332 337 338 338 339 339 341 338
346 347 352 356 355 359 360 353 349 346 346 346 349 348 351 348 344 343 343 344 345 346 347 343 330 331 337 337 331 333 338 339 342 340 340 339 339 340 340 332 337 335 337 337 338 339 340 341 338
349 351 352 357 359 355 354 352 347 347 350 351 350 351 346 345 343 343 343 343 345 346 347 338 337 332 338 337 332 335 340 339 341 335 335 339 338 338 336 338 333 339 336 336 339 338 341 341 339
350 352 359 360 360 357 353 348 348 346 348 352 350 350 345 344 344 343 344 344 345 346 347 345 341 343 338 339 343 342 340 339 340 337 337 338 338 337 338 339 330 338 340 336 336 341 342 343 340
351 351 360 360 359 356 350 348 348 348 350 349 349 345 347 345 343 343 344 345 345 345 347 347 341 339 336 332 341 337 339 338 337 340 340 340 338 338 337 332 330 334 333 335 340 342 342 341 340
353 356 358 355 359 358 354 349 347 348 352 351 348 350 347 344 343 344 345 346 346 346 348 349 348 341 337 337 341 338 338 336 335 337 340 340 337 336 338 328 332 335 340 341 341 340 339 336 334
351 353 355 353 358 359 352 351 349 351 351 349 349 350 347 343 344 345 346 345 345 346 349 347 344 345 348 345 340 339 334 335 337 336 339 339 336 336 336 331 333 335 340 339 339 339 337 336 336
352 357 356 353 357 356 350 352 353 352 351 349 349 348 344 343 344 346 346 345 346 348 347 342 346 349 345 346 341 338 341 337 333 340 340 345 344 345 344 335 338 341 341 340 341 338 336 336 332
352 356 352 349 350 354 352 352 353 350 349 349 348 347 344 343 345 345 345 345 346 347 345 343 348 347 349 351 347 345 345 344 344 345 346 345 346 347 343 340 340 340 340 341 341 341 344 346 346
352 353 349 348 349 349 353 350 349 351 350 350 349 346 344 344 344 344 345 345 345 346 343 346 347 348 349 348 344 343 344 345 346 346 346 346 346 344 343 345 346 344 346 347 346 347 347 348 345
353 349 348 346 345 348 350 351 352 350 351 347 349 346 344 344 344 345 345 345 346 346 344 346 348 348 351 346 343 345 345 345 345 346 345 346 344 344 345 345 346 346 345 345 346 347 348 347 347
349 348 346 343 340 341 346 350 352 352 349 349 347 344 344 343 344 344 344 345 346 344 345 346 347 349 351 346 344 345 345 345 345 345 347 347 346 347 346 346 346 345 345 345 347 347 348 347 347
343 344 343 340 337 339 348 350 351 353 350 348 345 344 344 343 344 344 345 345 345 342 345 346 347 348 349 346 346 346 346 346 346 346 346 342 347 346 346 346 346 346 346 346 347 348 347 345 345
339 342 341 341 340 345 348 354 353 352 350 348 346 344 343 343 344 345 346 344 342 341 344 346 347 347 346 346 344 346 346 346 347 348 344 344 348 343 343 348 346 346 344 341 345 348 347 344 345
338 340 344 344 343 346 352 357 354 351 349 348 347 345 345 345 344 345 344 344 344 342 344 345 345 347 346 345 346 347 348 348 349 348 347 341 342 341 342 346 345 347 347 346 346 347 345 344 345
336 341 342 346 345 348 352 354 354 351 348 348 346 346 346 345 345 346 344 347 346 344 344 345 346 347 346 344 345 348 347 349 349 349 348 342 343 345 342 347 343 346 347 346 345 346 345 344 344
336 340 342 340 349 348 351 352 354 352 350 349 346 348 347 346 346 345 347 349 348 345 343 344 345 347 345 345 347 348 348 348 350 350 351 343 346 343 341 346 343 346 345 345 346 346 345 345 344
334 339 340 336 345 344 341 336 347 351 353 351 346 349 349 346 345 345 348 349 348 345 342 343 345 346 343 346 346 348 348 348 349 350 346 344 346 341 341 347 343 347 345 345 344 343 344 342 342
335 338 339 334 333 337 334 334 345 346 351 353 350 348 349 348 346 346 348 348 346 344 341 343 343 345 339 344 346 347 348 348 350 350 347 348 344 341 341 346 346 344 344 342 340 347 342 342 342
335 335 338 337 333 334 338 340 350 348 349 352 351 351 350 349 347 347 349 348 345 345 342 340 341 344 337 345 346 348 350 349 344 350 349 348 345 344 345 341 347 341 343 343 340 341 342 341 341
335 334 334 335 335 337 335 343 346 353 352 353 352 350 349 350 349 348 348 348 345 344 345 344 339 345 340 342 347 350 348 347 348 349 350 350 346 343 343 342 340 341 347 347 341 344 344 342 339
335 333 334 334 336 334 332 338 346 346 353 353 353 352 350 348 348 348 348 348 346 345 345 346 346 340 348 341 345 349 347 347 349 350 349 351 342 343 346 343 343 342 348 343 348 341 339 341 339
333 332 332 332 334 335 334 335 339 342 338 339 350 353 352 350 348 347 348 348 347 345 347 347 348 341 341 344 340 343 350 350 347 349 348 346 348 347 346 342 342 342 348 342 343 348 339 347 342
333 332 332 332 332 334 333 333 336 333 334 337 339 338 353 351 350 349 348 348 347 345 347 348 349 343 341 341 342 340 341 343 350 348 346 351 352 349 346 343 342 345 341 343 345 340 348 341 346
333 332 331 332 332 332 331 332 332 331 338 345 346 342 341 352 351 350 349 348 348 347 348 349 349 343 343 342 341 342 340 348 349 349 347 349 349 350 351 344 347 349 342 345 340 346 345 347 346
331 333 330 329 330 332 331 332 328 330 340 340 344 345 346 351 351 351 349 349 348 349 349 350 350 344 344 344 343 342 341 340 348 349 350 348 349 350 353 350 350 348 345 347 344 350 342 349 344
325 328 329 328 331 332 331 333 331 332 341 340 338 341 347 349 351 351 351 350 349 349 349 350 350 350 344 344 345 343 342 341 340 347 350 349 349 349 351 353 353 350 347 342 343 349 347 345 348
324 325 326 328 329 331 333 332 325 334 335 335 333 331 335 340 347 350 351 350 350 350 350 350 350 351 351 347 347 346 346 342 340 340 346 349 349 350 351 344 346 351 350 346 343 350 351 350 350
321 324 326 328 331 330 331 327 327 331 328 325 323 323 323 326 328 342 347 349 349 349 350 350 350 350 351 351 350 346 345 348 349 341 340 343 348 349 351 343 343 344 352 351 343 345 350 350 350

GFSSGP_850_thetae_075.txt.gz
Theta_e
334 338 347 349 357 356 362 360 354 353 351 347 345 345 347 350 353 355 346 349 349 348 345 340 338 337 340 329 329 338 342 344 344 340 333 342 335 336 339 331 334 338 338 338 338 339 341 342 342
345 344 349 352 359 364 363 356 355 353 348 345 345 345 350 351 348 345 347 348 346 344 343 342 328 330 340 331 332 340 343 345 344 339 340 341 337 338 342 341 331 337 337 338 340 339 341 339 340
348 348 352 356 359 365 362 352 351 347 346 347 346 351 352 347 345 345 346 347 345 344 345 336 333 336 342 332 335 342 340 343 341 340 338 338 339 338 332 340 334 337 337 338 339 341 338 338 337
349 352 353 361 362 358 357 350 348 351 352 350 350 351 349 346 345 346 346 346 345 348 349 330 331 337 342 334 334 340 339 340 335 334 338 337 338 338 338 338 336 338 338 338 339 341 341 337 334
350 353 362 363 361 358 353 348 348 352 353 350 350 350 347 346 345 346 345 347 347 349 349 340 331 338 339 341 340 341 339 339 339 337 338 338 340 338 338 334 340 338 338 337 341 342 343 337 336
353 353 362 361 361 356 351 348 347 348 352 351 350 348 348 346 345 345 345 346 347 346 349 346 343 338 337 342 341 340 338 337 339 340 340 337 338 338 338 334 337 334 336 340 342 342 341 338 333
354 360 360 358 362 358 352 348 348 349 352 351 349 351 347 346 345 345 345 346 346 349 347 349 348 341 333 339 340 340 336 335 337 339 339 335 338 329 332 339 338 341 341 342 341 339 335 333 332
353 354 356 357 359 361 350 349 348 350 353 351 351 350 347 346 345 345 345 345 345 348 347 348 347 346 349 345 340 336 334 335 336 339 336 336 335 336 336 336 340 339 339 338 337 335 334 335 332
353 359 357 357 358 357 352 352 352 352 351 351 351 350 345 345 345 345 345 345 345 346 345 343 345 348 349 348 339 340 331 333 339 344 345 347 345 346 345 338 340 339 340 337 334 334 331 328 332
354 358 353 351 353 353 353 353 354 352 350 350 349 348 345 345 345 345 344 344 344 345 341 344 348 348 349 347 347 344 346 346 346 346 343 348 347 345 344 341 340 341 340 341 341 346 345 347 344
352 354 349 350 352 353 353 352 353 351 353 350 349 347 345 346 345 344 344 343 343 342 342 349 347 348 349 345 344 344 342 342 343 345 346 340 345 345 344 341 344 346 346 347 347 346 347 346 342
354 350 349 348 350 352 354 352 351 352 353 351 348 347 345 346 345 344 343 343 342 343 343 346 346 349 346 344 345 345 345 343 344 345 344 344 344 344 345 347 345 346 346 346 345 347 345 344 344
353 349 348 345 344 345 350 353 354 351 348 349 349 347 345 345 345 344 343 343 343 342 343 346 348 347 347 345 344 346 343 346 344 345 347 346 346 345 345 346 346 345 345 345 345 348 344 345 345
349 349 346 344 342 342 349 352 352 354 350 350 349 346 345 345 345 345 344 343 343 342 344 346 348 351 347 347 348 343 347 343 345 345 348 349 345 347 346 346 346 346 347 347 347 347 346 344 344
344 349 346 343 341 343 350 354 355 353 351 349 348 346 345 345 345 345 345 343 342 342 345 345 348 348 348 347 346 346 344 347 346 348 350 348 347 348 346 344 346 346 343 345 348 346 345 345 345
343 346 349 344 343 345 351 359 354 353 351 348 347 346 345 345 346 345 345 343 342 341 345 345 345 347 346 346 347 347 346 347 347 347 348 350 346 344 348 346 345 345 347 346 346 346 345 346 344
340 345 345 346 342 346 352 357 353 353 352 349 347 346 345 345 345 346 345 341 342 342 345 346 346 347 346 347 347 347 347 348 348 347 349 349 350 348 349 346 347 348 345 346 345 345 344 344 346
337 340 342 346 344 347 353 357 355 352 350 350 348 347 346 346 346 346 344 345 345 345 345 346 346 348 347 347 348 347 346 349 348 349 348 346 348 345 348 349 345 348 344 344 347 346 346 346 344
334 337 341 341 344 346 347 354 353 353 351 351 348 348 348 346 346 347 344 347 347 346 345 346 347 349 347 347 346 347 348 349 348 349 351 344 351 344 346 348 342 347 346 346 346 343 343 344 342
334 335 340 340 343 344 341 340 349 350 353 353 349 347 350 347 346 347 345 349 348 347 345 345 347 349 348 348 347 346 347 347 347 350 351 352 351 347 349 349 345 345 347 348 348 346 344 342 344
336 338 340 340 337 340 338 340 346 344 348 354 351 349 350 349 347 346 346 348 349 347 344 345 347 349 348 347 348 349 347 350 349 351 349 351 348 350 352 349 348 343 345 343 347 344 347 343 340
335 334 337 337 338 340 338 342 347 347 347 355 352 351 350 350 347 346 346 348 349 346 342 345 347 349 348 348 346 349 347 347 346 348 349 350 351 352 351 349 350 343 347 347 342 343 347 344 340
334 332 334 338 337 338 339 341 346 349 352 356 351 352 351 350 348 347 347 349 348 345 344 347 350 350 348 347 348 349 348 348 347 349 351 351 351 351 351 351 350 347 343 344 349 347 345 343 342
335 335 334 335 336 337 337 336 351 349 352 354 351 352 351 350 350 347 348 349 348 344 344 348 352 351 352 351 345 352 351 349 349 346 352 350 349 350 352 351 350 347 351 345 347 349 341 349 343
336 336 337 337 336 336 335 335 342 339 340 341 348 347 351 350 350 349 349 349 348 346 344 346 352 353 351 352 353 351 352 350 352 352 349 349 350 347 350 349 350 344 345 350 349 347 350 340 344
336 335 334 334 334 333 335 336 339 340 345 346 346 344 351 352 350 349 349 349 349 347 345 346 351 354 354 352 353 353 352 350 348 350 348 348 349 349 348 342 347 350 350 351 350 348 343 346 346
334 335 333 333 332 333 336 335 336 342 343 344 348 347 342 352 351 351 349 350 348 348 346 345 349 354 355 354 355 354 353 348 348 349 348 350 350 350 354 352 351 351 351 352 351 349 343 349 344
329 332 335 334 335 334 335 337 337 343 343 343 341 343 346 347 348 350 350 350 348 348 348 346 348 354 355 354 355 355 355 353 345 350 351 349 349 350 351 353 352 352 351 352 349 349 349 349 348
328 330 332 333 332 334 336 336 336 342 341 339 330 331 332 332 334 341 347 350 350 350 350 349 349 351 354 355 354 355 355 355 355 352 352 351 350 352 352 355 354 353 354 352 351 350 352 351 348
326 328 330 332 333 332 333 332 335 337 334 329 324 324 325 323 324 327 341 347 349 349 350 350 350 350 351 353 354 354 355 355 355 355 353 353 352 351 350 353 353 355 353 354 352 352 349 352 351

GFSSGP_850_thetae_078.txt.gz
Theta_e
335 336 348 351 355 358 363 360 355 356 349 345 345 349 351 349 349 355 348 349 349 349 344 342 340 340 333 328 328 338 343 342 338 335 341 333 338 336 331 338 338 337 339 340 339 340 341 338 332
344 346 348 351 359 364 362 355 354 351 349 345 349 350 349 349 347 349 350 349 349 348 347 339 337 338 330 331 337 342 344 343 339 340 340 336 340 341 337 335 338 337 339 340 339 339 339 336 333
348 348 353 358 358 365 363 354 351 348 348 347 352 351 347 346 348 349 349 349 347 345 344 328 331 338 330 338 342 341 342 340 340 339 338 339 336 334 338 336 339 340 340 339 341 340 338 333 335
351 351 352 362 364 359 356 350 347 351 351 351 349 348 346 346 348 347 347 344 345 347 336 334 336 341 333 336 340 339 340 337 335 339 338 341 340 338 337 339 336 339 338 338 340 339 337 334 333
350 353 360 362 361 358 351 346 344 352 351 351 348 347 345 347 346 347 346 346 349 348 334 333 338 338 338 337 341 339 340 338 336 338 338 338 339 338 340 338 339 338 338 339 341 340 335 335 335
350 354 362 363 361 355 349 349 349 350 351 349 347 346 346 347 346 347 347 347 349 348 345 332 338 339 341 342 340 338 337 338 339 338 335 337 337 337 338 337 334 335 340 342 342 340 334 332 333
354 359 360 361 359 356 351 349 350 353 351 350 348 347 346 346 345 347 348 348 347 349 349 345 341 335 336 339 338 336 334 336 339 335 333 329 330 337 337 336 335 340 342 341 340 336 331 330 335
353 357 359 358 360 356 349 349 348 351 353 351 350 348 346 346 345 346 347 344 349 348 347 347 342 344 340 339 336 333 332 335 336 335 339 336 333 335 338 341 340 339 336 334 333 333 331 332 337
354 358 360 358 357 355 349 350 349 352 353 352 352 346 345 345 344 346 346 350 344 348 349 346 348 347 347 336 335 330 333 341 344 345 345 347 344 343 343 339 339 336 332 332 327 328 330 337 341
355 359 355 352 351 353 352 350 352 352 351 351 349 346 345 344 344 346 345 348 343 347 344 346 350 347 348 340 342 341 344 344 347 349 345 345 345 340 338 339 339 340 341 346 345 345 342 342 343
352 356 351 353 352 352 354 354 355 353 352 350 347 346 345 344 345 343 344 345 340 344 348 348 346 348 346 343 344 343 345 344 343 345 345 342 339 338 339 342 346 344 346 346 347 344 346 347 344
355 351 350 353 352 352 353 353 351 353 352 349 347 346 345 344 344 342 342 343 342 342 347 346 348 344 346 347 346 345 346 341 342 343 343 347 348 347 345 345 348 346 344 336 347 343 344 343 342
353 352 350 347 354 353 352 352 352 350 350 349 347 346 345 345 344 342 341 342 342 346 348 347 342 346 344 345 345 344 344 344 341 346 346 347 344 345 348 347 346 344 347 346 346 346 344 343 344
350 349 348 346 345 347 352 354 352 348 349 351 348 346 345 345 344 343 342 343 342 340 347 347 344 345 346 347 341 345 345 345 345 345 347 347 345 343 343 346 348 347 345 348 345 344 346 346 341
345 353 348 345 343 347 352 356 355 349 350 352 348 346 346 345 345 344 344 343 342 341 347 348 342 345 347 348 346 342 346 346 344 347 349 345 346 348 346 346 345 345 345 346 348 348 345 345 344
343 346 351 346 342 346 352 359 354 353 351 350 348 346 346 345 345 345 344 343 342 341 347 344 349 344 348 343 347 346 345 348 347 349 347 345 342 347 342 349 345 341 344 348 342 347 345 346 344
340 347 346 345 342 348 351 358 353 352 350 349 348 346 346 345 345 346 345 344 341 344 346 343 347 347 347 340 348 347 346 346 347 347 350 349 346 346 349 348 342 345 348 348 345 343 345 346 346
340 342 345 348 344 346 354 349 347 352 349 348 347 346 346 346 346 346 346 343 341 344 345 345 347 347 346 343 349 346 350 347 348 348 347 350 350 342 349 346 343 341 347 346 345 347 344 345 344
336 337 340 347 344 345 356 354 356 352 351 349 347 347 346 345 346 346 345 342 343 345 345 346 347 348 345 345 347 347 348 348 349 348 351 349 345 342 347 349 342 350 348 341 344 343 342 346 344
332 334 337 343 345 352 349 350 353 352 351 349 349 349 346 346 346 346 345 346 346 347 345 346 348 347 345 343 346 347 347 348 347 349 351 351 348 341 348 342 344 349 348 342 346 348 344 343 343
330 331 337 344 343 346 347 355 355 354 351 352 350 349 347 348 346 346 345 348 347 347 345 346 347 349 346 347 347 350 347 349 348 347 350 348 349 343 350 347 346 345 346 336 339 345 345 342 339
331 333 336 342 342 342 342 347 351 352 355 354 350 348 349 350 346 347 347 348 349 347 347 346 347 348 344 348 346 346 349 348 347 347 351 350 346 346 346 349 347 345 348 344 342 345 343 340 341
333 334 335 339 340 338 338 340 345 347 359 358 352 349 349 349 349 347 347 348 350 347 346 345 345 348 343 347 347 347 345 347 349 350 350 350 350 348 349 345 346 342 343 342 341 345 345 343 345
334 335 333 335 339 338 338 339 355 353 348 352 354 351 350 350 349 347 346 348 348 347 342 344 345 347 346 342 346 347 348 347 346 349 343 349 347 347 346 349 348 342 341 350 339 346 339 344 343
334 336 335 336 339 338 336 338 349 348 347 344 349 353 348 351 351 349 347 348 349 346 343 346 348 346 345 341 346 347 346 349 351 347 345 350 350 350 347 345 344 343 345 348 347 338 343 341 340
333 335 336 337 335 335 334 337 345 345 347 345 347 348 353 352 351 349 348 349 350 346 346 347 347 345 345 346 341 340 342 344 350 345 352 350 345 349 351 345 340 341 342 345 342 349 341 337 336
334 336 336 334 334 334 337 343 345 346 348 350 349 346 348 348 349 350 350 350 348 347 346 347 344 342 342 343 348 345 343 340 348 347 348 348 349 349 350 348 342 342 349 346 347 341 344 343 343
331 333 335 335 336 339 338 344 348 347 346 346 342 338 336 337 345 348 349 351 347 349 345 348 346 344 342 349 349 350 347 345 347 347 350 351 351 349 344 348 346 348 351 349 347 346 345 344 346
333 335 332 333 335 337 341 342 344 346 344 340 335 331 327 330 334 347 347 348 349 349 348 349 351 348 349 353 355 354 351 349 343 344 344 348 349 348 350 344 343 349 350 347 346 344 352 347 341
329 331 331 335 338 335 339 341 340 339 335 332 330 329 323 322 328 333 341 346 347 348 348 349 348 353 349 355 355 354 355 353 353 348 345 346 341 343 351 347 350 349 350 351 347 342 353 349 347

GFSSGP_850_thetae_081.txt.gz
Theta_e
335 344 346 349 352 355 356 355 354 353 351 346 348 349 349 347 349 353 348 347 341 343 340 340 340 338 329 328 335 341 340 336 336 339 336 338 332 334 339 337 338 340 339 341 340 336 333 336 340
339 345 344 349 355 360 357 355 354 352 350 350 348 347 349 350 349 349 348 347 343 343 341 340 337 329 334 340 340 341 340 338 338 338 339 340 340 334 337 338 336 339 340 341 338 334 335 341 341
348 350 351 354 357 356 357 354 352 350 351 351 348 347 349 349 349 349 348 346 344 342 340 337 333 329 332 339 338 340 338 338 335 336 338 336 338 335 335 336 340 338 340 341 338 333 335 340 341
351 351 351 359 363 359 356 352 349 352 351 348 346 348 349 349 348 348 348 346 344 335 329 335 332 330 338 337 337 338 337 337 337 340 339 339 337 338 338 338 338 337 339 338 335 333 330 343 343
350 352 357 360 360 354 348 345 346 353 351 348 347 349 348 347 348 349 344 344 338 330 333 337 336 331 335 338 337 337 337 336 337 339 340 339 337 337 338 338 336 337 340 340 335 334 339 340 342
350 353 360 363 358 350 346 346 346 352 350 347 347 347 346 348 347 344 345 345 344 334 334 337 340 338 339 338 337 335 336 338 337 336 336 337 338 338 338 335 336 340 341 342 334 332 334 340 342
352 355 360 360 358 354 349 348 350 352 347 346 347 346 346 347 345 346 346 347 345 333 329 335 336 336 338 336 334 331 337 337 332 331 331 335 335 335 332 333 338 341 341 339 331 330 333 341 343
352 352 358 359 358 355 348 350 351 352 349 346 347 346 345 348 347 348 347 347 345 342 338 334 330 335 337 334 329 331 337 332 333 332 331 334 334 335 333 340 340 336 333 332 330 331 333 339 341
352 355 359 357 354 352 349 350 350 352 352 348 346 346 345 347 348 347 349 349 348 345 343 340 342 339 333 328 329 336 338 340 343 344 341 339 339 339 339 336 333 328 327 329 331 340 341 342 342
349 354 355 352 350 351 349 350 353 348 353 351 345 345 345 347 346 346 347 346 347 349 348 346 345 338 335 340 335 342 343 345 343 341 341 337 338 338 337 336 342 343 342 336 335 339 341 341 342
345 354 352 349 349 350 351 350 353 352 352 347 345 345 345 347 346 346 345 342 346 348 348 348 344 340 341 343 343 343 343 344 343 343 341 338 339 339 340 339 344 342 341 343 343 343 345 344 339
353 351 350 351 352 352 354 353 352 351 351 346 345 343 345 345 346 347 345 343 346 347 346 344 345 343 346 347 345 344 340 342 342 342 344 342 341 340 344 346 347 339 335 342 339 343 345 342 341
350 347 351 352 352 353 354 354 352 351 349 346 345 344 344 344 346 346 342 344 346 347 346 343 341 346 348 346 344 343 342 342 343 345 346 345 345 343 342 344 344 344 344 343 343 343 346 341 341
345 345 346 352 351 351 352 352 350 350 347 346 345 345 344 344 343 342 343 344 346 346 346 343 343 345 344 345 345 344 344 341 344 344 345 344 346 345 342 346 344 342 342 344 344 343 345 342 341
350 344 347 349 352 352 353 354 354 349 350 347 345 345 345 343 343 342 343 345 346 347 346 344 344 344 345 345 343 345 345 345 345 341 343 345 343 343 345 345 345 343 346 342 344 345 345 342 342
347 347 351 346 346 354 351 358 350 346 350 348 346 346 345 344 343 343 342 343 346 347 347 344 341 344 346 343 343 346 344 346 346 346 344 342 343 344 345 344 343 344 346 341 343 345 346 343 344
334 341 346 348 346 352 351 356 352 348 350 348 347 346 346 345 342 344 342 341 346 346 344 344 342 342 342 346 345 346 345 346 345 345 345 347 341 344 344 345 343 346 346 344 344 345 346 345 344
336 338 339 345 343 352 348 347 350 349 350 348 347 346 346 345 345 344 343 342 341 343 345 346 347 344 338 346 347 345 346 344 346 345 345 345 342 347 345 342 346 346 347 345 343 345 344 343 344
332 336 339 345 345 348 347 344 345 348 349 349 347 347 346 345 346 345 344 342 341 342 341 348 347 346 340 345 348 346 345 345 346 345 345 343 343 348 346 342 342 342 346 344 344 344 345 345 344
329 329 334 344 350 350 347 346 341 339 347 348 346 347 346 346 346 346 344 342 341 343 341 346 346 346 345 340 348 348 346 347 347 346 346 345 344 344 347 341 346 342 344 346 343 344 343 344 342
328 327 330 344 344 349 350 355 347 345 351 348 347 347 346 346 346 346 344 342 341 343 344 344 347 347 346 337 347 350 347 347 347 346 345 349 347 344 347 345 345 346 341 344 344 345 344 341 341
326 327 330 344 343 349 350 353 352 355 351 349 348 348 346 346 346 346 344 344 345 345 346 340 344 347 345 343 346 349 346 348 344 346 347 347 346 343 345 342 345 346 344 336 345 344 343 339 340
327 328 332 340 340 341 349 349 352 353 355 351 350 348 346 346 347 346 346 347 347 347 346 346 341 344 343 346 347 347 347 348 347 345 351 350 346 347 347 346 347 346 346 341 346 344 342 342 344
328 329 332 336 338 341 335 340 352 357 354 353 347 348 348 347 348 347 346 347 347 346 346 346 345 342 341 346 346 347 347 346 348 349 347 349 343 346 346 347 346 342 343 341 340 345 342 343 343
327 330 332 332 338 342 336 339 352 351 351 348 346 338 346 349 349 347 347 347 348 348 347 346 345 344 340 346 346 347 346 343 342 348 347 347 347 346 346 346 347 342 337 346 342 343 340 342 341
327 329 331 335 335 335 331 350 348 344 342 341 338 344 349 351 350 349 347 349 349 348 347 345 342 342 338 339 346 344 346 344 349 347 343 348 348 348 348 346 345 343 342 347 340 340 337 338 340
327 328 329 331 329 330 342 348 346 340 341 343 342 345 344 348 348 350 348 348 349 347 346 343 342 339 337 339 338 345 344 344 346 345 347 346 346 347 350 349 346 341 339 342 343 343 335 337 337
323 331 330 330 336 335 351 351 354 349 345 335 331 332 334 339 347 349 348 348 349 349 346 344 344 341 339 339 340 338 339 339 342 347 347 347 347 348 348 347 338 342 347 346 344 340 340 340 341
331 331 332 329 331 332 345 347 342 344 336 330 326 325 329 334 337 346 348 347 350 348 348 348 347 345 340 340 340 341 343 344 343 344 349 349 348 347 346 341 341 341 347 349 346 345 345 343 340
326 331 331 329 331 335 342 343 339 335 331 328 325 323 324 326 332 339 346 344 343 347 346 347 349 348 346 343 342 342 345 344 342 342 340 348 349 348 347 343 341 344 346 348 347 343 342 350 348

GFSSGP_850_thetae_084.txt.gz
Theta_e
340 338 348 348 351 349 355 352 351 352 351 346 334 341 341 343 347 350 340 339 341 343 341 340 339 335 327 332 340 338 335 338 335 336 330 337 341 338 339 339 337 340 339 335 333 337 339 339 339
336 340 344 347 353 358 355 353 354 352 348 348 347 348 348 349 348 347 344 342 342 342 340 339 334 328 339 341 341 339 338 337 339 340 341 334 337 338 338 339 339 341 339 334 335 339 341 342 342
344 348 349 350 356 353 351 352 351 351 349 347 349 349 349 349 348 347 343 342 341 339 340 333 329 334 338 338 339 338 336 333 334 336 339 337 338 339 336 339 339 339 338 334 339 340 341 343 344
349 351 351 357 359 351 350 351 349 350 348 347 347 349 348 348 348 346 344 342 341 340 336 330 328 336 338 337 336 335 334 338 337 336 337 335 338 338 339 337 337 338 336 332 335 338 339 342 343
350 351 356 360 359 351 348 346 347 351 350 349 348 349 349 348 347 346 344 342 339 332 334 329 331 336 336 336 334 334 336 337 337 338 335 339 339 338 336 335 338 338 334 332 331 340 340 339 339
350 352 359 363 356 349 346 346 347 351 348 348 348 347 348 346 346 345 342 332 329 332 335 333 330 337 337 336 334 335 337 338 335 336 340 337 338 339 337 336 339 340 334 333 333 338 341 341 341
350 354 360 359 354 349 348 347 350 348 348 347 347 348 348 348 344 340 338 333 331 332 335 336 336 337 336 333 333 337 335 333 333 334 333 336 337 334 335 340 341 341 334 332 334 337 341 342 341
351 353 358 357 357 354 347 350 351 347 348 346 347 348 348 345 344 344 345 343 333 330 332 331 335 335 332 329 334 335 328 327 326 333 334 332 332 332 339 341 339 332 330 330 333 340 342 344 342
352 356 357 355 352 350 349 351 351 350 347 345 346 346 346 345 344 346 345 341 331 334 331 332 336 330 327 330 335 332 338 339 334 333 337 338 337 339 336 332 331 331 331 332 335 340 341 342 343
351 351 353 351 349 350 350 351 352 351 348 347 345 347 347 346 348 347 347 344 341 336 342 342 332 332 327 334 339 342 344 343 341 336 339 338 337 333 331 329 329 329 336 341 341 341 341 342 343
347 354 351 350 347 348 350 351 350 348 351 346 345 347 348 348 346 347 348 346 345 344 345 337 339 339 336 338 339 342 339 342 342 337 337 338 337 338 343 341 342 339 338 341 344 345 345 344 344
347 348 350 349 348 349 351 351 347 351 351 345 346 347 347 347 347 348 347 347 347 346 344 337 339 343 343 342 340 339 341 343 343 341 338 338 338 338 342 345 340 341 341 343 344 340 338 340 342
351 349 352 351 350 351 353 353 351 351 348 345 346 347 347 346 346 346 344 346 346 346 345 344 343 344 346 343 343 340 342 341 343 344 342 339 340 342 342 341 343 341 340 342 344 343 340 342 342
349 346 353 352 351 354 352 352 350 350 347 345 343 346 347 346 347 343 346 347 345 345 345 344 346 347 345 344 343 342 342 343 344 345 344 345 343 340 343 343 343 343 343 344 342 344 343 344 341
345 346 348 349 352 353 352 353 352 349 347 344 343 343 345 346 346 343 343 344 345 345 344 344 347 344 344 345 344 342 341 344 345 345 344 345 345 342 344 343 342 342 343 343 344 344 342 342 342
349 345 348 350 351 351 349 355 351 349 346 345 344 344 344 344 346 343 343 345 346 344 344 342 341 344 344 344 345 345 343 344 344 342 345 344 342 344 345 344 342 341 342 344 344 344 343 341 340
340 350 350 352 352 352 349 353 351 348 349 345 344 344 344 342 343 343 344 345 346 345 344 342 342 344 343 343 345 344 344 344 343 342 341 342 343 343 344 344 345 344 344 344 344 344 344 343 344
327 335 341 351 353 354 352 352 349 348 349 346 345 345 345 343 343 343 344 344 346 346 344 342 342 343 342 343 344 344 345 345 344 344 345 342 343 343 343 342 342 344 345 344 344 345 343 343 344
327 329 336 347 350 349 352 348 348 348 351 348 346 345 345 344 342 342 342 343 346 344 344 344 343 342 338 343 344 345 345 344 344 344 344 342 340 344 342 342 343 345 345 345 344 345 345 344 344
327 328 329 350 348 346 349 352 348 348 350 349 347 345 345 344 343 341 342 345 343 344 343 343 346 344 337 344 346 346 345 344 345 346 344 342 342 346 345 339 341 340 344 343 344 344 343 343 343
324 326 328 345 349 346 348 350 345 343 341 349 348 346 345 345 343 342 341 341 341 342 341 341 344 345 345 337 345 347 347 347 345 345 344 346 344 343 347 342 345 343 344 344 344 344 343 341 341
322 324 328 345 342 345 346 344 352 346 344 348 346 345 345 346 345 343 342 341 342 342 341 342 344 345 346 343 345 348 347 346 345 344 346 345 346 344 345 344 345 342 342 344 345 344 344 338 339
323 324 327 338 339 349 349 350 346 350 354 349 347 347 346 345 346 345 343 344 343 341 342 341 343 344 345 341 344 347 349 347 345 346 347 347 346 344 347 344 341 345 343 337 345 344 343 341 343
324 328 335 334 336 340 343 348 346 354 352 351 349 347 346 346 346 346 345 343 342 342 344 345 342 340 341 341 345 347 348 347 346 346 346 348 344 345 345 342 344 345 344 344 345 341 342 343 343
323 324 328 329 337 339 334 347 343 349 351 349 349 348 347 346 346 346 345 343 343 344 346 346 345 344 341 340 347 346 346 347 346 348 345 346 345 345 344 346 345 342 342 343 340 340 343 341 342
322 324 328 333 334 335 337 348 345 344 349 349 348 346 343 347 347 347 347 347 346 346 346 346 346 346 343 339 345 347 347 345 345 343 347 345 347 345 347 346 345 343 341 339 342 340 339 340 342
323 325 323 328 327 328 346 345 340 340 337 336 337 340 344 345 349 349 348 347 347 347 347 347 346 345 341 337 341 346 345 345 344 347 346 344 347 346 346 347 348 341 341 343 343 340 335 335 339
320 324 328 324 333 333 349 348 346 343 334 331 330 333 337 344 347 348 347 348 348 348 347 347 347 344 337 332 333 343 344 343 343 345 344 347 347 347 346 348 348 347 339 342 343 340 342 336 334
324 326 327 324 325 330 345 345 343 337 331 328 326 329 334 339 344 346 347 348 348 349 347 347 347 344 343 339 339 339 339 343 338 342 344 347 347 346 348 347 347 339 342 346 346 345 338 337 336
326 327 325 329 331 335 338 347 336 331 329 325 325 326 333 336 341 344 344 346 347 347 347 347 346 344 344 341 339 340 338 340 340 341 341 347 347 347 347 346 344 340 342 347 347 344 344 342 339

GFSSGP_850_thetae_087.txt.gz
Theta_e
334 334 338 347 350 350 355 353 349 352 347 333 328 333 336 338 344 347 337 337 341 342 342 343 340 329 329 338 337 340 337 330 329 338 339 335 335 337 338 337 340 339 331 330 336 334 331 336 330
336 340 345 346 352 355 354 351 352 350 346 335 329 343 346 349 347 341 338 340 342 341 341 339 331 335 341 342 337 340 341 340 339 332 336 338 338 337 338 338 340 339 333 337 339 340 340 339 341
336 345 348 348 349 354 353 351 350 351 342 331 344 348 349 348 345 339 338 342 342 339 338 333 335 341 341 339 340 336 336 337 340 338 334 338 336 339 337 338 339 338 334 336 341 342 343 343 343
344 348 352 355 355 348 348 351 349 350 348 348 348 348 348 347 342 340 340 342 340 339 335 332 336 338 339 338 337 339 335 337 340 339 336 338 338 338 338 338 339 338 335 341 341 341 342 343 343
349 351 356 358 353 349 347 348 348 350 350 349 347 348 347 346 345 340 341 340 339 335 329 329 337 336 337 335 337 336 338 338 337 340 337 338 339 337 336 338 336 334 333 336 340 340 340 339 340
349 351 359 359 357 350 348 347 347 350 349 347 348 347 348 346 341 341 341 340 337 332 329 330 335 336 336 333 339 336 339 339 337 338 338 337 337 340 336 338 335 333 332 335 339 339 339 341 340
350 355 359 357 354 351 348 347 349 348 347 347 346 346 348 346 342 342 341 337 331 334 331 330 337 336 333 334 337 336 334 333 335 340 338 339 339 335 337 339 338 333 331 336 338 341 340 340 339
349 351 358 355 353 351 348 349 348 347 347 346 344 347 348 347 344 340 331 329 334 336 335 336 336 335 329 335 336 328 326 327 331 333 335 339 333 339 342 341 339 332 333 337 339 340 341 341 340
352 355 355 355 351 350 348 351 349 347 347 345 346 345 346 346 342 337 332 331 334 335 333 336 335 329 329 335 329 333 330 330 332 333 336 331 337 340 339 334 332 330 331 336 340 342 343 342 343
349 349 352 350 346 349 350 351 350 347 346 347 346 346 345 343 343 344 337 333 331 332 331 335 329 327 332 333 338 343 338 335 338 338 337 339 336 331 330 331 331 331 331 339 341 341 342 342 342
347 352 352 347 347 350 349 350 349 345 348 346 346 345 344 344 345 344 338 332 333 338 337 332 328 329 337 340 342 340 341 338 338 338 336 333 332 331 332 330 337 339 338 339 340 341 342 343 343
347 347 351 348 349 350 350 350 350 347 349 346 344 345 344 344 346 345 340 336 342 342 334 338 334 335 339 342 340 339 337 338 337 338 337 337 342 339 340 340 337 340 342 343 345 344 340 341 342
349 351 353 348 348 351 351 351 349 350 350 346 347 346 344 345 347 347 344 343 345 338 337 342 341 341 340 339 341 340 342 341 340 338 338 338 340 342 340 339 340 341 342 343 340 340 342 342 341
347 351 350 350 348 352 352 349 350 347 348 346 347 347 347 347 346 347 346 346 345 341 337 342 344 345 343 342 340 341 340 341 343 342 340 340 341 341 342 343 342 340 342 340 342 342 343 340 340
349 351 349 351 351 352 352 352 351 350 347 347 347 347 347 347 347 346 343 344 344 343 341 342 344 344 344 344 342 342 342 342 343 343 344 342 340 341 343 342 342 343 342 341 344 343 341 342 342
347 347 352 349 351 352 348 356 350 348 346 347 346 347 346 346 347 346 344 343 344 344 341 344 344 344 344 344 343 341 342 344 344 343 344 343 342 342 343 342 341 342 344 343 344 343 341 342 342
329 347 347 355 351 351 350 354 350 348 348 343 345 346 347 346 347 344 344 344 344 344 342 343 343 343 344 344 344 343 342 345 343 341 343 343 342 343 344 343 342 341 341 343 343 343 341 342 343
329 340 345 354 354 351 352 352 349 348 349 344 343 343 344 346 347 344 343 344 345 342 342 344 343 343 343 344 344 344 343 343 343 343 343 342 341 342 343 343 343 343 344 344 343 343 342 343 343
326 327 328 348 352 353 353 352 351 349 350 345 344 343 342 343 346 345 342 345 345 343 343 343 343 343 342 341 344 343 343 344 344 344 344 343 341 342 344 342 341 345 344 343 344 344 343 343 343
326 327 336 350 348 350 352 351 348 348 350 347 345 344 342 341 344 344 343 345 345 345 343 342 342 342 341 339 341 342 343 345 344 344 344 344 340 341 342 342 342 344 344 344 342 344 343 342 342
323 325 327 349 347 346 350 351 349 348 347 349 348 345 343 341 344 345 345 346 345 344 343 343 343 342 341 337 342 344 345 346 343 346 344 341 343 342 344 341 341 341 342 344 344 343 343 341 341
323 322 328 349 344 351 345 351 347 346 344 344 348 349 344 342 342 343 345 345 345 343 343 343 345 344 344 339 343 343 343 345 344 345 345 346 345 340 345 344 343 344 345 343 342 344 343 340 339
323 322 325 345 338 343 348 344 342 344 345 344 348 348 345 343 341 343 344 343 343 342 342 341 342 344 344 344 337 344 345 345 346 344 345 344 345 341 344 341 344 344 339 341 344 343 344 341 343
322 324 327 329 332 342 340 342 343 349 346 346 348 346 344 344 342 342 344 343 342 344 343 341 342 344 344 344 338 343 347 346 347 345 345 346 346 344 344 343 341 341 341 340 342 344 343 342 343
321 322 327 338 339 340 335 344 340 343 347 347 347 346 345 344 344 342 342 343 343 342 343 342 342 343 344 342 338 341 345 346 346 346 346 345 344 343 346 344 341 341 342 344 343 343 342 342 343
318 319 325 333 335 336 338 343 344 339 345 348 347 346 346 345 345 344 344 342 344 343 342 342 344 343 343 341 340 338 345 345 345 345 346 345 344 344 345 345 345 345 343 342 343 341 340 342 341
321 323 321 323 324 328 344 343 342 338 333 338 341 342 342 345 347 345 345 343 343 343 341 343 345 345 344 343 341 339 344 344 344 344 344 345 346 345 345 345 345 343 341 340 340 342 341 339 338
320 320 324 322 331 332 346 347 343 344 336 334 336 335 338 341 346 348 345 346 345 343 343 344 345 345 345 345 343 340 342 344 344 345 347 345 344 345 346 345 347 348 347 341 339 341 341 337 334
321 325 323 321 323 331 345 343 340 338 332 330 331 332 338 341 343 345 346 347 347 346 345 346 346 346 346 345 344 341 341 345 344 344 346 344 344 346 346 347 346 347 348 341 340 343 340 337 338
317 320 323 326 330 330 334 340 332 329 327 328 328 330 335 338 341 343 345 347 347 347 347 346 347 347 347 345 341 341 341 342 344 342 342 345 345 346 345 347 348 347 341 340 345 345 346 345 338

GFSSGP_850_thetae_090.txt.gz
Theta_e
333 335 341 347 348 349 354 352 348 341 337 331 327 329 332 340 343 342 337 337 342 341 341 343 335 327 330 334 341 339 330 328 339 338 337 337 338 338 339 340 338 336 336 338 329 337 335 335 337
341 345 345 347 351 354 353 350 351 349 341 329 329 337 347 348 345 339 338 341 342 340 342 339 327 336 340 337 339 340 340 335 335 339 337 335 337 337 337 340 338 338 338 338 334 335 332 333 333
339 346 348 348 349 353 353 349 351 346 335 328 335 347 349 348 342 340 338 342 341 341 339 330 338 340 340 339 338 339 339 340 336 334 337 336 338 336 339 340 339 340 340 340 341 340 341 341 340
346 347 350 350 351 349 350 350 349 350 331 329 348 347 347 347 337 339 340 342 340 338 333 337 340 339 338 338 341 335 338 338 339 339 339 337 336 337 340 339 339 338 340 341 341 342 343 340 339
348 351 356 354 348 349 349 349 348 349 349 347 347 347 347 343 342 340 341 341 339 336 331 335 337 337 337 338 337 338 337 337 336 335 338 337 338 340 341 342 340 339 339 339 340 339 339 338 338
349 350 359 358 352 347 348 348 349 348 349 347 347 345 345 345 340 341 341 339 338 329 330 339 341 341 338 337 337 339 337 337 339 338 339 338 339 339 337 342 341 334 336 338 338 339 340 340 338
349 354 358 356 354 351 350 347 348 348 347 347 346 346 347 344 341 341 339 339 333 329 331 340 342 338 338 337 340 340 337 337 338 337 336 338 340 338 338 342 343 331 337 337 339 340 339 339 337
348 352 357 353 353 353 349 348 349 346 346 345 345 344 347 343 341 341 340 336 334 331 331 337 336 333 334 338 339 337 335 334 338 337 339 339 337 339 340 338 340 331 335 338 339 340 340 340 340
351 355 357 354 351 351 348 349 347 346 345 346 346 345 344 343 342 342 339 333 335 336 335 337 335 329 335 329 334 331 334 333 336 339 337 335 341 342 341 338 334 333 335 338 340 341 341 341 339
348 349 352 350 346 350 349 349 348 345 346 345 345 344 344 343 339 334 330 333 335 333 336 335 330 330 332 338 337 331 332 334 335 333 335 339 339 336 331 331 329 331 337 340 341 342 342 342 339
348 351 351 347 347 349 351 350 347 346 346 344 345 346 344 341 336 333 332 332 332 331 336 330 327 333 333 342 342 336 339 338 337 338 336 330 328 330 331 332 332 336 339 340 341 342 342 342 342
345 347 350 347 349 350 350 349 346 347 346 342 340 339 340 341 342 340 335 331 333 335 332 328 331 337 341 340 340 337 337 337 336 332 332 332 337 334 335 338 339 340 341 343 341 338 342 342 341
346 350 348 349 349 349 349 350 347 347 345 343 342 342 343 344 344 340 334 333 339 335 336 332 337 339 341 340 339 337 336 337 337 335 340 340 341 339 339 340 340 341 343 342 338 341 342 339 339
347 350 348 349 350 350 350 350 346 346 347 345 344 343 344 345 345 340 337 342 339 336 339 340 338 340 340 340 340 341 341 340 339 338 339 341 341 341 341 340 340 341 342 342 340 342 341 341 341
346 349 350 348 350 351 350 352 350 348 346 346 345 344 343 344 346 344 340 343 339 337 341 343 343 339 341 340 341 339 341 342 343 342 341 340 340 343 343 342 341 341 340 341 342 341 341 341 342
346 346 352 351 351 350 349 355 351 349 346 347 347 345 345 344 346 345 344 343 342 338 339 343 344 342 342 343 341 340 340 342 343 343 343 341 342 342 342 342 341 341 342 341 343 342 341 341 342
335 345 348 354 350 351 351 352 351 347 347 346 347 346 346 346 346 346 343 344 344 342 341 343 345 344 344 343 341 341 342 343 342 342 343 342 341 342 343 341 342 342 342 342 343 343 342 341 342
336 341 343 353 349 352 353 350 349 348 347 346 346 346 346 347 346 345 344 344 344 344 341 343 343 343 344 343 343 342 342 345 343 341 342 343 341 342 343 342 342 342 343 343 343 342 342 342 343
329 331 334 344 349 353 353 350 350 347 348 345 346 346 346 346 345 345 345 343 344 345 342 343 343 343 343 343 343 343 342 343 343 343 345 343 340 340 342 341 342 345 343 343 344 343 342 343 342
325 326 346 349 351 350 346 351 347 348 349 344 343 343 346 347 346 346 346 343 344 344 342 344 343 342 342 341 341 342 343 344 344 345 343 344 341 340 342 341 342 343 343 343 342 344 343 342 341
323 325 327 348 347 348 349 352 351 347 348 349 344 343 343 343 345 345 346 343 344 344 343 342 342 342 342 341 341 342 342 343 344 343 345 344 342 340 342 340 341 341 343 343 342 342 342 342 339
324 321 329 349 348 350 347 355 350 348 348 346 348 345 343 342 343 345 345 343 343 344 343 342 342 343 342 338 340 342 342 343 343 345 345 342 344 341 343 341 342 343 341 342 342 342 342 341 340
324 321 326 346 340 345 348 344 337 347 349 347 346 348 343 342 342 343 344 344 343 344 344 342 342 343 341 339 340 342 342 345 345 345 345 345 345 343 343 344 341 343 342 343 342 342 344 341 342
323 322 326 329 334 343 342 343 339 346 346 346 345 346 347 342 342 342 344 343 344 345 344 343 343 344 343 343 341 336 342 344 345 345 344 344 344 342 342 343 341 344 342 338 338 343 343 342 342
319 318 326 338 340 340 334 342 337 342 342 342 343 345 347 343 341 343 345 343 344 345 343 343 343 343 343 343 344 338 342 346 345 345 345 345 346 342 341 342 341 341 342 341 338 343 341 342 342
317 317 324 339 338 338 338 341 339 337 339 346 345 347 344 343 341 341 344 344 343 344 345 344 342 343 343 343 343 341 339 344 345 345 345 346 346 343 343 344 344 340 343 341 343 343 343 341 341
320 318 317 322 322 333 339 341 340 338 339 341 342 344 345 344 343 341 342 344 343 344 344 343 342 343 344 343 343 343 338 342 344 344 343 343 345 345 343 344 342 344 345 344 341 342 342 339 337
320 319 324 320 329 331 344 343 339 344 340 340 338 338 340 345 345 343 342 343 344 343 345 342 343 343 344 344 344 343 342 341 344 344 343 343 344 346 345 345 345 344 344 344 341 340 339 341 340
322 325 319 320 322 334 342 341 337 338 337 337 335 336 339 340 344 345 344 344 342 342 343 343 343 344 344 344 345 344 344 342 344 345 344 345 345 344 344 345 345 345 346 347 347 339 342 342 340
318 319 320 324 329 329 332 335 331 331 329 332 332 334 337 341 343 343 344 346 345 343 344 343 343 344 345 345 345 343 345 342 342 345 343 343 344 344 344 344 345 347 347 347 345 339 342 342 340

GFSSGP_850_thetae_093.txt.gz
Theta_e
333 339 345 348 349 352 356 354 348 336 333 330 328 328 338 344 345 337 336 339 341 336 342 342 332 327 331 335 342 330 328 338 337 336 336 337 337 339 340 340 337 342 327 334 335 338 339 339 340
338 345 346 348 351 357 356 351 340 337 332 329 330 333 345 350 344 338 339 341 341 339 342 332 328 338 337 339 338 336 330 337 338 336 335 336 337 338 339 336 339 336 332 331 331 328 330 333 321
343 347 349 349 347 355 355 352 351 344 331 330 343 347 349 348 341 342 339 341 341 341 338 328 338 338 338 340 340 339 339 332 338 337 337 337 338 340 340 337 337 338 339 337 337 341 339 338 336
346 348 349 349 348 350 349 350 349 336 329 337 347 349 347 347 343 339 341 341 341 339 331 337 336 337 344 342 337 336 338 339 334 337 337 339 339 340 340 337 338 339 341 340 340 340 338 337 335
347 350 349 350 349 349 350 350 350 337 330 340 348 348 346 342 342 341 341 341 338 334 343 341 337 337 336 336 335 337 339 338 339 337 337 337 339 340 339 338 339 338 339 339 339 338 337 336 334
349 350 358 354 349 348 350 349 350 349 345 346 347 345 345 344 341 343 343 339 336 333 337 339 338 338 335 337 338 337 337 337 336 339 338 340 340 341 341 339 338 337 338 338 339 337 337 333 329
349 354 357 351 353 349 351 349 349 350 349 348 346 344 345 346 343 342 343 340 330 330 341 342 340 338 339 338 339 338 337 338 338 339 338 339 339 339 340 339 335 337 338 339 339 340 339 337 334
347 352 356 354 352 355 349 348 349 348 348 346 344 344 345 346 342 342 340 336 329 331 342 342 340 340 339 339 337 333 336 338 337 336 339 337 339 339 340 339 332 336 338 339 340 340 340 340 338
350 356 358 353 351 353 349 350 349 347 346 346 346 341 344 343 343 343 340 335 331 332 339 342 332 335 338 338 338 338 334 339 338 339 337 340 340 341 342 340 332 334 338 340 341 341 339 338 338
349 355 354 349 348 351 350 349 347 346 347 347 347 345 344 343 344 344 339 335 335 334 338 336 329 335 339 339 336 336 337 336 338 333 338 340 340 340 339 331 332 337 339 341 341 341 342 342 340
349 354 351 349 348 349 349 349 346 346 347 346 346 344 345 345 345 344 340 334 334 334 336 330 331 333 341 336 336 336 334 333 334 338 337 335 331 330 329 331 336 339 340 341 341 341 341 341 341
348 349 350 347 349 350 349 348 345 345 347 345 345 343 345 345 343 341 339 334 331 335 331 327 333 335 342 340 338 338 337 338 336 330 329 330 331 334 335 336 338 340 342 339 339 341 341 340 342
348 350 348 349 350 349 349 347 346 348 345 345 346 345 344 342 340 336 335 332 333 333 328 330 337 340 339 338 337 338 337 334 332 333 337 338 336 338 339 340 341 343 340 337 342 341 339 339 340
348 350 349 349 350 348 347 347 346 346 344 345 344 344 344 343 342 337 333 334 337 333 330 338 339 339 339 337 338 338 337 336 339 340 341 340 339 339 340 340 342 342 340 339 340 341 341 341 342
349 351 350 350 350 350 348 350 348 347 345 344 344 344 345 345 345 339 333 338 337 336 335 337 339 339 339 340 341 341 341 339 338 340 340 340 341 342 340 341 340 341 340 340 341 341 341 341 340
349 351 355 350 349 349 349 355 349 347 346 345 345 345 345 346 345 338 338 341 337 339 340 339 340 340 340 340 340 340 343 343 343 341 340 340 342 342 342 342 341 341 340 342 342 341 341 342 342
345 354 353 353 349 350 350 351 349 347 347 345 346 345 345 346 347 343 341 343 338 339 342 343 341 342 342 341 341 340 342 343 342 343 343 342 342 342 342 341 342 342 342 342 342 341 340 341 342
350 349 350 354 352 351 351 353 349 348 348 347 346 346 346 346 347 345 343 343 343 338 339 343 344 344 345 343 340 341 343 343 340 341 342 341 342 342 343 342 341 342 343 342 341 340 341 342 343
344 345 345 345 350 351 351 353 350 347 348 347 347 347 346 346 347 346 345 343 344 343 341 341 345 344 344 343 342 341 342 343 343 342 344 343 340 341 342 342 343 344 343 342 343 342 342 342 342
331 338 337 351 350 350 350 351 347 348 347 347 347 347 347 347 347 346 345 344 343 344 343 342 343 343 343 343 343 343 342 343 343 344 344 344 340 340 342 340 340 343 343 342 343 343 342 341 341
328 331 350 349 349 345 346 348 348 348 349 346 347 346 346 347 347 347 346 345 342 344 344 342 342 341 341 342 343 344 343 344 344 344 344 344 344 340 341 340 341 343 343 343 342 342 342 340 340
330 327 335 351 350 354 346 352 346 348 350 349 346 345 346 347 347 347 347 345 343 343 344 342 342 341 342 342 343 343 341 342 344 343 345 342 342 341 341 340 340 341 340 342 342 342 342 340 341
330 325 331 348 347 350 347 350 345 348 351 352 349 346 344 344 346 347 346 345 344 342 344 343 342 342 343 343 340 341 342 343 344 344 345 344 345 344 341 343 342 343 343 343 342 342 343 341 343
326 330 335 341 344 343 348 347 344 352 352 350 348 348 346 343 344 345 343 344 345 342 344 343 342 342 343 343 339 341 343 343 345 344 344 345 343 344 341 344 341 344 341 340 340 341 342 342 342
324 324 334 337 341 334 339 350 343 347 345 346 346 348 348 344 344 347 344 344 345 344 343 344 343 342 343 342 341 341 340 344 344 344 344 344 344 343 340 343 341 343 342 341 337 341 342 342 341
325 326 331 337 340 339 341 343 344 342 342 345 347 346 348 346 344 345 345 343 343 344 343 344 343 343 343 343 342 343 340 341 345 345 345 345 345 344 340 342 341 341 341 341 342 340 343 341 341
323 324 327 333 331 338 343 345 344 342 344 346 346 345 347 347 345 345 347 345 344 344 343 345 344 343 343 343 343 344 344 339 343 345 345 344 345 344 343 342 342 342 343 344 341 343 342 342 341
324 324 327 327 336 338 347 348 346 348 345 343 344 343 345 346 344 342 343 346 345 343 344 344 345 346 345 344 344 342 341 340 340 345 344 344 344 345 346 344 343 341 343 343 341 340 341 342 342
325 326 326 329 331 334 339 344 344 346 345 342 340 340 340 342 343 342 342 342 345 343 343 344 344 343 344 344 344 345 342 341 341 343 344 345 345 345 345 345 345 345 345 345 345 346 342 340 339
322 327 329 328 334 338 338 340 336 339 342 340 339 340 339 342 343 342 342 342 342 343 344 343 343 344 343 344 343 344 344 343 342 341 342 344 343 345 344 344 344 346 345 344 345 346 341 340 340

GFSSGP_850_thetae_096.txt.gz
Theta_e
334 343 347 351 354 353 354 353 340 338 338 335 332 333 341 346 342 345 342 346 346 345 346 344 335 327 331 343 332 328 335 334 332 334 335 337 339 340 337 339 331 338 340 337 339 339 340 332 320
342 346 349 350 354 356 356 345 340 338 334 332 332 343 345 348 341 342 345 347 345 348 349 342 329 334 339 337 334 330 338 338 336 335 336 338 338 337 332 337 338 337 339 330 330 333 323 322 327
346 348 353 349 352 355 356 341 342 334 332 336 338 348 350 342 342 345 346 347 347 349 343 338 340 338 339 339 339 338 333 338 336 335 336 337 339 338 339 338 339 336 335 341 340 339 340 335 332
348 352 345 351 356 354 351 347 339 333 335 343 346 350 346 341 345 346 348 348 349 345 347 342 340 342 342 338 335 339 338 336 337 337 337 338 339 338 339 339 341 340 340 340 337 337 334 333 334
349 346 350 352 354 352 350 346 336 338 343 349 349 351 344 345 346 348 347 348 346 344 346 347 340 338 337 336 336 337 338 337 336 338 338 339 340 340 338 338 339 339 338 337 336 335 333 331 327
351 350 353 357 352 351 350 349 338 337 337 347 347 344 344 346 347 348 347 345 343 344 346 347 337 337 337 339 337 337 337 337 338 338 339 340 340 340 339 339 338 338 338 336 335 333 330 329 327
352 356 359 354 352 351 351 351 348 340 342 344 345 346 345 346 348 347 346 342 343 343 346 346 346 340 338 339 337 338 338 337 338 339 340 340 340 340 337 334 337 338 338 339 339 336 336 333 329
351 353 355 352 353 352 350 351 349 349 350 348 346 346 346 347 347 347 345 341 342 346 348 345 346 347 347 345 335 337 337 339 338 339 338 338 340 340 332 334 338 339 339 341 340 338 336 331 330
350 358 358 356 350 354 351 352 351 350 350 348 348 341 344 347 347 347 344 341 343 345 346 343 343 346 342 346 337 339 338 338 338 339 339 347 349 346 345 338 336 338 340 341 339 339 338 336 331
352 358 356 352 348 353 351 351 351 350 350 348 342 344 346 346 347 345 343 342 343 345 344 341 344 344 345 341 348 345 346 347 347 347 350 350 348 347 343 334 338 340 341 341 341 342 343 346 346
352 356 353 350 349 350 351 351 349 350 351 349 346 346 346 346 346 344 343 343 342 345 343 342 345 347 344 343 342 345 345 344 346 348 349 348 345 344 343 343 345 344 345 346 346 346 346 345 346
351 351 351 349 351 350 351 350 349 348 347 347 345 345 346 346 345 343 342 343 343 345 342 343 345 347 346 344 342 343 343 344 345 344 343 345 344 345 345 345 345 346 345 346 348 346 341 345 348
351 351 350 350 351 350 350 348 347 348 346 346 343 345 346 345 344 342 341 342 344 343 340 343 346 347 347 346 344 344 345 343 341 344 345 345 346 347 347 348 346 345 346 347 348 346 345 345 346
350 350 349 350 350 349 348 347 347 347 345 344 344 345 344 344 343 342 340 342 344 342 341 345 346 345 347 346 347 346 344 343 343 345 345 346 346 347 347 348 347 345 345 346 346 346 345 344 344
348 352 350 351 350 349 348 350 351 346 345 345 345 344 343 343 342 341 340 344 343 342 342 345 346 346 346 346 346 346 344 344 345 346 340 340 347 340 347 348 347 346 344 346 346 346 345 343 342
353 353 358 352 351 350 348 355 348 347 344 344 343 345 345 345 341 340 342 343 343 342 343 345 344 346 347 347 347 348 348 347 346 346 346 342 342 342 347 347 347 347 347 347 346 345 343 343 343
351 358 356 356 349 351 349 352 351 345 345 343 344 344 345 344 342 343 343 344 344 345 345 346 346 346 347 344 347 348 347 349 348 348 347 342 343 342 348 348 348 347 347 347 345 345 346 345 344
353 356 356 358 353 348 352 346 351 347 345 345 344 344 345 344 344 344 345 346 345 346 347 347 348 348 347 347 346 348 348 349 348 349 348 341 347 342 347 347 347 349 348 347 346 346 346 346 346
347 349 353 353 352 351 352 351 351 349 348 346 344 344 344 344 345 346 346 346 347 346 347 349 349 348 346 348 348 348 348 348 347 349 342 341 346 342 342 348 345 347 349 346 349 346 348 344 342
343 350 351 351 352 352 351 352 350 349 348 348 344 343 344 344 345 346 347 347 347 348 347 348 350 345 345 349 349 349 348 349 349 349 346 347 343 340 345 347 348 348 348 348 345 344 346 344 344
339 346 345 353 350 348 351 351 348 346 347 348 346 344 345 346 347 347 347 347 348 349 350 350 350 348 344 349 348 343 349 349 349 349 349 347 344 346 344 341 349 344 348 348 347 347 344 344 346
338 334 345 353 351 354 346 354 346 344 348 348 347 347 346 347 347 347 348 348 348 349 351 351 350 349 343 341 348 344 344 346 347 350 350 350 345 348 346 342 341 342 348 349 346 348 347 346 347
335 331 339 344 348 350 351 350 348 345 347 352 350 346 345 345 346 347 348 348 348 348 350 351 349 346 348 342 347 346 344 347 347 350 348 351 345 347 348 342 340 341 347 345 351 345 345 347 349
330 332 336 342 346 351 346 345 346 347 347 346 349 349 347 346 346 346 347 349 349 349 350 350 348 341 342 342 341 344 349 347 344 347 350 351 351 350 347 347 340 343 347 343 346 344 343 349 346
331 334 337 340 343 342 346 345 343 341 348 346 349 349 349 346 346 346 348 349 350 350 350 350 349 342 342 343 347 345 347 344 348 347 345 350 348 347 349 347 342 346 342 338 342 340 347 344 350
332 333 337 342 343 340 339 347 344 346 346 347 349 349 349 349 346 346 348 346 349 350 350 345 346 350 347 345 343 344 343 345 346 349 347 345 351 349 350 346 347 348 343 342 341 345 347 348 346
331 333 333 335 337 339 341 340 345 345 347 348 349 348 348 350 348 346 349 350 350 349 349 343 343 349 352 350 347 343 342 341 348 346 344 347 346 352 349 348 348 348 346 346 343 347 345 351 346
327 329 334 334 339 339 340 341 340 350 350 348 350 349 348 350 350 348 348 350 348 345 344 342 349 347 345 345 350 343 345 343 345 346 343 345 350 344 346 349 349 349 348 346 341 348 346 349 349
326 327 327 332 334 336 338 341 347 348 350 349 347 347 350 351 350 349 350 351 351 347 344 344 344 345 349 346 346 345 345 348 347 346 347 345 345 344 344 345 344 348 345 344 343 346 349 350 349
326 326 328 329 335 334 336 343 344 347 347 347 344 344 344 345 346 347 349 349 349 349 344 343 343 343 343 344 343 344 345 345 348 347 347 347 343 343 344 344 344 344 349 351 345 345 350 350 349

GFSSGP_850_thetae_102.txt.gz
Theta_e
339 348 349 351 358 360 349 345 341 340 339 337 343 344 345 345 344 348 346 346 346 347 341 337 329 328 331 330 331 333 332 337 337 337 339 338 329 334 340 338 339 339 339 340 327 321 326 331 329
345 349 351 353 359 357 349 343 341 340 337 346 345 342 345 345 345 346 345 347 347 347 345 329 334 340 333 330 337 337 335 337 338 338 339 339 338 334 338 336 336 332 328 324 325 329 331 333 336
345 350 355 349 350 356 346 342 341 336 337 347 347 343 344 344 345 346 348 348 346 346 342 336 339 340 340 332 339 339 337 337 338 338 339 339 339 337 338 336 339 339 339 339 337 333 330 333 331
350 352 347 353 354 348 343 341 337 339 344 345 344 344 346 346 346 347 348 344 347 348 335 337 338 338 338 337 334 338 337 337 336 339 339 338 340 340 340 340 339 336 337 337 333 338 327 329 336
347 348 355 356 355 344 342 338 338 344 349 343 343 344 346 348 348 347 343 348 347 347 337 340 338 336 334 337 335 338 338 336 337 339 340 340 339 339 338 340 337 338 334 335 335 326 326 329 331
350 347 356 360 350 345 340 338 342 348 349 348 343 344 347 349 344 344 348 347 347 347 342 335 336 335 335 337 336 336 336 336 338 339 339 338 338 338 339 337 335 334 331 328 328 326 324 328 332
351 356 360 354 350 345 341 340 349 347 345 343 344 346 347 347 345 347 346 345 347 346 345 339 338 337 337 339 338 336 335 337 339 339 338 337 337 338 336 337 335 333 333 331 328 326 325 326 334
352 353 358 356 352 351 342 345 347 345 347 344 344 348 348 347 348 346 346 346 346 346 345 345 347 344 340 337 336 337 337 338 339 338 337 334 334 337 338 340 337 336 329 326 325 325 325 325 338
353 355 357 355 350 351 343 343 344 346 346 346 347 346 346 346 342 341 344 346 341 345 347 344 343 345 341 336 337 336 337 337 338 341 342 341 335 344 344 340 339 338 338 331 326 342 342 338 336
354 358 354 349 349 349 348 346 348 349 348 347 345 346 345 345 342 341 340 346 345 346 347 346 344 345 342 342 338 345 345 346 349 347 345 349 347 346 338 339 340 341 342 344 344 342 342 340 343
352 357 353 352 352 348 350 348 349 348 350 346 345 345 344 343 342 341 341 342 343 345 347 344 343 347 343 343 347 345 347 347 345 345 346 343 339 337 338 339 345 339 343 343 345 343 343 346 345
352 351 353 353 353 349 350 350 348 348 346 345 346 346 343 344 342 341 340 342 343 342 347 345 346 342 344 346 347 346 348 344 334 346 345 346 346 344 345 345 335 345 347 341 342 343 339 340 344
352 351 352 352 351 350 351 351 350 349 346 346 346 346 343 343 342 341 342 341 342 342 348 345 344 341 344 346 344 345 346 347 342 346 346 347 344 344 347 343 344 345 344 347 344 347 347 345 342
352 351 351 352 351 351 350 347 348 347 346 345 346 345 343 343 342 342 343 344 341 342 348 344 345 345 346 345 344 344 344 346 346 347 348 346 345 343 343 346 346 346 346 345 342 339 345 342 342
349 354 352 354 354 352 348 348 349 344 345 345 345 344 343 342 342 342 343 344 341 342 347 346 343 343 346 344 346 344 344 346 345 345 346 348 346 342 344 347 346 338 345 344 346 343 341 342 343
353 353 359 354 353 349 349 356 349 344 344 345 344 344 344 343 342 342 344 344 342 344 344 345 347 345 343 342 345 344 347 343 347 345 346 346 347 347 349 347 345 347 349 346 346 345 343 343 344
356 361 359 357 352 352 352 355 349 344 344 344 344 344 344 343 341 341 345 345 344 345 343 346 343 347 346 349 347 349 345 348 348 346 347 348 348 345 347 347 341 344 348 343 345 345 343 346 344
356 359 357 359 355 352 353 351 349 346 344 343 344 343 342 342 342 341 345 345 345 345 344 347 344 345 346 347 345 348 348 346 346 347 349 344 349 351 348 350 342 342 349 347 345 344 345 346 346
346 356 357 348 347 352 352 350 348 349 349 347 344 343 343 343 341 342 344 345 346 346 344 345 344 344 344 348 348 347 346 348 349 347 350 349 345 348 347 344 346 349 348 344 340 348 345 342 343
349 350 353 343 340 350 351 351 347 347 347 345 347 344 343 341 342 343 344 345 346 346 346 342 348 344 344 346 348 348 347 348 348 348 348 344 348 342 349 350 349 346 348 339 346 350 352 342 345
348 349 347 345 340 343 351 353 352 348 345 344 344 346 345 343 343 344 344 343 345 347 346 347 347 345 341 348 348 347 347 349 349 347 350 348 348 344 347 349 348 350 349 343 344 348 349 343 340
352 345 345 345 343 350 350 358 352 346 345 342 343 345 347 346 343 344 345 344 344 345 347 348 348 346 345 349 349 348 348 345 348 347 349 349 350 348 348 348 343 349 338 344 349 347 347 348 347
341 345 346 345 344 347 352 353 351 350 348 346 343 344 346 346 345 345 342 344 345 345 346 347 347 348 348 349 349 346 343 349 350 349 347 348 350 349 349 349 348 343 348 349 347 345 345 349 349
336 342 345 344 346 355 351 353 356 354 351 348 343 344 347 345 342 344 344 343 348 348 348 351 344 348 350 347 347 349 350 349 349 346 348 349 349 348 348 348 346 346 344 343 350 346 344 348 346
338 340 350 355 354 356 351 351 356 350 347 347 344 345 345 346 345 345 345 346 347 350 345 351 348 347 348 347 344 348 348 346 346 345 350 349 349 350 349 348 347 346 345 352 349 349 344 343 341
336 340 340 351 352 356 351 353 353 346 343 342 343 344 346 345 347 344 346 347 349 351 352 351 350 347 349 348 349 347 347 346 348 350 350 345 349 345 349 349 345 347 347 345 346 345 342 349 344
333 335 337 339 342 348 351 351 348 342 342 343 344 345 342 340 345 346 347 347 344 350 354 343 351 349 350 351 347 348 349 347 349 348 348 352 350 345 348 348 350 345 352 347 349 342 348 348 348
331 333 335 342 344 348 348 350 351 347 346 345 346 345 340 340 345 344 345 347 343 342 347 352 346 350 351 353 350 347 338 338 348 349 346 349 348 346 341 347 349 348 347 349 349 346 349 348 341
328 329 331 334 340 343 346 351 347 348 345 346 347 348 347 349 350 346 345 346 345 340 349 349 352 347 351 353 353 351 349 349 344 344 345 349 349 347 346 349 350 350 346 345 345 342 348 349 347
327 328 329 333 337 337 338 347 344 345 348 347 351 349 353 350 349 347 347 348 352 353 352 350 348 346 341 343 346 349 347 347 350 349 348 348 349 348 348 345 347 348 349 350 349 343 345 349 347

GFSSGP_850_thetae_105.txt.gz
Theta_e
339 347 347 349 355 357 345 343 338 346 347 344 344 344 345 344 345 349 344 345 339 333 337 333 330 328 329 329 334 338 335 335 337 337 327 329 336 337 338 338 338 338 332 320 322 329 328 339 341
345 350 347 347 355 356 346 341 343 348 345 345 344 347 347 347 345 345 345 345 338 338 329 327 335 335 328 332 333 331 335 336 337 338 336 336 338 337 337 331 326 324 323 326 325 331 329 332 341
348 351 350 347 350 354 345 339 338 347 343 344 345 344 346 346 347 347 347 347 346 335 331 338 337 330 332 336 335 334 335 336 338 338 338 335 336 334 335 337 337 336 335 332 329 331 332 335 339
348 351 347 350 353 351 341 336 344 347 343 345 346 347 346 346 348 347 347 346 346 342 335 338 338 338 333 338 337 336 336 336 338 338 339 338 337 338 340 337 337 335 335 337 327 328 333 336 342
347 348 353 355 356 343 338 336 347 347 345 345 347 349 349 346 346 345 345 346 345 336 337 337 336 337 339 336 337 336 336 337 339 337 338 339 338 338 338 333 334 336 336 334 326 328 335 341 340
349 346 355 358 353 340 338 340 349 347 344 347 349 348 348 347 346 346 348 347 342 337 335 333 338 339 338 339 338 337 338 338 339 339 338 338 338 339 335 336 337 329 328 324 325 327 331 340 339
351 351 356 355 343 340 339 344 349 348 344 347 349 348 347 344 346 346 345 347 344 334 332 335 335 336 336 336 335 335 336 338 339 338 337 337 338 339 337 336 334 331 327 326 325 327 332 339 342
350 352 357 354 344 341 338 347 347 344 344 346 346 347 346 346 347 345 346 347 346 342 344 336 334 335 335 336 334 334 337 339 338 336 336 336 336 338 337 333 327 325 325 325 325 333 338 340 340
351 348 354 354 347 343 347 348 347 344 344 347 347 344 342 347 346 346 346 346 345 345 344 342 338 335 335 335 335 337 338 337 337 333 332 336 337 339 338 336 337 330 334 341 341 334 334 338 339
352 354 350 348 348 348 344 347 347 347 346 347 346 342 345 346 346 345 345 345 345 346 346 343 339 335 335 334 335 336 340 343 344 345 343 346 341 338 340 340 340 341 342 341 341 338 341 339 337
352 351 349 345 345 350 346 348 348 347 347 347 346 344 346 342 345 346 343 345 346 346 345 344 341 340 336 339 343 342 345 344 344 340 341 343 338 339 340 341 339 339 341 345 340 342 343 344 341
352 350 347 348 350 351 349 348 348 347 347 346 344 345 344 340 340 341 345 346 346 344 343 345 344 342 343 344 344 344 341 342 340 343 342 343 342 342 342 335 337 330 339 340 343 343 343 343 342
353 352 349 348 344 349 349 349 349 348 346 344 343 344 343 341 340 342 343 345 346 345 346 344 342 344 346 345 346 348 345 341 343 345 346 344 345 343 338 335 335 342 342 340 344 341 343 343 341
351 350 353 349 353 352 351 349 347 346 346 345 343 342 342 341 341 342 342 342 346 346 344 341 341 345 346 346 346 347 344 342 346 344 346 345 345 343 343 342 342 341 343 337 339 343 342 342 342
350 354 354 352 352 354 348 351 349 346 347 346 345 343 343 342 342 342 342 341 342 344 344 340 344 345 345 345 344 344 345 347 347 346 345 345 342 339 343 341 338 342 342 343 343 345 343 342 341
351 353 357 355 352 351 350 354 347 346 346 346 345 344 343 342 342 343 343 341 344 345 343 340 342 344 344 343 347 346 346 346 344 341 343 346 341 343 343 344 343 347 349 349 348 348 343 344 345
354 356 356 357 352 352 351 353 348 346 345 345 345 344 343 342 342 343 343 342 344 345 343 344 342 341 342 345 345 346 345 346 347 346 345 344 343 346 347 346 344 344 346 344 344 345 346 344 346
353 354 355 355 347 346 353 352 349 347 344 344 344 344 343 341 342 344 344 342 342 343 344 347 342 343 342 345 347 346 346 347 346 345 347 348 348 348 344 349 343 345 345 347 344 342 346 345 345
350 353 349 349 343 343 352 352 350 347 348 347 344 344 342 341 340 345 344 343 344 340 344 344 343 341 342 346 346 345 345 347 347 347 345 345 342 345 350 346 339 345 346 343 342 345 345 343 346
346 347 349 345 341 340 343 352 348 346 346 345 346 344 343 341 340 345 345 345 345 344 345 344 343 342 342 345 347 347 347 346 348 347 346 345 346 346 350 346 343 345 344 342 345 350 348 343 344
347 349 348 347 342 339 343 353 350 347 345 344 343 345 345 341 341 345 345 346 345 340 344 343 344 344 344 347 347 347 348 347 346 348 348 347 348 344 348 346 346 345 340 338 346 347 350 343 342
349 345 344 344 344 348 344 357 352 349 346 344 344 344 345 343 344 345 346 346 345 342 340 342 342 343 340 343 347 348 346 347 346 345 347 347 347 347 345 345 340 345 334 343 348 351 347 349 348
348 344 343 341 343 348 349 354 352 347 347 346 344 343 345 346 344 342 344 347 345 346 345 341 344 345 339 346 348 345 346 344 346 347 347 347 347 348 349 348 346 343 342 340 344 349 343 348 349
343 343 343 343 345 350 349 351 354 348 344 343 343 343 344 346 345 345 345 345 345 346 346 347 344 343 345 347 348 345 345 349 348 348 347 346 348 347 347 347 348 343 341 346 343 348 345 345 345
343 345 350 349 346 347 345 349 348 348 346 342 343 343 343 345 346 344 345 345 345 344 345 345 345 342 344 347 346 349 348 348 346 345 347 349 349 345 346 347 349 342 342 335 342 340 340 345 343
345 339 342 349 353 352 349 354 351 344 345 346 344 343 344 344 346 345 343 345 346 345 345 347 346 341 342 348 346 346 347 345 345 346 347 347 348 344 346 346 346 344 341 350 347 344 342 344 340
331 336 335 341 343 349 351 347 344 345 345 345 344 343 343 345 345 346 345 344 346 350 349 345 349 343 340 343 344 344 343 347 349 348 347 348 346 342 344 346 347 346 347 345 345 346 345 340 343
327 331 331 338 348 350 352 351 353 343 344 343 342 342 342 343 343 345 347 345 346 351 349 348 349 345 338 344 346 346 346 345 350 348 344 345 347 346 343 344 344 344 346 346 346 347 348 347 345
325 327 328 335 336 345 352 350 343 344 342 343 342 342 342 340 341 344 346 346 346 347 349 348 345 347 345 348 349 347 340 339 342 345 346 344 342 345 340 341 345 344 346 345 348 346 343 349 349
326 325 324 326 332 336 336 353 346 345 343 342 344 345 343 341 343 343 346 345 346 344 344 343 339 349 349 352 351 350 341 343 345 346 346 344 340 344 342 345 344 348 349 349 348 346 344 343 347

GFSSGP_850_thetae_108.txt.gz
Theta_e
336 343 347 350 353 352 348 348 344 347 345 343 341 345 343 343 343 345 337 337 337 335 334 335 334 332 331 334 336 334 335 339 330 333 336 326 338 338 339 337 335 332 327 332 329 340 343 343 343
342 349 344 342 349 348 347 348 348 345 346 345 345 344 344 345 344 344 343 336 331 335 335 334 329 329 330 334 336 336 338 338 334 332 338 337 338 338 337 338 333 320 321 327 329 340 341 342 344
348 350 345 346 347 354 341 348 346 345 345 345 346 345 346 344 344 344 343 334 337 332 327 332 335 329 332 333 331 336 336 337 337 333 338 339 338 335 334 329 329 330 329 330 330 335 340 340 343
348 350 345 346 350 352 339 347 344 345 346 346 346 347 347 347 345 345 342 337 333 331 337 336 330 331 335 334 332 334 336 337 337 337 338 336 338 339 337 336 336 333 329 329 332 336 339 339 339
346 348 349 353 352 344 343 345 344 347 348 347 346 347 347 346 345 345 343 344 340 335 337 337 335 333 336 336 334 335 337 337 337 339 338 339 339 336 336 334 337 329 327 327 332 338 342 341 340
349 346 353 354 349 338 344 345 345 348 347 348 347 347 347 346 345 346 346 345 337 336 335 334 335 334 335 336 334 338 337 337 336 338 337 338 338 333 334 329 331 325 325 327 336 341 340 341 341
349 350 352 353 342 340 343 344 345 348 347 347 346 347 346 347 345 345 346 342 337 333 332 333 335 335 337 336 335 337 339 339 337 337 338 338 334 334 332 328 326 326 325 327 329 340 339 342 343
348 349 353 353 340 340 343 347 345 347 348 346 346 346 345 346 345 345 346 338 332 334 335 334 335 337 335 335 336 337 338 338 337 336 336 334 334 331 326 327 327 326 325 326 331 337 341 343 342
350 349 354 353 343 342 347 349 345 346 348 343 346 345 345 346 346 345 346 343 344 338 335 334 334 336 334 334 337 339 339 337 335 334 336 337 337 335 336 327 326 333 329 333 338 340 340 340 341
351 349 349 347 348 349 348 348 344 347 347 346 343 345 346 345 346 346 346 344 344 343 340 337 334 335 334 337 338 337 338 335 331 335 339 340 338 338 336 334 330 334 341 340 336 336 337 338 339
349 351 348 345 345 346 349 347 345 346 348 343 344 347 346 345 346 347 346 345 343 342 338 336 334 334 334 334 338 343 344 344 345 343 342 338 338 339 339 339 339 342 337 337 341 340 339 339 339
352 349 348 348 347 350 351 349 347 347 347 340 342 345 347 346 346 346 345 346 344 342 342 341 336 339 342 339 343 344 343 340 341 340 338 338 338 339 338 334 333 339 338 340 342 344 344 343 341
351 347 348 347 348 347 349 350 348 347 346 341 342 345 346 346 345 345 345 345 342 343 342 342 341 345 344 344 342 340 343 342 342 342 343 342 337 340 336 333 340 340 342 339 341 343 342 340 340
352 351 349 347 347 348 350 351 347 347 342 343 344 345 342 342 344 345 345 345 343 345 344 343 343 344 346 345 344 342 341 342 343 345 343 344 342 340 339 339 339 340 339 339 341 343 344 342 343
352 353 350 347 350 349 350 351 347 345 344 344 344 343 340 340 343 345 342 344 345 344 343 341 341 346 345 346 344 343 344 346 342 341 344 345 341 339 340 340 342 341 339 341 343 344 344 341 342
352 350 356 350 348 344 352 354 347 344 344 344 342 342 341 341 342 342 341 345 345 343 341 340 343 346 345 346 343 345 346 343 345 341 345 344 339 341 344 343 342 335 342 346 344 345 343 343 343
353 352 353 358 346 350 351 352 347 345 344 343 343 342 341 341 341 341 343 343 344 343 340 341 343 343 345 346 343 344 345 346 345 343 341 340 342 345 345 344 343 344 343 344 345 345 346 343 345
347 352 350 349 345 347 345 351 349 346 344 344 344 343 342 342 341 341 341 343 343 342 341 340 342 344 345 345 344 346 345 346 345 344 342 343 341 347 344 342 342 345 344 344 344 346 347 345 345
348 349 349 346 342 345 345 345 348 347 345 344 343 341 342 343 342 342 342 342 343 341 343 341 341 341 344 344 345 345 346 346 345 346 344 343 346 343 344 344 342 343 344 342 346 347 343 344 346
347 348 348 343 342 343 344 345 343 347 346 345 343 341 341 343 342 342 342 343 343 342 345 341 342 341 342 344 345 345 346 347 347 345 345 345 345 345 344 339 340 344 343 341 348 347 343 343 344
345 349 346 346 342 342 342 345 344 347 346 344 344 344 340 342 343 343 342 342 343 339 344 344 341 341 342 345 345 345 344 346 347 347 347 343 345 346 348 341 341 343 341 340 348 347 346 342 344
347 344 345 345 344 348 342 354 352 349 347 345 345 345 343 340 344 344 343 344 344 341 344 344 343 341 341 342 345 346 346 345 346 342 346 345 345 346 344 346 342 345 343 341 346 346 347 348 345
346 342 342 342 343 345 346 349 351 348 349 347 344 344 344 344 345 344 344 345 344 342 341 341 341 344 342 343 344 345 346 346 346 346 345 346 346 346 344 346 340 343 337 342 345 344 344 348 348
340 341 342 341 342 346 346 348 350 350 348 346 344 344 344 345 345 345 345 345 345 342 340 340 342 343 342 339 346 345 346 345 344 345 347 346 345 347 347 347 345 343 341 346 343 342 343 345 345
340 339 348 350 347 347 345 348 347 346 344 343 343 344 344 345 344 344 346 346 345 344 343 341 342 343 343 341 346 347 342 343 346 347 343 346 346 346 346 346 346 344 338 339 338 343 341 343 344
341 335 342 348 348 351 347 352 350 343 341 342 341 342 343 344 345 344 344 346 346 345 345 344 342 345 342 341 343 348 346 346 346 344 345 347 347 346 345 345 346 346 341 338 343 343 344 343 344
340 337 333 340 341 348 349 348 345 342 345 343 342 342 342 343 346 344 345 345 346 346 346 343 343 345 341 340 342 346 348 346 344 345 347 347 345 345 345 346 345 344 342 343 342 342 342 342 344
334 332 333 332 345 350 347 346 348 341 343 344 345 342 343 342 345 345 344 344 346 347 345 345 345 346 343 342 342 340 339 346 347 347 346 346 346 345 344 346 345 342 340 348 345 344 345 342 344
322 326 325 329 336 346 351 349 339 339 339 343 343 343 343 342 343 345 345 345 344 347 346 346 347 348 345 341 341 345 344 344 347 348 346 344 344 343 344 341 342 342 346 346 346 347 346 345 343
321 322 321 323 327 334 339 347 341 339 338 341 342 342 342 341 342 343 346 346 344 347 347 340 346 348 347 342 344 346 346 346 344 345 343 340 339 343 344 344 345 345 344 346 347 344 343 341 341

GFSSGP_850_thetae_114.txt.gz
Theta_e
332 336 342 348 343 342 346 347 340 338 338 338 338 339 340 343 342 334 335 336 337 337 339 340 339 340 339 339 337 336 332 332 330 324 326 334 333 334 337 340 339 337 339 340 340 335 337 338 338
336 346 343 342 342 347 349 345 344 344 340 338 342 343 343 344 341 336 336 336 337 337 338 338 338 336 336 335 336 337 330 336 332 329 334 333 338 338 337 334 338 335 340 342 343 343 339 341 340
344 347 345 340 341 346 348 346 346 343 342 342 345 344 343 342 338 335 334 335 336 336 335 334 330 330 335 332 335 335 327 333 331 336 337 339 339 339 324 322 329 338 342 340 342 343 344 342 340
344 347 344 346 348 345 346 345 346 346 345 344 343 346 343 341 336 335 335 335 335 335 334 329 330 330 334 332 335 336 332 335 335 336 335 335 332 336 340 337 338 333 337 339 339 338 339 338 338
344 346 347 351 351 344 344 344 345 347 346 345 344 346 345 341 341 333 332 333 334 330 330 336 338 336 335 336 336 337 335 336 334 336 337 337 339 335 336 336 335 334 332 338 338 339 338 339 334
347 344 349 353 343 345 344 345 346 346 346 345 345 345 345 344 340 334 333 334 331 333 335 332 339 339 338 336 336 337 338 338 338 337 338 334 338 337 336 333 334 330 332 339 340 340 339 337 337
348 347 352 343 344 347 345 346 346 345 345 345 344 344 345 343 336 334 338 335 333 337 335 336 340 339 339 339 337 336 338 337 337 337 335 334 336 339 332 328 327 329 335 341 340 342 341 339 337
347 346 352 348 346 346 346 346 346 345 345 343 343 345 344 342 340 341 342 335 337 335 333 335 337 339 337 338 338 336 337 336 336 336 336 340 338 333 326 325 326 328 339 340 339 342 341 341 339
347 346 350 352 341 349 346 347 346 346 344 344 345 342 342 344 344 344 338 337 335 335 334 334 335 336 334 338 338 337 337 336 335 333 338 327 327 326 325 325 325 328 335 339 339 342 341 341 341
348 350 350 349 347 347 347 346 346 345 345 344 343 343 344 345 344 337 337 335 334 335 334 334 335 335 337 339 338 337 335 335 335 336 334 330 325 325 327 327 332 332 335 339 340 339 339 339 339
347 351 347 346 346 345 346 347 345 344 344 343 344 343 344 344 344 338 339 337 334 334 333 334 334 334 335 338 337 336 334 335 336 337 335 334 329 334 335 337 338 336 337 338 337 337 338 338 338
350 348 347 342 342 346 347 349 345 343 343 340 342 342 343 345 344 341 340 338 336 334 333 334 332 333 337 337 336 332 332 336 336 337 337 337 338 337 336 339 338 339 340 339 339 339 340 340 339
349 349 348 348 347 347 347 348 348 343 344 341 343 343 344 345 345 342 340 334 335 334 333 333 333 336 337 341 341 339 339 339 337 335 336 337 338 337 333 335 338 336 341 342 343 343 341 340 339
348 348 349 349 348 348 348 348 348 346 343 343 344 344 345 344 344 343 342 338 334 333 333 333 333 335 341 344 342 340 340 337 338 339 337 341 340 336 336 340 340 340 340 341 342 341 341 341 338
348 351 348 349 348 349 347 349 349 345 344 344 345 345 345 344 344 343 343 340 336 338 338 339 340 341 341 340 340 340 341 340 343 342 342 341 341 339 340 341 340 340 340 342 340 340 341 341 341
351 349 352 348 349 348 346 352 349 347 345 345 345 345 345 345 344 344 344 340 340 339 342 342 342 342 342 341 340 341 343 341 341 342 344 340 339 340 339 339 338 343 341 342 342 340 341 342 343
338 349 352 350 345 348 347 351 347 345 343 344 345 345 345 345 345 345 344 341 341 339 343 343 344 344 345 344 341 342 343 342 341 343 342 339 341 341 340 338 341 341 343 343 344 344 344 343 343
344 349 348 350 347 345 342 344 346 345 342 343 344 344 344 344 344 344 344 342 343 341 342 341 345 344 344 343 342 344 344 342 342 342 342 340 341 343 339 339 337 342 343 343 344 343 343 344 344
344 348 348 346 345 346 343 343 345 341 345 342 342 341 343 345 345 344 344 343 343 342 342 341 343 345 341 343 343 343 344 345 344 342 340 340 342 345 341 340 342 343 344 345 345 344 344 344 345
345 346 346 344 343 342 344 344 343 341 342 345 342 339 341 343 344 344 344 343 343 342 342 344 344 342 342 343 343 343 342 345 344 343 342 342 340 341 343 343 342 345 343 344 346 343 342 343 344
344 343 344 345 343 341 343 345 345 343 342 344 345 340 340 340 342 343 344 343 343 343 342 343 343 342 341 342 343 343 344 345 345 345 344 345 342 342 346 341 341 344 344 340 346 344 342 343 346
343 340 342 344 344 345 343 349 347 344 345 344 345 341 340 341 342 343 343 343 343 342 341 341 343 343 342 343 342 342 342 344 344 344 343 343 342 343 345 343 342 343 342 339 342 346 343 342 344
334 341 340 342 340 343 346 347 347 344 344 343 345 343 340 340 341 343 341 342 343 341 339 340 342 341 342 342 342 343 343 344 344 345 342 344 342 343 343 344 343 344 343 338 345 345 345 345 344
338 338 337 336 338 343 345 346 345 346 341 342 343 344 341 340 341 341 341 343 343 342 340 341 339 340 341 342 342 342 343 342 345 344 344 343 344 344 343 342 343 340 342 338 344 344 343 344 345
336 331 336 340 341 343 342 344 343 345 343 342 344 345 342 340 340 343 343 344 343 342 341 343 341 341 341 341 342 343 343 344 344 345 344 344 346 345 345 344 343 343 343 342 343 343 343 342 343
335 330 333 337 340 342 344 345 344 339 342 342 344 344 344 341 341 343 342 342 342 342 342 342 342 342 341 341 342 342 342 343 344 344 344 345 345 346 345 346 346 344 343 343 342 341 341 341 341
338 337 330 335 336 341 344 344 341 340 342 343 344 344 344 344 343 342 342 342 343 343 343 341 343 342 341 342 343 341 340 346 344 342 345 344 344 345 345 345 346 345 345 345 341 338 343 343 342
334 333 336 332 340 345 342 344 344 343 341 345 344 343 343 344 344 343 342 342 342 343 343 342 340 339 340 340 343 340 341 346 346 344 346 344 345 345 346 346 346 345 344 344 343 345 344 344 343
325 332 327 328 333 339 341 339 337 340 340 344 344 344 344 343 344 344 343 342 343 343 343 343 342 341 340 340 342 341 343 343 346 345 343 345 346 345 345 345 343 344 345 345 345 343 343 343 345
322 328 324 328 327 333 333 336 338 336 336 341 341 342 343 343 343 345 344 344 343 343 344 344 343 343 341 342 344 342 341 342 344 340 345 344 345 344 344 344 344 345 344 344 344 343 345 345 345

GFSSGP_850_thetae_117.txt.gz
Theta_e
336 343 344 347 350 348 349 342 342 339 339 338 339 340 340 343 340 342 335 335 336 337 337 336 336 336 338 336 336 337 333 326 324 331 337 338 337 338 339 335 338 338 340 337 335 337 338 340 340
346 348 343 342 351 348 351 346 343 338 338 340 342 343 343 345 343 336 336 335 336 338 338 338 337 337 337 336 337 333 335 336 331 329 332 336 337 338 336 339 336 339 342 343 340 339 341 340 339
347 347 345 347 347 351 351 346 345 342 339 342 346 344 342 342 340 339 336 336 336 337 338 337 335 336 336 336 337 332 335 327 336 337 339 339 338 322 322 332 338 341 341 343 344 342 339 340 339
344 348 344 349 351 347 348 347 345 344 343 345 343 341 343 341 340 336 336 336 336 337 335 333 331 335 334 335 336 331 334 333 336 333 329 328 334 338 336 337 334 340 339 339 338 339 338 333 331
344 347 352 352 349 347 347 345 345 347 346 344 342 342 341 344 335 335 335 336 336 335 333 330 333 331 333 334 336 337 336 335 336 337 337 336 336 335 336 335 330 334 337 337 339 338 334 330 326
349 345 351 352 347 347 346 346 346 347 346 345 342 343 345 344 339 335 335 335 335 330 336 337 335 337 334 337 337 337 337 336 338 338 335 338 336 334 336 339 333 334 338 339 340 336 336 336 333
350 350 353 346 349 348 347 347 346 345 345 345 344 343 346 344 337 332 333 334 331 335 332 338 338 337 336 335 337 338 337 337 338 336 334 336 338 338 337 334 329 334 339 339 341 338 337 336 332
349 349 349 345 349 348 347 347 345 345 346 343 343 343 343 341 336 334 337 333 337 337 335 342 339 339 338 337 337 337 337 338 338 335 339 341 338 328 325 326 331 336 339 339 342 340 340 339 338
346 352 352 348 347 349 347 347 345 346 343 344 346 343 342 338 336 339 338 336 339 341 339 339 338 337 336 338 338 338 338 336 338 338 336 330 327 326 326 326 327 338 338 339 341 340 339 339 339
350 353 351 348 346 348 347 346 347 344 344 346 346 343 341 343 342 343 342 341 335 340 337 336 336 335 337 338 338 338 336 333 334 331 327 326 326 326 330 328 329 336 339 339 339 338 338 338 338
348 352 345 346 347 346 347 347 347 343 345 345 344 346 344 344 344 343 341 339 334 336 336 334 336 335 338 338 338 336 334 335 335 334 330 329 336 337 337 336 336 337 339 339 337 337 339 339 339
350 347 346 343 341 345 347 348 346 344 343 342 342 345 345 345 344 342 342 337 335 334 336 335 333 335 337 338 336 334 333 336 337 335 335 335 336 337 337 338 338 337 336 337 338 339 340 339 338
348 349 347 345 342 341 346 347 347 344 342 344 345 346 346 346 344 341 341 337 334 333 334 334 333 336 338 337 332 332 334 336 337 337 338 338 338 334 333 337 337 339 340 341 342 342 340 339 339
350 350 350 349 348 346 348 347 348 344 344 345 344 345 345 346 344 340 339 334 333 332 333 333 334 337 338 338 337 337 337 336 335 337 339 338 336 336 339 339 337 338 342 342 341 340 341 339 338
349 352 350 349 348 347 347 348 349 346 345 346 345 346 346 345 346 343 342 335 332 333 333 333 335 338 343 342 340 338 337 339 340 339 341 340 336 337 340 339 339 340 339 340 340 340 341 340 338
350 349 353 349 348 349 346 352 347 346 345 346 346 346 346 346 345 344 342 342 333 333 333 333 336 341 342 341 339 340 340 343 343 342 340 340 339 339 338 339 340 341 341 342 341 340 342 342 341
348 348 354 351 346 348 347 350 346 347 346 343 346 346 346 346 346 345 343 340 337 339 338 340 340 341 340 340 340 342 342 342 342 343 341 338 340 339 339 338 342 342 343 345 343 343 343 343 344
345 350 352 353 348 344 349 349 344 345 346 345 345 346 346 345 345 345 345 342 340 340 342 342 341 342 344 344 341 342 341 343 341 342 341 340 340 341 341 338 341 344 343 345 345 343 344 344 344
336 345 349 348 346 347 344 345 345 343 345 344 345 345 345 345 345 346 345 344 341 341 342 343 344 344 344 344 342 342 342 343 342 341 339 340 343 342 341 339 339 343 345 343 345 344 344 344 345
338 342 349 346 344 345 345 344 345 343 344 344 343 343 344 345 345 345 345 344 342 342 341 342 342 345 344 343 342 342 344 344 343 341 340 339 341 342 342 341 342 343 343 342 345 342 342 343 343
339 336 346 347 345 342 344 346 345 345 343 345 344 343 342 344 345 346 345 345 343 342 342 342 341 344 342 343 343 343 343 343 344 343 342 341 340 340 344 341 341 344 343 341 345 344 342 344 346
331 339 343 346 347 349 344 353 347 346 346 344 345 345 343 343 345 346 346 344 343 342 343 341 342 344 343 344 343 343 343 343 344 343 343 343 343 340 343 341 341 341 342 342 343 345 343 341 344
327 342 344 345 345 346 347 352 348 345 347 347 344 343 345 342 344 344 345 342 342 342 342 342 341 344 343 342 343 342 341 343 342 344 344 343 343 342 343 344 344 343 343 341 342 345 345 344 344
340 341 341 342 344 350 345 348 349 349 345 344 343 341 343 344 342 344 344 345 343 342 342 342 342 343 343 343 343 343 342 342 344 343 344 342 343 342 343 343 343 341 343 340 341 345 344 344 345
340 341 341 344 349 345 346 350 348 345 342 342 341 341 343 343 342 344 346 346 342 342 342 341 340 341 343 342 341 342 343 343 341 342 343 344 343 344 344 343 342 344 343 342 339 343 344 343 342
339 334 330 334 341 345 346 351 346 341 341 339 339 341 344 343 342 343 345 345 342 341 342 341 340 340 340 341 341 342 343 344 344 345 344 345 344 345 346 345 344 343 343 344 342 343 343 342 342
340 340 334 341 343 347 348 346 342 342 342 343 341 343 346 342 342 343 345 343 341 341 342 342 341 341 341 341 341 341 344 342 343 344 344 344 345 345 345 345 345 345 346 346 344 341 341 340 343
339 336 340 343 340 340 344 347 347 346 345 343 343 344 345 343 342 343 345 344 341 342 342 342 341 341 341 342 341 342 342 341 342 345 343 344 345 344 345 346 345 345 346 345 345 343 340 342 343
337 338 337 339 342 339 341 338 340 343 344 345 344 344 345 344 342 342 342 342 341 341 342 342 342 341 342 342 341 342 343 340 343 345 344 345 344 345 345 345 345 345 345 345 344 344 343 344 343
333 335 336 337 337 341 342 336 342 340 340 344 345 344 344 344 343 342 342 341 342 342 342 342 342 341 341 340 340 340 342 341 344 343 345 342 344 345 344 345 344 343 343 343 345 344 344 341 342

GFSSGP_850_thetae_120.txt.gz
Theta_e
341 348 347 354 354 345 346 345 344 343 343 341 340 341 342 344 344 346 339 340 336 337 338 337 337 338 337 338 338 335 326 335 335 338 336 334 338 336 331 339 338 340 338 337 338 340 341 344 344
346 347 348 348 350 347 349 345 345 343 341 343 343 342 343 345 341 340 340 339 335 337 337 336 336 336 335 337 334 336 333 328 331 329 332 335 337 338 340 338 340 342 340 336 340 339 340 340 340
345 346 346 349 348 348 348 346 344 342 342 346 346 345 343 343 340 340 339 339 340 339 343 340 337 336 335 337 333 338 327 336 334 338 338 332 324 328 336 338 341 343 343 343 340 339 340 340 336
344 351 347 351 349 349 346 346 344 342 342 346 345 344 342 341 341 341 340 340 342 344 344 334 330 335 332 337 330 332 334 337 336 336 335 333 336 332 338 337 340 338 337 338 338 334 333 335 332
344 350 351 352 349 348 346 345 345 346 346 345 341 341 344 345 343 341 341 342 343 342 343 341 331 334 333 337 336 336 336 336 336 334 336 338 334 336 337 332 337 337 338 337 333 329 327 325 326
351 348 352 353 350 348 347 347 347 347 346 344 341 341 345 344 342 341 341 341 341 341 341 344 331 333 335 337 339 338 337 338 338 336 337 335 335 336 337 331 334 337 339 339 334 334 333 331 326
351 351 352 349 351 349 349 347 347 347 346 343 343 345 345 344 342 342 341 341 340 344 344 345 345 340 336 338 338 338 338 338 336 335 337 338 337 335 337 330 334 338 340 338 336 337 336 334 331
351 349 350 348 350 351 347 347 346 345 347 344 342 342 346 344 342 342 342 341 343 343 345 346 345 345 346 345 338 337 339 338 334 336 339 339 329 328 327 330 336 338 340 340 339 340 338 339 338
350 354 352 349 348 350 347 347 346 345 343 342 344 340 342 343 343 343 342 343 344 343 344 345 346 347 346 346 340 340 337 337 337 341 338 343 341 342 344 336 336 338 340 341 340 339 338 338 336
351 354 354 350 348 350 347 346 347 344 343 345 344 343 344 343 344 343 341 343 343 342 341 345 345 345 347 347 345 344 346 345 345 344 343 342 343 343 340 328 338 338 339 339 338 338 341 345 344
348 354 350 348 347 348 349 347 347 344 345 345 344 344 343 343 344 344 342 342 342 341 342 345 345 347 347 347 346 346 344 345 342 342 343 343 342 343 342 336 341 342 340 342 343 345 345 346 345
351 346 345 348 347 345 345 348 347 344 345 344 342 344 344 345 345 343 342 342 342 342 343 345 345 348 348 346 345 345 345 344 342 342 344 345 343 343 341 341 340 342 343 342 346 344 346 346 344
348 347 347 346 344 345 345 349 348 345 345 342 343 345 345 344 344 342 342 341 342 342 343 344 345 349 348 347 345 344 344 344 344 344 344 345 343 341 342 340 344 345 346 346 347 346 347 346 344
348 350 351 349 349 346 345 348 349 346 343 343 344 345 345 344 344 344 341 341 341 342 344 344 345 350 347 346 345 344 343 344 345 346 345 338 344 344 344 344 346 347 348 347 347 347 347 344 344
350 353 352 351 349 348 348 351 350 346 345 345 344 344 344 345 345 344 342 340 341 342 343 344 346 347 347 345 343 345 344 344 345 346 339 337 342 341 344 344 345 346 340 342 343 347 344 344 343
350 348 353 352 350 349 350 353 349 348 347 345 344 343 344 346 346 345 344 340 340 342 343 344 344 347 349 349 347 346 345 345 347 348 347 337 337 340 342 346 346 341 345 347 346 345 344 345 344
343 344 349 354 350 349 349 353 348 348 348 347 345 344 344 346 347 347 346 343 340 342 344 344 344 347 348 347 348 348 347 347 348 347 347 339 339 338 344 346 347 345 351 352 350 347 346 345 344
338 342 345 349 352 351 349 351 346 348 349 349 347 344 342 345 347 347 346 345 342 343 344 344 346 347 348 348 348 348 347 347 347 347 347 340 341 340 345 347 346 351 351 351 352 351 350 348 347
335 338 341 351 349 351 352 351 349 346 346 349 347 345 343 343 345 347 347 346 345 345 346 347 347 348 347 347 348 347 346 348 347 346 342 340 343 340 339 347 345 349 352 348 352 349 351 350 349
335 336 341 349 348 349 349 350 346 348 345 348 348 347 344 343 345 347 347 347 345 345 346 348 348 345 348 348 347 348 346 347 347 347 346 347 346 341 343 344 343 345 350 348 352 347 350 350 350
333 335 336 344 348 347 348 351 349 347 346 346 347 348 344 343 344 346 347 347 346 346 346 347 349 348 344 348 347 347 348 345 345 347 347 346 344 345 341 341 346 345 347 350 347 349 345 349 351
331 333 334 346 346 348 347 346 351 350 351 347 346 347 344 342 344 344 346 348 347 347 347 347 348 347 343 343 348 342 344 346 347 348 348 349 348 346 349 341 341 342 348 346 349 351 349 347 351
327 332 335 344 345 345 348 350 343 348 353 350 347 347 344 342 343 344 345 347 347 347 348 347 348 344 349 342 347 345 347 346 347 348 348 345 346 348 348 344 340 340 342 343 342 344 347 351 349
330 334 341 344 343 344 340 347 345 352 349 347 344 345 345 345 343 344 345 346 347 347 348 348 348 342 345 342 342 344 348 348 348 346 348 348 348 348 348 348 344 343 345 343 345 343 345 347 349
333 334 337 339 341 339 345 345 345 344 345 345 345 345 346 346 344 344 345 346 347 347 348 348 348 347 346 344 344 343 347 347 347 347 346 344 348 349 350 346 342 348 342 343 343 340 348 347 349
332 331 332 335 334 336 346 345 344 344 342 342 345 345 346 346 346 344 344 346 347 348 348 348 348 348 348 349 347 348 346 343 346 345 346 346 346 345 347 346 348 344 348 344 343 345 345 350 348
333 337 331 332 333 336 336 342 343 343 342 342 342 341 341 342 344 345 344 347 348 348 348 349 349 348 348 348 349 348 346 342 349 351 346 348 346 345 346 345 349 348 348 343 347 347 349 348 348
338 337 336 333 336 337 335 340 341 342 344 344 344 342 342 343 344 346 345 347 348 349 348 349 349 348 348 348 348 348 349 347 350 349 344 349 350 344 345 344 346 349 350 349 346 350 350 350 349
337 339 337 336 337 336 339 339 339 341 344 346 344 344 343 346 345 345 345 347 349 349 348 349 349 348 348 349 349 349 349 349 349 349 350 346 343 344 345 345 346 348 347 349 348 349 349 351 350
328 334 334 336 335 338 337 343 341 342 343 343 344 343 344 346 345 344 346 348 348 349 349 350 350 349 349 349 350 350 349 348 350 344 350 347 344 344 345 346 346 345 348 350 350 346 350 351 351

GFSSGP_850_thetae_123.txt.gz
Theta_e
345 351 350 353 362 351 345 345 342 343 344 342 342 341 343 343 345 347 341 343 338 338 341 336 333 334 334 335 331 334 337 336 339 338 338 337 338 339 338 339 338 337 337 341 342 343 343 343 344
346 350 350 350 358 348 347 344 344 344 343 344 343 344 341 343 341 341 340 339 340 337 341 341 336 334 334 335 337 329 336 338 336 336 339 339 339 338 339 341 337 335 338 340 340 343 341 342 343
348 348 352 353 351 349 347 344 345 343 345 346 345 344 342 341 341 342 340 340 341 340 343 337 337 336 338 336 338 334 335 335 337 337 330 331 335 337 340 343 344 342 342 341 340 341 340 340 339
346 351 350 354 350 347 345 345 344 344 345 345 343 343 341 340 341 341 340 340 341 345 347 336 335 333 336 334 330 337 337 339 339 336 334 329 332 339 341 339 338 341 340 341 341 343 339 334 334
345 350 354 352 349 345 345 345 344 345 345 344 341 344 342 343 341 340 341 342 344 345 345 340 332 333 336 334 335 336 336 337 334 334 339 334 339 333 339 336 337 337 337 338 328 325 325 327 330
348 350 357 353 349 347 346 346 345 346 345 343 342 344 344 342 341 341 341 342 343 342 345 343 330 333 337 337 337 337 337 338 336 335 333 334 335 337 332 336 338 339 335 335 333 330 326 324 324
349 351 355 349 349 349 348 345 347 345 343 342 341 345 344 341 341 341 341 341 341 341 344 343 343 337 337 338 337 337 338 337 333 335 335 333 335 336 333 338 340 340 336 335 335 333 331 328 324
350 351 350 350 347 350 347 346 344 344 345 342 343 344 343 342 341 341 341 341 343 344 345 345 343 344 346 344 338 338 338 336 335 336 336 332 330 328 331 338 339 341 339 338 338 337 336 331 328
350 356 356 352 350 350 347 347 346 343 342 342 342 342 343 341 341 341 341 342 342 344 345 345 345 347 348 345 339 338 335 334 339 339 341 342 343 344 347 343 339 340 340 339 338 337 336 339 330
351 356 354 352 348 348 347 346 346 344 343 343 343 344 343 342 341 342 341 343 342 342 346 345 345 345 346 346 346 346 347 348 346 343 344 343 346 344 343 337 338 339 338 337 338 340 345 347 349
350 354 351 347 347 349 349 347 346 344 345 343 343 344 342 342 342 340 341 342 342 340 345 344 344 346 345 346 345 348 342 343 343 344 344 342 342 344 341 340 342 339 343 344 342 347 348 346 346
352 349 348 348 347 344 342 346 347 344 346 343 342 343 343 343 343 341 341 342 341 341 344 345 344 345 346 347 345 345 345 342 342 343 343 344 342 344 343 344 344 344 342 342 348 344 346 346 345
350 348 346 349 347 341 341 344 349 346 345 342 343 343 343 345 343 342 341 342 341 342 345 343 347 346 346 346 345 345 344 343 343 344 345 344 342 344 345 345 345 346 342 343 344 346 348 346 346
348 348 350 349 347 347 343 346 351 346 344 342 343 343 343 344 342 342 341 341 341 343 344 345 347 346 346 348 347 344 345 345 345 345 345 348 345 346 345 347 345 344 346 344 345 348 348 344 344
347 350 353 351 351 351 345 350 352 347 344 345 343 343 343 343 342 341 341 341 342 344 344 345 348 348 348 347 345 345 343 342 344 347 348 347 347 345 345 345 347 344 347 347 345 348 347 344 342
345 348 353 352 350 349 350 355 351 349 347 346 344 342 342 343 342 342 341 341 342 344 345 346 346 349 348 347 348 344 345 344 345 346 346 347 347 348 346 346 345 346 347 346 345 346 346 344 342
342 345 348 354 351 351 351 353 348 348 348 346 345 342 342 345 345 344 341 340 342 345 345 346 347 348 348 348 347 345 345 346 347 345 346 348 348 347 348 347 348 349 346 347 346 346 345 345 343
339 340 340 348 354 353 352 352 352 347 349 349 345 345 341 344 346 344 343 341 341 345 345 346 346 349 349 348 348 347 346 347 346 346 348 341 348 349 349 348 349 353 347 347 354 350 349 347 345
336 339 339 347 351 352 352 351 352 347 346 348 348 347 341 343 343 345 344 343 342 344 345 346 348 349 349 348 347 347 346 346 346 347 348 349 348 350 347 349 348 346 352 352 350 349 349 348 346
334 335 338 346 349 350 348 351 350 350 346 344 348 348 343 342 343 345 344 343 343 344 346 346 348 350 350 349 348 347 345 347 346 347 348 349 349 351 350 350 348 349 350 353 353 353 353 348 348
332 335 336 339 348 348 348 348 350 349 350 346 347 348 345 342 344 344 344 344 344 344 346 348 349 350 347 348 348 349 348 350 347 347 348 348 350 350 352 351 352 346 351 353 353 352 348 352 349
331 332 333 334 344 345 348 346 351 351 350 351 346 349 347 344 343 343 344 345 343 346 346 348 349 350 350 349 348 347 348 346 345 347 350 349 350 351 351 350 352 347 352 350 351 350 354 346 353
329 331 331 334 339 341 343 349 342 348 354 352 348 346 350 344 344 344 343 345 345 346 347 347 349 351 351 348 349 349 346 347 349 347 349 350 350 351 349 350 352 353 347 348 349 351 351 354 350
327 329 333 337 339 343 339 342 342 349 352 351 348 348 347 345 344 343 344 345 347 346 348 348 349 349 351 351 347 347 346 349 347 349 351 349 349 350 349 350 351 352 351 349 351 354 354 348 353
327 331 335 338 338 339 340 342 340 342 349 346 349 348 348 348 344 343 344 345 347 347 348 348 350 350 351 351 350 351 352 350 351 350 348 348 348 347 348 348 353 351 346 353 353 354 351 354 353
329 330 334 338 337 347 342 341 343 342 343 342 344 346 348 348 345 343 344 345 348 348 348 349 350 351 350 351 350 351 351 350 349 350 348 348 348 347 350 353 352 350 354 351 353 351 350 347 350
332 333 331 333 333 334 342 341 340 341 338 342 343 345 345 346 346 347 344 344 348 348 349 350 351 351 350 351 350 350 351 350 348 349 348 351 351 350 349 352 353 353 352 352 352 351 350 349 353
332 338 336 332 335 338 336 337 343 341 337 340 344 345 346 346 347 347 345 344 346 347 350 350 351 351 350 349 349 350 350 351 351 351 350 349 351 350 351 352 352 353 353 353 351 350 351 350 351
333 333 335 337 339 340 340 344 341 339 340 345 344 342 343 343 343 346 347 345 346 349 349 351 352 351 350 349 349 350 349 352 351 351 351 350 351 349 347 350 351 352 352 350 349 346 349 352 352
333 336 336 335 338 338 338 343 339 339 336 343 343 342 343 344 345 345 346 347 346 350 350 351 352 351 350 349 349 350 351 351 351 351 351 350 350 350 349 351 351 353 352 352 350 350 351 351 352

GFSSGP_850_thetae_126.txt.gz
Theta_e
346 350 352 353 358 356 346 345 342 344 344 342 343 341 341 342 344 346 339 343 344 341 333 333 334 333 330 328 334 338 333 333 338 337 337 337 337 337 338 339 341 342 342 343 343 342 342 342 342
346 344 351 351 356 352 348 345 345 344 346 346 344 341 342 344 342 345 344 343 341 342 333 334 334 332 330 325 333 335 338 335 337 338 335 336 336 339 336 336 338 340 341 342 342 343 342 342 339
349 351 353 353 355 353 348 344 344 344 343 343 342 341 340 342 342 341 341 340 341 343 343 335 334 333 331 329 333 335 334 335 337 337 336 337 338 342 343 339 340 341 340 341 341 339 336 336 338
345 349 352 354 353 345 345 344 342 345 346 344 341 341 341 343 341 339 341 340 343 346 339 335 334 333 335 331 335 335 337 338 334 322 325 337 338 341 340 343 340 339 340 341 343 335 334 334 337
347 350 355 353 350 346 345 343 343 346 343 343 341 341 342 341 341 340 341 343 343 336 339 333 333 333 333 331 338 338 336 337 336 338 336 338 338 339 341 340 338 337 333 326 326 327 329 332 336
347 340 349 358 347 345 345 345 345 344 342 343 342 342 342 340 342 342 342 345 344 345 344 329 333 335 336 335 336 335 336 336 335 332 333 339 334 337 337 339 336 333 333 328 326 324 324 330 335
348 349 352 354 351 347 347 345 346 343 342 341 343 342 341 341 340 342 343 343 343 346 343 332 332 336 337 337 337 338 337 336 334 332 333 335 333 333 338 339 337 335 335 332 329 325 323 323 324
351 347 354 352 351 349 346 345 345 343 342 343 344 343 341 341 341 342 341 343 343 343 344 344 338 337 337 336 337 337 333 333 335 334 333 330 329 334 338 339 336 337 336 334 331 327 325 323 323
350 357 356 355 353 353 346 347 342 341 340 343 343 342 341 340 341 341 341 343 343 341 344 344 347 348 343 337 337 334 331 335 338 341 342 344 339 339 343 339 338 337 336 333 332 343 344 336 341
352 354 353 351 348 342 340 347 342 342 341 345 344 343 341 340 341 341 342 342 344 345 340 344 346 344 346 343 336 339 343 344 344 343 345 347 346 344 336 338 338 336 334 341 346 346 346 348 347
351 355 353 350 346 343 347 348 348 344 344 343 345 342 341 341 342 342 343 340 344 344 341 345 346 346 346 340 347 334 344 346 342 343 344 344 341 337 338 339 337 344 342 341 346 347 346 347 348
351 350 349 348 346 345 338 343 348 345 345 345 343 342 341 342 341 340 343 343 344 346 345 346 345 342 347 345 348 346 344 341 343 346 337 343 346 344 345 345 340 344 339 345 347 345 346 345 345
350 350 347 349 346 342 340 341 347 347 345 343 342 343 341 343 342 341 341 342 342 345 346 346 345 341 345 349 346 345 344 343 341 342 347 345 343 340 343 341 346 346 343 343 345 349 346 346 344
349 348 350 349 347 344 340 347 344 347 342 341 342 343 344 344 343 342 343 342 341 344 344 346 344 346 348 347 346 345 344 343 345 345 346 345 342 344 340 341 343 344 346 345 344 348 348 345 344
348 351 351 351 351 350 345 350 349 348 347 341 342 343 345 344 342 342 341 342 342 345 346 347 345 345 348 348 344 344 342 347 345 343 341 348 345 345 344 347 346 345 346 345 345 345 347 344 344
343 349 354 353 351 350 349 354 343 343 349 343 342 343 343 343 341 342 341 342 344 345 346 341 347 346 346 344 342 345 343 346 347 347 344 344 348 341 347 343 344 343 340 345 346 347 347 344 343
343 346 348 353 351 352 349 349 347 344 350 346 344 343 343 343 343 341 342 342 344 346 346 345 348 345 346 342 346 346 348 345 342 346 347 343 340 346 348 346 350 341 348 346 345 347 346 345 342
341 343 345 353 354 352 351 352 343 346 349 349 347 347 344 343 344 342 341 341 343 346 345 348 347 346 346 348 347 346 345 345 347 346 348 339 347 345 347 345 345 345 353 349 346 348 346 344 344
336 340 347 352 349 349 352 352 353 348 347 351 346 346 346 345 344 344 342 342 343 346 346 348 348 347 347 349 347 346 346 347 348 342 350 344 347 341 349 348 342 348 347 343 349 347 350 350 346
335 336 336 345 346 344 344 349 351 352 347 346 339 340 347 345 346 344 343 342 342 346 346 347 349 347 347 345 349 347 347 347 346 350 347 343 345 346 348 350 351 347 331 347 349 342 351 340 349
334 333 336 342 348 346 344 346 345 351 351 347 347 347 345 347 345 344 344 343 343 344 346 347 348 348 348 349 348 348 348 348 345 347 347 348 348 342 347 347 350 345 351 351 349 340 348 349 347
330 332 333 335 337 341 346 348 345 349 355 351 346 348 341 348 346 345 344 343 344 345 346 346 348 348 346 347 349 348 348 348 347 347 347 346 346 349 348 343 346 348 349 346 353 355 349 343 338
330 331 332 333 334 336 345 350 343 348 351 352 349 348 349 348 344 345 342 344 344 345 347 347 347 348 347 346 347 347 346 346 349 348 347 351 346 346 347 350 346 343 340 351 346 352 349 348 349
328 328 329 333 335 339 339 341 339 346 352 353 349 348 348 348 346 344 343 344 344 347 345 348 348 345 346 345 347 347 342 348 343 348 346 346 347 343 346 349 348 348 343 349 349 345 345 342 345
326 327 331 334 337 339 342 338 343 347 342 349 351 348 348 345 346 345 345 344 345 347 347 347 348 346 345 347 343 346 348 347 347 347 348 350 350 351 350 346 349 346 347 343 350 347 347 350 349
329 327 330 337 339 340 342 346 347 346 345 345 344 345 347 348 346 346 345 344 347 347 347 349 349 348 345 345 346 345 349 350 351 347 347 347 348 348 346 350 350 348 348 350 347 346 345 345 347
329 332 330 331 333 334 337 344 345 340 338 336 343 348 348 348 348 346 345 346 344 348 348 347 349 349 347 347 347 347 347 349 348 351 347 350 348 350 351 352 352 348 350 348 348 351 348 350 349
328 333 337 333 337 336 335 345 348 342 342 345 344 345 348 349 348 348 345 344 347 347 348 347 349 349 348 350 348 346 346 345 349 349 349 349 351 349 350 350 347 352 351 350 349 347 348 349 347
332 331 334 334 338 340 341 348 341 340 340 347 345 344 346 346 348 349 348 344 349 348 350 350 350 350 349 349 351 350 345 348 346 347 349 349 347 347 350 346 348 350 350 349 350 350 346 350 351
330 332 335 335 336 337 340 341 339 340 338 345 338 340 346 345 346 347 348 343 346 350 350 350 349 351 351 349 351 349 349 346 349 346 345 351 347 344 346 345 346 347 349 350 350 347 346 347 348